     2.10           OBSERVATION DATA    G (GPS)             RINEX VERSION / TYPE
teqc 2005May6 SOPAC 20050822 23:03:14UTC                    PGM / RUN BY / DATE
Linux 2.4.20-8|Pentium IV|gcc|Linux|486/DX+                 COMMENT
BIT 2 OF LLI FLAGS DATA COLLECTED UNDER A/S CONDITION       COMMENT
HPGN CA 01-02 1991                                          MARKER NAME
Z102                                                        MARKER NUMBER
Ralph Klopcic                                               OBSERVER / AGENCY
0220224042 TRIMBLE 4700                                     REC # / TYPE / VERS
0220078884 TRM22020.00+GP NONE                              ANT # / TYPE
 -2698676.0000 -4150243.0000  4008783.0000                  APPROX POSITION XYZ
        2.0000        0.0000        0.0000                  ANTENNA: DELTA H/E/N
     1     1                                                WAVELENGTH FACT L1/2
     6    L1    L2    C1    P2    P1    D1                  # / TYPES OF OBSERV
    15.0000                                                 INTERVAL
Northern California Height Modernization 2004               COMMENT
                                                            COMMENT
SOPAC - Scripps Orbit and Permanent Array Center            COMMENT
IGPP - Institute of Geophysics and Planetary Physics        COMMENT
SIO - Scripps Institution of Oceanography                   COMMENT
UCSD - University of California, San Diego                  COMMENT
                                                            COMMENT
email: archive@gpsmail.ucsd.edu                             COMMENT
ftp://garner.ucsd.edu                                       COMMENT
http://sopac.ucsd.edu                                       COMMENT
                                                            COMMENT
                                                            COMMENT
Approximate Lat, Lon : 39.188, -123.034                     COMMENT
                                                            COMMENT
SNR is mapped to RINEX snr flag value [0-9]                 COMMENT
L1 & L2: 2-19 dBHz = 1, 20-27 dBHz = 2, 28-31 dBHz = 3      COMMENT
32-35 dBHz = 4, 36-38 dBHz = 5, 39-41 dBHz = 6              COMMENT
42-44 dBHz = 7, 45-48 dBHz = 8, >= 49 dBHz = 9              COMMENT
  2004     9    14    20    57   15.0000000     GPS         TIME OF FIRST OBS
                                                            END OF HEADER
 04  9 14 20 57 15.0000000  0  5G 3G 8G13G23G27
    -24494.36458    -15138.30854  22980989.3284   22980988.8794
      1208.9694
    -61099.68658    -31700.04855  22298146.8834   22298146.0784
      3043.0004
     -9094.66259     -8698.10458  20189432.5004   20189429.5824
       454.8134
     37179.63459     12232.34057  21857733.4844   21857729.3324
     -1824.7974
    -35163.54859    -20583.93858  21191010.4774   21191008.8364
      1807.4844
 04  9 14 20 57 30.0000000  0  6G 3G 8G13G19G23G27
    -42657.45347    -29291.36844  22977533.1024   22977532.6294
      1212.9224
   -106820.64548    -67326.77545  22289446.0864   22289445.4144
      3053.1724
    -15956.59849    -14045.08648  20188126.5704   20188123.4384
       460.2194
   -108527.46157    -68328.35354  23558402.0004   23558400.5084
      3099.9844
     64495.29249     33517.23446  21862931.8754   21862927.3634
     -1817.2034
    -62351.75849    -41769.56647  21185836.7424   21185834.9414
      1817.6884
 04  9 14 20 57 45.0000000  0  6G 3G 8G13G19G23G27
    -60880.68248    -43491.30444  22974066.1094   22974065.1414
      1217.0784
   -152694.37248   -103072.52846  22280716.9614   22280715.5554
      3063.4534
    -22901.58449    -19456.77648  20186805.0784   20186801.9804
       465.9224
   -155090.88947   -104611.50144  23549542.4774   23549539.3794
      3108.6414
     91696.73549     54713.14846  21868107.6884   21868103.1334
     -1809.4694
    -89694.26549    -63075.42147  21180633.7734   21180632.0234
      1828.1094
 04  9 14 20 58  0.0000000  0  6G 3G 8G13G19G23G27
    -79164.73248    -57738.61644  22970586.0004   22970585.5824
      1221.0004
   -198721.50849   -138937.82445  22271958.1024   22271957.0354
      3073.6094
    -29930.50749    -24933.87648  20185467.2274   20185464.3284
       471.4384
   -201783.72147   -140995.47044  23540656.8364   23540653.9844
      3117.2194
    118782.81049     75819.13546  21873261.5474   21873258.1374
     -1801.8754
   -117192.12349    -84502.33747  21175400.9064   21175398.7034
      1838.4384
 04  9 14 20 58 15.0000000  0  6G 3G 8G13G19G23G27
    -97498.69148    -72024.82444  22967097.7974   22967096.5784
      1223.3444
   -244891.42848   -174914.37145  22263172.4774   22263171.2074
      3082.1414
    -37032.37549    -30467.80948  20184115.9774   20184113.2154
       475.2974
   -248594.90147   -177471.68944  23531748.6024   23531746.6484
      3124.0164
    145764.32049     96843.65146  21878396.4924   21878392.7344
     -1795.9374
   -144834.56849   -106041.91647  21170140.8754   21170138.6604
      1847.0164
 04  9 14 20 58 30.0000000  0  6G 3G 8G13G19G23G27
   -115867.78948    -86338.40944  22963602.1174   22963601.1094
      1225.6254
   -291189.71149   -210990.96345  22254362.0394   22254360.4534
      3090.6724
    -44192.62549    -36047.24348  20182753.3364   20182750.5824
       479.1884
   -295509.34847   -214028.36644  23522820.5944   23522818.7894
      3130.8444
    172655.71849    117797.96646  21883514.0634   21883509.6094
     -1789.8754
   -172606.98749   -127682.76747  21164856.0634   21164854.3284
      1855.6884
 04  9 14 20 58 45.0000000  0  6G 3G 8G13G19G23G27
   -134265.68948   -100674.43744  22960100.7194   22960100.1604
      1227.0164
   -337609.88349   -247162.52046  22245529.1564   22245527.7624
      3098.2344
    -51404.90349    -41667.21947  20181380.8914   20181378.2934
       482.0634
   -342520.43448   -250660.35644  23513875.3444   23513872.9144
      3136.7664
    199463.26349    138686.92546  21888615.0704   21888611.4574
     -1784.8914
   -200503.05949   -149419.97947  21159547.5784   21159545.7704
      1863.2814
 04  9 14 20 59  0.0000000  0  6G 3G 8G13G19G23G27
   -152678.85948   -115022.37544  22956596.9614   22956596.5234
      1227.7814
   -384138.41849   -283418.50946  22236674.4454   22236673.4734
      3105.3284
    -58655.49249    -47317.02948  20180001.5554   20179998.3014
       484.4384
   -389614.38148   -287356.90744  23504913.7814   23504911.6054
      3142.1254
    226200.08649    159520.78646  21893703.0004   21893698.8954
     -1780.3124
   -228509.47449   -171243.16447  21154217.9224   21154216.3834
      1870.5784
 04  9 14 20 59 15.0000000  0  6G 3G 8G13G19G23G27
   -171102.22348   -129378.24344  22953090.4384   22953090.5394
      1228.4694
   -430770.22549   -319754.96146  22227801.0474   22227800.2034
      3112.1564
    -65939.41249    -52992.82548  20178615.2194   20178611.8404
       486.6254
   -436785.94548   -324113.92244  23495937.1174   23495934.7034
      3147.2664
    252871.01049    180303.29946  21898778.3364   21898774.0274
     -1775.9844
   -256621.34849   -193148.51747  21148868.5314   21148866.8874
      1877.5634
 04  9 14 20 59 30.0000000  0  6G 3G 8G13G19G23G27
   -189531.28048   -143738.55844  22949583.7274   22949583.4884
      1228.7504
   -477501.12549   -356168.64946  22218908.0164   22218906.3244
      3118.6414
    -73252.26949    -58691.15947  20177223.4844   20177220.8554
       488.4064
   -484030.45148   -360927.79644  23486946.8134   23486944.5514
      3152.0314
    279480.34749    201037.83046  21903842.1804   21903837.8874
     -1772.0624
   -284834.18949   -215132.54447  21143499.5394   21143497.9454
      1884.1884
 04  9 14 20 59 45.0000000  0  6G 3G 8G13G19G23G27
   -207953.46348   -158093.50044  22946078.2974   22946077.6414
      1228.0634
   -524318.72049   -392649.89546  22209999.1954   22209997.9384
      3124.2194
    -80581.56249    -64402.30047  20175828.8594   20175825.7774
       489.2814
   -531335.25147   -397788.63044  23477944.7114   23477942.4304
      3155.8134
    306040.44549    221733.98246  21908896.0474   21908892.4344
     -1768.9224
   -313135.59949   -237185.59848  21138114.5314   21138112.6884
      1889.8284
 04  9 14 21  0  0.0000000  0  6G 3G 8G13G19G23G27
   -226364.30148   -172439.61944  22942575.1174   22942574.5784
      1226.7664
   -571218.52449   -429195.18845  22201073.8204   22201072.8244
      3129.0634
    -87922.90049    -70122.83648  20174431.9454   20174428.9884
       489.5784
   -578695.28548   -434692.53944  23468932.6174   23468929.4734
      3158.8594
    332555.34749    242394.91246  21913941.5634   21913937.7934
     -1766.4374
   -341521.31949   -259304.33848  21132712.4614   21132710.7774
      1894.9224
 04  9 14 21  0 15.0000000  0  6G 3G 8G13G19G23G27
   -244751.85748   -186767.58044  22939076.2664   22939075.5394
      1224.8134
   -618188.77549   -465795.37646  22192135.6884   22192135.0004
      3133.4534
    -95264.35249    -75843.44447  20173034.8984   20173032.0944
       489.2194
   -626098.50348   -471630.08244  23459912.2734   23459909.1804
      3161.4534
    359036.74149    263029.73146  21918980.9614   21918977.0864
     -1764.5314
   -369979.51049   -281479.55547  21127297.3914   21127295.2464
      1899.4534
 04  9 14 21  0 30.0000000  0  6G 3G 8G13G19G23G27
   -263116.30748   -201077.54144  22935580.8524   22935580.7894
      1223.5474
   -665229.53749   -502450.49446  22183184.3204   22183183.7274
      3138.5314
   -102606.07749    -81564.28548  20171638.0554   20171635.1094
       489.5634
   -673544.68747   -508601.10544  23450883.4224   23450880.1174
      3164.5634
    385484.46749    283638.33346  21924014.1334   21924009.8754
     -1761.9844
   -398510.49349   -303711.49847  21121867.9924   21121865.8364
      1904.5474
 04  9 14 21  0 45.0000000  0  6G 3G 8G13G19G23G27
   -281451.40348   -215364.63844  22932092.2194   22932092.2854
      1221.2194
   -712334.89649   -539155.96246  22174220.7974   22174219.5744
      3142.4064
   -109941.97049    -87280.56547  20170241.8204   20170238.9384
       488.7344
   -721027.48947   -545600.64544  23441847.7664   23441844.5004
      3166.6414
    411904.36449    304225.22946  21929041.7894   21929037.5354
     -1760.4534
   -427108.19949   -325995.42448  21116426.2894   21116424.1764
      1908.6564
 04  9 14 21  1  0.0000000  0  6G 3G 8G13G19G23G27
   -299751.54048   -229624.48244  22928609.8204   22928609.2034
      1219.1094
   -759499.40249   -575907.52846  22165245.3284   22165244.4024
      3146.5164
   -117266.49549    -92988.01248  20168848.1024   20168844.9144
       488.2504
   -768541.08647   -582624.21844  23432805.8444   23432802.6564
      3168.8284
    438301.74749    324794.58546  21934065.1804   21934061.0204
     -1758.7974
   -455767.12949   -348327.06747  21110972.3364   21110970.1454
      1912.9224
 04  9 14 21  1 15.0000000  0  6G 3G 8G13G19G23G27
   -318013.85648   -243854.85444  22925134.1254   22925134.4304
      1215.8594
   -806720.38849   -612703.08346  22156259.8444   22156258.7664
      3149.5784
   -124576.89449    -98684.43047  20167457.0704   20167454.1374
       486.4694
   -816082.41648   -619669.39644  23423759.5944   23423755.5434
      3169.8914
    464679.18349    345348.41146  21939084.4534   21939080.2114
     -1758.2034
   -484484.65349   -370704.35547  21105507.7974   21105505.5164
      1916.0474
 04  9 14 21  1 30.0000000  0  6G 3G 8G13G19G23G27
   -336231.87347   -258050.71344  22921667.5004   22921667.6484
      1213.1254
   -853991.25749   -649537.52545  22147264.4614   22147263.2194
      3153.1254
   -131866.52249   -104364.66648  20166069.7584   20166066.7344
       485.3754
   -863644.78947   -656730.96544  23414708.2194   23414705.1054
      3171.6094
    491042.93249    365891.56746  21944101.1954   21944097.1954
     -1757.0164
   -513254.35949   -393122.31647  21100033.0314   21100031.1094
      1919.8284
 04  9 14 21  1 45.0000000  0  6G 3G 8G13G19G23G27
   -354406.38147   -272212.68244  22918209.8444   22918209.0944
      1210.0314
   -901312.86549   -686411.49946  22138259.5474   22138258.4414
      3156.2814
   -139136.24949   -110029.39547  20164686.5004   20164683.3364
       483.8284
   -911228.68147   -693809.28144  23405653.1334   23405650.6214
      3172.8914
    517392.02049    386423.29446  21949115.2424   21949111.2544
     -1756.2344
   -542077.16249   -415581.64647  21094548.6024   21094546.5124
      1923.1564
 04  9 14 21  2  0.0000000  0  6G 3G 8G13G19G23G27
   -372533.72747   -286337.88044  22914759.5554   22914758.9734
      1206.5784
   -948681.55549   -723322.14646  22129245.7274   22129244.2274
      3159.1254
   -146382.34249   -115675.70847  20163307.6804   20163304.5004
       481.9694
   -958830.26747   -730901.41744  23396594.9304   23396592.3594
      3173.7504
    543729.87349    406946.27646  21954127.1414   21954123.0664
     -1755.8594
   -570949.48649   -438079.55647  21089054.0554   21089052.0124
      1926.1884
 04  9 14 21  2 15.0000000  0  6G 3G 8G13G19G23G27
   -390602.76447   -300417.64544  22911321.3754   22911320.8054
      1202.8914
   -996086.43449   -760261.01146  22120224.3524   22120222.8284
      3161.6254
   -153593.58849   -121294.86247  20161935.2344   20161931.9774
       479.7664
  -1006438.11547   -767998.41944  23387535.1024   23387531.9734
      3174.2344
    570067.27449    427468.90146  21959139.4614   21959135.1994
     -1755.6414
   -599860.36049   -460607.51047  21083552.3984   21083550.7624
      1928.8284
 04  9 14 21  2 30.0000000  0  6G 3G 8G13G19G23G27
   -408613.87847   -314452.28544  22907894.3204   22907894.0084
      1199.0944
  -1043528.02349   -797228.46946  22111196.7974   22111195.2814
      3164.2664
   -160770.74849   -126887.47247  20160569.6174   20160566.7034
       477.6094
  -1054052.32647   -805100.39144  23378474.3444   23378471.9304
      3174.7814
    596403.72249    447990.77046  21964150.6334   21964146.9024
     -1755.5474
   -628810.24749   -483165.86447  21078043.2974   21078041.5004
      1931.5164
 04  9 14 21  2 45.0000000  0  6G 3G 8G13G19G23G27
   -426565.94248   -328440.89244  22904477.9454   22904477.9884
      1194.6254
  -1091005.25649   -834223.70846  22102162.4144   22102160.7624
      3166.1094
   -167912.70149   -132452.62847  20159210.7424   20159207.5474
       474.6884
  -1101671.50848   -842206.21044  23369413.9774   23369410.6454
      3174.6094
    622740.01549    468512.54946  21969162.5554   21969158.4184
     -1755.9534
   -657798.15649   -505753.84547  21072527.1414   21072525.0004
      1933.5474
 04  9 14 21  3  0.0000000  0  6G 3G 8G13G19G23G27
   -444452.50347   -342378.47544  22901074.0784   22901073.6844
      1190.6254
  -1138511.58649   -871241.61846  22093122.0084   22093120.9844
      3168.4534
   -175013.02949   -137985.36247  20157859.1724   20157856.6844
       472.3284
  -1149288.99647   -879310.73544  23360352.2344   23360349.4384
      3174.8134
    649082.49849    489039.11746  21974175.0944   21974171.4414
     -1755.9694
   -686817.76849   -528366.53447  21067004.8834   21067003.1804
      1936.1414
 04  9 14 21  3 15.0000000  0  6G 3G 8G13G19G23G27
   -462273.34847   -356264.86644  22897682.8444   22897682.5434
      1185.7814
  -1186047.05749   -908282.23246  22084076.7894   22084074.4774
      3169.9384
   -182071.60149   -143485.54647  20156516.0164   20156513.0704
       469.0634
  -1196904.30547   -916413.54344  23351290.6954   23351288.4024
      3174.1724
    675431.03249    509570.41946  21979189.5084   21979185.4774
     -1756.8914
   -715869.04949   -551003.89648  21061476.7664   21061475.0004
      1937.7344
 04  9 14 21  3 30.0000000  0  6G 3G 8G13G19G23G27
   -480021.00648   -370094.21044  22894305.3284   22894305.0594
      1180.8914
  -1233604.23049   -945339.75346  22075026.6414   22075024.6724
      3171.3444
   -189080.80849   -148947.27348  20155182.3914   20155179.5634
       465.7504
  -1244509.78448   -953508.70044  23342231.9614   23342230.1094
      3173.5784
    701792.90249    530112.11146  21984205.8984   21984202.1644
     -1757.7974
   -744944.64849   -573660.20047  21055943.6884   21055941.9654
      1939.3444
 04  9 14 21  3 45.0000000  0  6G 3G 8G13G19G23G27
   -497691.69347   -383863.56444  22890943.0704   22890942.4844
      1175.5474
  -1281179.16749   -982411.12546  22065973.4144   22065970.9734
      3172.4064
   -196036.93949   -154367.64647  20153858.4614   20153855.6094
       462.0944
  -1292101.37548   -990593.06444  23333176.3134   23333173.6994
      3172.4534
    728171.52748    550666.84746  21989225.2974   21989221.3754
     -1759.0004
   -774040.87149   -596332.59147  21050407.1884   21050404.8794
      1940.5634
 04  9 14 21  4  0.0000000  0  6G 3G 8G13G19G23G27
   -515286.38248   -397573.72444  22887595.1094   22887594.7854
      1170.5004
  -1328773.10748  -1019497.29846  22056916.2664   22056914.6524
      3173.5164
   -202940.95349   -159747.39848  20152544.8204   20152541.7424
       458.5474
  -1339679.86248  -1027667.19044  23324121.4224   23324120.5944
      3171.4534
    754565.83249    571233.80946  21994248.0784   21994243.9884
     -1760.1254
   -803158.73249   -619021.82947  21044866.2734   21044863.9964
      1941.9844
 04  9 14 21  4 15.0000000  0  6G 3G 8G13G19G23G27
   -532806.13648   -411225.48144  22884261.1644   22884260.2234
      1165.3594
  -1376387.30449  -1056599.26346  22047855.7734   22047854.7304
      3174.9224
   -209794.09249   -165087.51648  20151240.6334   20151237.3054
       455.0634
  -1387246.10348  -1064731.79144  23315070.9224   23315069.1764
      3170.7034
    780974.35948    591811.86346  21999272.9774   21999269.8324
     -1761.0784
   -832299.55149   -641728.96047  21039320.8364   21039318.6414
      1943.4064
 04  9 14 21  4 30.0000000  0  6G 3G 8G13G19G23G27
   -550249.57948   -424817.78944  22880941.5704   22880940.7814
      1160.4224
  -1424020.44948  -1093715.99146  22038791.1484   22038790.3014
      3176.2344
   -216594.89649   -170386.84447  20149946.5474   20149943.9304
       451.7034
  -1434798.26748  -1101785.42144  23306022.0784   23306020.0784
      3169.6724
    807398.42648    612402.01146  22004301.3284   22004297.8364
     -1762.0314
   -861461.94249   -664452.89647  21033771.3134   21033769.3204
      1945.0004
 04  9 14 21  4 45.0000000  0  6G 3G 8G13G19G23G27
   -567616.27748   -438350.27044  22877636.7734   22877636.5124
      1155.3914
  -1471672.08748  -1130847.12946  22029723.6884   22029722.0434
      3177.5164
   -223342.91149   -175645.04248  20148662.4844   20148659.5634
       448.1564
  -1482335.80648  -1138827.65244  23296975.7734   23296974.0204
      3168.7974
    833838.18248    633004.39446  22009333.4694   22009329.3284
     -1763.0474
   -890645.66049   -687193.46247  21028217.8054   21028215.5514
      1946.4844
 04  9 14 21  5  0.0000000  0  6G 3G 8G13G19G23G27
   -584897.40248   -451816.10044  22874348.4304   22874347.7774
      1149.4224
  -1519333.66748  -1167986.01946  22020653.6334   22020652.1914
      3177.9844
   -230029.48249   -180855.36247  20147390.0944   20147387.1214
       443.8914
  -1529849.65648  -1175851.41744  23287933.5704   23287932.1884
      3166.9224
    860302.04248    653625.54146  22014368.9144   22014365.0204
     -1764.8914
   -919842.01149   -709943.86648  21022661.9384   21022660.2194
      1947.0474
 04  9 14 21  5 15.0000000  0  6G 3G 8G13G19G23G27
   -602090.38747   -465213.21044  22871076.7894   22871075.9344
      1143.4064
  -1567002.49748  -1205130.55046  22011582.5634   22011581.6094
      3178.3444
   -236651.98449   -186015.75848  20146129.7734   20146126.8714
       439.5634
  -1577336.77848  -1212854.36144  23278897.7814   23278895.8054
      3165.1094
    886792.60948    674267.51746  22019410.0634   22019406.1954
     -1766.7664
   -949048.44449   -732702.11248  21017104.0234   21017101.9804
      1947.6564
 04  9 14 21  5 30.0000000  0  6G 3G 8G13G19G23G27
   -619195.76148   -478542.09944  22867821.5234   22867821.1214
      1137.6564
  -1614679.10248  -1242281.14946  22002509.9384   22002508.4654
      3178.8284
   -243210.96349   -191126.66048  20144882.1564   20144878.9184
       435.3284
  -1624797.50448  -1249836.74444  23269865.6884   23269864.4384
      3163.3444
    913309.03048    694929.63346  22024456.0704   22024452.3164
     -1768.5004
   -978265.49149   -755468.65447  21011544.3444   21011542.5704
      1948.3444
 04  9 14 21  5 45.0000000  0  6G 3G 8G13G19G23G27
   -636213.11948   -491802.36744  22864583.1334   22864582.6764
      1131.6724
  -1662363.31448  -1279437.66246  21993435.7974   21993435.0784
      3179.2974
   -249706.13949   -196187.84947  20143645.5004   20143642.7074
       430.8914
  -1672231.28047  -1286798.12544  23260838.6024   23260838.2074
      3161.4534
    939851.45448    715612.01746  22029506.9144   22029503.3794
     -1770.3124
  -1007493.04649   -778243.37047  21005982.7424   21005980.4224
      1948.9064
 04  9 14 21  5 59.9990000  0  6G 3G 8G13G19G23G27
   -653140.66847   -504992.68744  22861362.1444   22861362.1874
      1125.3444
  -1710051.14548  -1316597.00346  21984361.4644   21984360.7144
      3179.4534
   -256136.18249   -201198.27648  20142422.1514   20142419.3514
       426.3134
  -1719633.94447  -1323735.25444  23251818.3004   23251817.3314
      3159.2664
    966418.60848    736313.66346  22034562.2844   22034558.6634
     -1772.3124
  -1036728.41249   -801024.17148  21000419.0654   21000416.8194
      1949.2504
 04  9 14 21  6 14.9990000  0  6G 3G 8G13G19G23G27
   -669976.10948   -518111.22444  22858158.7224   22858158.4444
      1119.4224
  -1757744.70748  -1353760.80846  21975285.9644   21975284.6594
      3179.8594
   -262497.65449   -206155.27248  20141211.4254   20141208.8554
       422.0004
  -1767007.10447  -1360649.40244  23242803.6204   23242802.1244
      3157.3444
    993018.22648    757040.61246  22039624.3314   22039620.5774
     -1774.1094
  -1065971.22549   -823810.78647  20994854.1904   20994852.5154
      1949.9224
 04  9 14 21  6 29.9990000  0  6G 3G 8G13G19G23G27
   -686723.26548   -531160.94644  22854971.8154   22854971.1204
      1113.2664
  -1805445.81748  -1390930.49346  21966208.4484   21966207.2724
      3180.2664
   -268795.01849   -211062.31948  20140013.4254   20140009.9644
       417.5314
  -1814352.23447  -1397541.69144  23233793.6284   23233792.6554
      3155.2504
   1019643.49248    777787.54846  22044690.7224   22044687.0854
     -1776.0164
  -1095224.53349   -846605.56747  20989287.9804   20989285.8514
      1950.5004
 04  9 14 21  6 44.9990000  0  6G 3G 8G13G19G23G27
   -703376.76248   -544137.71444  22851803.0424   22851802.1834
      1107.0314
  -1853148.92548  -1428101.73746  21957130.6904   21957129.6874
      3180.1724
   -275022.95849   -215915.25748  20138827.8784   20138824.6904
       412.7974
  -1861663.59547  -1434407.67944  23224791.7614   23224788.7654
      3152.7814
   1046299.51648    798558.43946  22049763.0734   22049759.5774
     -1778.2034
  -1124483.04249   -869404.40647  20983720.5504   20983717.6244
      1950.6094
 04  9 14 21  6 59.9990000  0  6G 3G 8G13G19G23G27
   -719932.93548   -557038.63044  22848651.5584   22848651.6514
      1100.5944
  -1900850.55148  -1465271.83346  21948053.2304   21948052.2374
      3180.1414
   -281177.82349   -220711.26748  20137657.0194   20137653.8704
       407.9064
  -1908937.41847  -1471244.42044  23215794.0894   23215793.2144
      3150.3914
   1072989.74548    819355.99346  22054842.1674   22054838.7574
     -1780.4064
  -1153743.12049   -892204.46348  20978152.0894   20978149.7964
      1950.8444
 04  9 14 21  7 14.9990000  0  6G 3G 8G13G19G23G27
   -736392.39648   -569864.19644  22845519.8624   22845519.9374
      1094.0474
  -1948551.27749  -1502441.21746  21938976.1904   21938975.2694
      3180.0164
   -287260.27149   -225450.84548  20136499.3004   20136496.0734
       403.0944
  -1956173.90447  -1508052.05544  23206805.8154   23206803.7494
      3147.8134
   1099713.33548    840179.53446  22059927.5424   22059924.2964
     -1782.6874
  -1183005.46549   -915006.28648  20972583.5114   20972581.7494
      1950.8914
 04  9 14 21  7 29.9990000  0  6G 3G 8G13G19G23G27
   -752755.08548   -582614.34644  22842406.2694   22842405.6834
      1087.1094
  -1996251.17948  -1539609.96646  21929899.4254   21929898.2184
      3179.5164
   -293270.32249   -230134.01247  20135355.6984   20135352.5734
       397.7974
  -2003372.82047  -1544830.43144  23197824.5194   23197821.7534
      3144.8594
   1126470.09448    861028.92546  22065019.2304   22065015.6714
     -1785.3914
  -1212270.15049   -937809.94047  20967014.6284   20967012.6944
      1950.5634
 04  9 14 21  7 44.9990000  0  6G 3G 8G13G19G23G27
   -769015.71248   -595284.96944  22839312.1284   22839311.5384
      1080.9064
  -2043944.95548  -1576773.93246  21920824.0114   21920822.3784
      3179.5944
   -299202.53649   -234756.51748  20134227.0734   20134223.5694
       393.1094
  -2050528.52647  -1581575.12144  23188851.3704   23188848.1834
      3142.5004
   1153265.11148    881908.14146  22070117.9014   22070114.8004
     -1787.3444
  -1241531.90949   -960611.30947  20961446.3004   20961444.2534
      1950.9694
 04  9 14 21  7 59.9990000  0  6G 3G 8G13G19G23G27
   -785177.39848   -607878.50044  22836236.5034   22836235.9484
      1074.2664
  -2091635.89748  -1613935.69846  21911748.1364   21911746.9764
      3179.4224
   -305060.18749   -239320.92648  20133112.0974   20133109.5624
       388.1094
  -2097644.00448  -1618288.47044  23179885.9644   23179882.5774
      3139.7504
   1180095.01748    902814.52846  22075223.7614   22075220.2924
     -1789.7344
  -1270794.18449   -983413.08248  20955877.9954   20955876.0264
      1950.8754
 04  9 14 21  8 14.9990000  0  6G 3G 8G13G19G23G27
   -801240.40748   -620395.14444  22833179.9254   22833178.6514
      1067.2814
  -2139324.37348  -1651095.53846  21902673.0654   21902671.8044
      3178.9064
   -310843.46949   -243827.39348  20132011.5974   20132008.7574
       382.7974
  -2144719.18148  -1654970.43144  23170927.4804   23170924.3044
      3136.7034
   1206959.41748    923747.79546  22080336.3624   22080332.6984
     -1792.3124
  -1300057.10449  -1006215.35447  20950309.5424   20950307.3624
      1950.6254
 04  9 14 21  8 29.9990000  0  6G 3G 8G13G19G23G27
   -817197.75948   -632829.45744  22830143.5424   22830142.4804
      1060.2974
  -2187003.57248  -1688248.15046  21893600.3624   21893598.7964
      3178.3444
   -316545.49449   -248270.53447  20130926.7224   20130923.7654
       377.4534
  -2191746.86948  -1691615.36444  23161979.0584   23161974.9214
      3133.5784
   1233864.95148    944713.11746  22085456.3474   22085452.4294
     -1795.0314
  -1329313.81649  -1029012.78547  20944741.9724   20944739.8044
      1950.2974
 04  9 14 21  8 44.9990000  0  6G 3G 8G13G19G23G27
   -833052.24348   -645183.61544  22827125.6904   22827125.2844
      1053.1564
  -2234675.92448  -1725395.44246  21884528.8234   21884527.3154
      3177.5944
   -322169.01949   -252652.50847  20129856.3084   20129853.3864
       371.8914
  -2238729.42047  -1728225.11944  23153038.2534   23153034.2334
      3130.2814
   1260808.70048    965708.22046  22090583.2304   22090579.2574
     -1797.9844
  -1358567.10749  -1051807.56148  20939175.2694   20939173.6014
      1949.7194
 04  9 14 21  8 59.9990000  0  6G 3G 8G13G19G23G27
   -848801.95848   -657456.12944  22824129.4724   22824128.5854
      1046.9694
  -2282339.84148  -1762536.15446  21875458.7614   21875456.9684
      3177.8134
   -327712.13349   -256971.82947  20128801.7694   20128798.3784
       367.3594
  -2285664.70347  -1764798.05144  23144106.7924   23144103.1444
      3127.9224
   1287792.34048    986734.39346  22095718.3394   22095714.6164
     -1799.7504
  -1387815.23849  -1074598.31548  20933609.6514   20933607.3904
      1950.1724
 04  9 14 21  9 14.9990000  0  6G 3G 8G13G19G23G27
   -864448.62348   -669648.33044  22821151.8394   22821150.4014
      1039.5474
  -2329996.93848  -1799671.52346  21866389.0194   21866388.3314
      3176.8444
   -333176.57849   -261229.83447  20127762.1594   20127758.8084
       361.5634
  -2332554.24048  -1801335.31844  23135183.6124   23135180.6944
      3124.2664
   1314813.78648   1007790.04746  22100860.1364   22100856.7694
     -1802.7664
  -1417060.04549  -1097386.45447  20928044.6904   20928042.3394
      1949.5164
 04  9 14 21  9 29.9990000  0  6G 3G 8G13G19G23G27
   -879989.41948   -681758.05944  22818194.4804   22818194.0504
      1032.3284
  -2377644.47948  -1836799.47446  21857322.3864   21857321.2414
      3176.0314
   -338559.59349   -265424.40348  20126737.5654   20126734.5384
       355.9694
  -2379394.94347  -1837834.56444  23126270.7224   23126267.5894
      3120.8914
   1341875.62948   1028877.16046  22106009.4334   22106006.2224
     -1805.5784
  -1446298.79949  -1120169.91048  20922480.6904   20922478.4374
      1948.9534
 04  9 14 21  9 44.9990000  0  6G 3G 8G13G19G23G27
   -895421.87248   -693783.37144  22815257.9094   22815257.2884
      1025.1094
  -2425279.92149  -1873918.00046  21848257.6754   21848256.6014
      3175.2194
   -343858.83449   -269553.69248  20125728.9564   20125726.0544
       350.3754
  -2426184.06548  -1874293.61244  23117367.2614   23117364.0654
      3117.4694
   1368980.27548   1049997.63346  22111167.8004   22111164.1794
     -1808.4534
  -1475529.07649  -1142946.74547  20916918.1444   20916916.2414
      1948.2974
 04  9 14 21  9 59.9990000  0  6G 3G 8G13G19G23G27
   -910743.39548   -705722.22444  22812342.4874   22812341.3944
      1017.7034
  -2472901.11048  -1911025.40446  21839195.7144   21839194.9214
      3174.2974
   -349071.65349   -273615.63848  20124737.0584   20124733.9804
       344.6414
  -2472918.67147  -1910710.16545  23108473.8004   23108471.5814
      3113.7034
   1396130.02949   1071153.26246  22116334.8624   22116330.3234
     -1811.5164
  -1504748.32949  -1165714.98447  20911358.1284   20911356.1514
      1947.5474
 04  9 14 21 10 14.9990000  0  6G 3G 8G13G19G23G27
   -925957.56448   -717577.42444  22809446.5654   22809446.2264
      1010.7194
  -2520511.48948  -1948124.39246  21830136.0894   21830135.2884
      3173.6724
   -354201.50349   -277612.92148  20123760.9954   20123757.8904
       339.2664
  -2519602.00847  -1947086.77245  23099590.5894   23099588.8004
      3110.5314
   1423321.11949   1092341.08746  22121508.7844   22121504.7184
     -1813.9844
  -1533960.21549  -1188477.49447  20905799.0264   20905796.5464
      1947.2974
 04  9 14 21 10 29.9990000  0  6G 3G 8G13G19G23G27
   -941064.58048   -729349.12344  22806572.6754   22806571.6284
      1003.7664
  -2568111.39548  -1985215.21446  21821078.0424   21821076.6124
      3173.2344
   -359248.75749   -281545.86048  20122800.6904   20122797.9334
       334.0004
  -2566234.14647  -1983423.48645  23090716.0194   23090714.4604
      3107.2814
   1450553.12748   1113560.81146  22126690.6514   22126687.2224
     -1816.6254
  -1563165.00949  -1211234.47448  20900241.8944   20900239.6244
      1946.9534
 04  9 14 21 10 44.9990000  0  6G 3G 8G13G19G23G27
   -956061.12148   -741034.76344  22803719.0734   22803717.7304
       996.1724
  -2615697.27049  -2022295.10646  21812022.3784   21812021.5304
      3172.0634
   -364210.03049   -285411.79848  20121856.3234   20121853.3394
       327.9694
  -2612811.44448  -2019717.46545  23081852.3004   23081851.3624
      3103.4224
   1477829.28048   1134814.92046  22131881.3864   22131877.6594
     -1819.8284
  -1592359.49249  -1233983.42648  20894686.1284   20894683.9954
      1946.0784
 04  9 14 21 10 59.9990000  0  6G 3G 8G13G19G23G27
   -970947.56248   -752634.58344  22800885.7374   22800884.9914
       988.9224
  -2663269.51549  -2059364.38646  21802969.9014   21802968.5774
      3171.0944
   -369085.69649   -289211.03148  20120928.9644   20120925.8394
       322.2504
  -2659333.98148  -2055968.78344  23072999.2454   23072998.7764
      3099.7814
   1505148.86648   1156102.87946  22137079.9254   22137076.3124
     -1822.6564
  -1621543.92549  -1256724.53348  20889132.5264   20889131.0034
      1945.4064
 04  9 14 21 11 14.9990000  0  6G 3G 8G13G19G23G27
   -985724.53648   -764149.13444  22798073.0654   22798073.0154
       981.4844
  -2710828.91649  -2096423.64846  21793919.9334   21793918.0814
      3170.2344
   -373876.49649   -292944.12748  20120016.8394   20120013.8004
       316.5784
  -2705802.16348  -2092177.74544  23064156.5344   23064155.9914
      3096.1254
   1532511.08448   1177424.04746  22142286.7304   22142283.8274
     -1825.6254
  -1650719.23749  -1279458.53947  20883580.6754   20883578.4804
      1944.7974
 04  9 14 21 11 29.9990000  0  6G 3G 8G13G19G23G27
  -1000388.94947   -775575.95444  22795282.6834   22795282.7964
       974.2194
  -2758372.35249  -2133470.46646  21784872.6754   21784871.0464
      3169.2034
   -378579.27049   -296608.63548  20119122.0654   20119119.0814
       310.8444
  -2752212.44548  -2128341.55844  23055325.0194   23055324.0654
      3092.3594
   1559918.91648   1198780.76746  22147501.9874   22147498.4294
     -1828.3284
  -1679882.24049  -1302182.95848  20878030.9404   20878028.9804
      1944.0634
 04  9 14 21 11 44.9990000  0  6G 3G 8G13G19G23G27
  -1014940.79948   -786915.05844  22792513.9644   22792513.8904
       966.3754
  -2805899.81249  -2170504.83746  21775827.9724   21775826.6124
      3167.9694
   -383194.23249   -300204.72148  20118244.0654   20118240.9804
       304.7664
  -2798564.80648  -2164460.25944  23046503.7694   23046504.0194
      3088.1564
   1587372.00149   1220172.77246  22152726.2144   22152722.9914
     -1831.7664
  -1709033.04849  -1324897.87048  20872483.6284   20872481.4914
      1942.9384
 04  9 14 21 11 59.9990000  0  6G 3G 8G13G19G23G27
  -1029378.90147   -798165.53144  22789766.5504   22789766.3274
       959.0944
  -2853410.25149  -2207525.94446  21766787.1984   21766785.5154
      3167.1564
   -387719.83749   -303731.17248  20117382.7304   20117379.8044
       299.0004
  -2844857.54447  -2200532.53044  23037695.0424   23037694.4804
      3084.4694
   1614871.35548   1241600.79846  22157958.7224   22157955.9954
     -1834.5314
  -1738170.59649  -1347602.45148  20866939.3234   20866937.4604
      1942.3914
 04  9 14 21 12 14.9990000  0  6G 3G 8G13G19G23G27
  -1043707.56648   -809330.72744  22787039.4404   22787039.7334
       951.4534
  -2900908.01449  -2244537.18746  21757748.7454   21757746.9524
      3165.9844
   -392160.51849   -307191.45848  20116537.6834   20116534.8474
       293.1094
  -2891094.83647  -2236561.56544  23028896.3154   23028895.5424
      3080.5474
   1642412.48349   1263061.39246  22163200.2534   22163196.7334
     -1837.5624
  -1767299.13249  -1370300.00848  20861396.3784   20861394.3744
      1941.5004
 04  9 14 21 12 29.9990000  0  6G 3G 8G13G19G23G27
  -1057922.44247   -820407.25644  22784334.7614   22784333.8044
       944.2504
  -2948388.85249  -2281535.23346  21748713.2844   21748711.6324
      3165.3284
   -396512.06049   -310582.27648  20115709.5344   20115706.3314
       287.5164
  -2937271.88647  -2272543.65944  23020109.0734   23020107.7414
      3076.9534
   1669999.55449   1284557.77046  22168450.2924   22168446.5034
     -1840.2664
  -1796414.47349  -1392987.28947  20855855.6834   20855853.7764
      1941.0314
 04  9 14 21 12 44.9990000  0  7G 3G 8G13G19G23G27G10
  -1072029.11748   -831399.48844  22781650.3944   22781650.2924
       936.8134
  -2995858.22249  -2318524.34946  21739680.1204   21739678.8584
      3164.1884
   -400779.97949   -313907.93648  20114897.5344   20114894.6164
       281.6414
  -2983393.99348  -2308482.93845  23011332.1124   23011330.9764
      3072.8444
   1697626.68849   1306085.37446  22173707.8004   22173703.7454
     -1843.2034
  -1825522.13549  -1415668.58748  20850316.8944   20850314.2964
      1940.1884
   -115704.27856    -85624.56952  23910741.6444   23910741.1714
      3318.7974
 04  9 14 21 12 59.9990000  0  7G 3G 8G13G19G23G27G10
  -1086023.30548   -842304.05644  22778987.8154   22778987.3474
       928.9224
  -3043311.94949  -2355501.26646  21730650.3314   21730649.2144
      3162.7814
   -404959.98649   -317165.08348  20114102.1984   20114099.5584
       275.4224
  -3029456.64148  -2344375.89245  23002567.4804   23002564.7104
      3068.5314
   1725298.05148   1327647.45346  22178972.7844   22178969.6754
     -1846.4844
  -1854617.93549  -1438340.63748  20844779.7224   20844777.9994
      1939.0634
   -165443.05545   -124382.04642  23901276.4804   23901276.9174
      3312.8284
 04  9 14 21 13 14.9990000  0  7G 3G 8G13G19G23G27G10
  -1099901.82748   -853118.49044  22776346.8084   22776346.3744
       921.4694
  -3090746.92849  -2392463.58746  21721623.7144   21721622.0934
      3161.7974
   -409048.94549   -320351.30948  20113323.9334   20113321.0194
       269.6414
  -3075456.37348  -2380219.81145  22993814.3864   22993811.3124
      3064.5944
   1753016.55449   1349246.24946  22184247.9724   22184244.2264
     -1849.4534
  -1883698.78649  -1461001.04148  20839246.0114   20839244.2924
      1938.2664
   -215095.76246   -163072.44042  23891828.5114   23891828.5814
      3307.2814
 04  9 14 21 13 29.9990000  0  7G 3G 8G13G19G23G27G10
  -1113666.90447   -863844.53244  22773727.0894   22773726.9014
       913.3914
  -3138165.30749  -2429412.96146  21712600.1514   21712598.6754
      3160.2194
   -413049.14149   -323468.35448  20112562.7614   20112559.8624
       263.2344
  -3121395.20348  -2416016.27144  22985071.7374   22985069.1204
      3060.0784
   1780779.68348   1370879.82545  22189531.0584   22189527.1164
     -1852.8594
  -1912767.06149  -1483651.64348  20833714.4954   20833712.7574
      1937.0004
   -264664.55346   -201697.47142  23882395.4644   23882395.2264
      3301.2974
 04  9 14 21 13 44.9990000  0  7G 3G 8G13G19G23G27G10
  -1127317.13048   -874481.08444  22771129.1754   22771129.3044
       906.5634
  -3185565.63548  -2466348.26246  21703580.0344   21703578.8554
      3159.7974
   -416959.14049   -326515.11948  20111818.7844   20111815.8314
       258.0164
  -3167271.43648  -2451763.96544  22976342.0114   22976339.0344
      3056.6724
   1808588.83449   1392549.26645  22194822.9724   22194818.8194
     -1855.1254
  -1941821.28749  -1506291.30348  20828185.9014   20828183.8664
      1936.8444
   -314147.67146   -240255.75342  23872979.5894   23872978.4134
      3296.3134
 04  9 14 21 13 59.9990000  0  7G 3G 8G13G19G23G27G10
  -1140857.26847   -885031.84144  22768552.9334   22768552.7144
       898.7814
  -3232952.62649  -2503273.18046  21694562.4724   21694561.3434
      3158.4224
   -420783.72149   -329495.32148  20111091.0264   20111088.4014
       251.8284
  -3213089.40648  -2487466.25644  22967623.6754   22967619.9874
      3052.3284
   1836439.09748   1414250.73845  22200122.7614   22200118.9724
     -1858.2664
  -1970866.14449  -1528923.65648  20822658.6124   20822656.8394
      1935.7814
   -363549.60946   -278750.75742  23863578.7694   23863577.6554
      3290.5314
 04  9 14 21 14 14.9990000  0  7G 3G 8G13G19G23G27G10
  -1154284.61648   -895494.70744  22765997.2764   22765997.1944
       891.2504
  -3280323.65249  -2540185.64946  21685548.3624   21685547.1874
      3157.3594
   -424520.11449   -332406.80248  20110379.6904   20110377.0854
       246.0314
  -3258846.16448  -2523120.83644  22958916.7144   22958913.4374
      3048.2814
   1864332.68048   1435985.97345  22205430.4174   22205427.2534
     -1861.1724
  -1999899.17149  -1551546.79148  20817133.9804   20817132.1054
      1935.0314
   -412867.40546   -317180.20642  23854193.8554   23854193.6054
      3284.9844
 04  9 14 21 14 29.9990000  0  7G 3G 8G13G19G23G27G10
  -1167596.38548   -905867.51644  22763463.5974   22763464.4604
       883.7504
  -3327676.05848  -2577083.62946  21676537.5814   21676535.9404
      3156.2974
   -428165.54349   -335247.40348  20109686.3784   20109683.3974
       240.0944
  -3304538.63748  -2558725.34944  22950221.7924   22950217.9764
      3044.1094
   1892272.33348   1457757.09945  22210747.4174   22210743.8124
     -1864.0784
  -2028917.43149  -1574158.42448  20811611.9724   20811610.0154
      1934.1724
   -462098.11946   -355541.79642  23844825.5344   23844825.7334
      3279.2664
 04  9 14 21 14 44.9990000  0  7G 3G 8G13G19G23G27G10
  -1180792.52247   -916150.23144  22760953.2844   22760953.4524
       875.7664
  -3375009.59148  -2613966.87946  21667529.9804   21667528.8624
      3154.8914
   -431719.89549   -338017.04248  20109009.5584   20109007.1284
       233.8914
  -3350166.49648  -2594279.49445  22941538.8624   22941535.5344
      3039.6254
   1920258.09148   1479564.15545  22216072.8624   22216068.9524
     -1867.2504
  -2057920.99949  -1596758.59948  20806092.6054   20806090.8784
      1933.0164
   -511241.45346   -393835.33742  23835472.9724   23835473.2614
      3273.2504
 04  9 14 21 14 59.9990000  0  7G 3G 8G13G19G23G27G10
  -1193873.37548   -926343.11944  22758463.8084   22758463.8904
       868.1414
  -3422324.83048  -2650835.89346  21658526.0894   21658524.5624
      3153.7034
   -435183.52649   -340715.99048  20108350.9174   20108348.3154
       227.8444
  -3395729.77948  -2629783.33644  22932867.7374   22932865.4604
      3035.3444
   1948289.34548   1501406.65045  22221407.1754   22221403.5584
     -1870.2664
  -2086910.23549  -1619347.62348  20800576.4094   20800574.3154
      1932.0944
   -560297.54745   -432060.84142  23826137.4644   23826137.6284
      3267.4534
 04  9 14 21 15 14.9990000  0  7G 3G 8G13G19G23G27G10
  -1206837.39947   -936444.95944  22755996.8154   22755996.9294
       860.6414
  -3469620.34048  -2687689.54046  21649526.0264   21649525.0694
      3152.5784
   -438555.14649   -343343.24848  20107709.3944   20107706.4444
       221.9224
  -3441226.76748  -2665235.50744  22924210.3554   22924207.2764
      3031.0634
   1976367.19448   1523285.44945  22226749.6054   22226746.4954
     -1873.1874
  -2115883.72149  -1641924.37048  20795062.6124   20795060.2534
      1931.2664
   -609264.70346   -470217.10442  23816819.8944   23816819.0344
      3261.7034
 04  9 14 21 15 29.9990000  0  7G 3G 8G13G19G23G27G10
  -1219687.14648   -946457.76044  22753552.8234   22753551.7264
       852.8444
  -3516898.46648  -2724529.62546  21640529.2534   21640528.0974
      3151.3134
   -441837.08349   -345900.60548  20107084.7144   20107081.8314
       215.7814
  -3486659.57448  -2700637.66144  22915564.1674   22915562.1054
      3026.7664
   2004489.04848   1545198.55945  22232101.3004   22232098.0694
     -1876.2034
  -2144843.95649  -1664490.78048  20789551.7844   20789549.3514
      1930.2664
   -658145.13345   -508305.71042  23807519.0194   23807517.8234
      3255.7664
 04  9 14 21 15 44.9990000  0  7G 3G 8G13G19G23G27G10
  -1232419.88248   -956379.37544  22751129.2614   22751128.9404
       845.3914
  -3564156.66548  -2761354.18046  21631536.4404   21631535.0074
      3150.3444
   -445026.60049   -348385.96248  20106477.8554   20106475.0384
       210.0314
  -3532025.11748  -2735987.42644  22906931.1904   22906929.1634
      3022.5474
   2032657.46748   1567147.93545  22237461.8474   22237458.1244
     -1879.0474
  -2173788.34349  -1687044.85448  20784043.9954   20784042.0894
      1929.5314
   -706935.92546   -546324.52742  23798234.6284   23798233.6984
      3250.2344
 04  9 14 21 15 59.9990000  0  8G 3G 8G13G19G23G27G10G28
  -1245038.98048   -966212.44444  22748727.8784   22748727.4604
       837.4534
  -3611397.84848  -2798165.47746  21622547.1124   21622545.2144
      3148.8754
   -448127.24449   -350802.04848  20105887.9094   20105884.7414
       203.7344
  -3577326.57148  -2771287.22645  22898311.0034   22898308.9804
      3017.9534
   2060868.78948   1589130.75545  22242830.2614   22242826.7534
     -1882.1564
  -2202720.16449  -1709589.12547  20778538.5654   20778536.4254
      1928.4064
   -755640.34246   -584275.94242  23788966.5194   23788965.7024
      3244.0474
   -218019.24957   -165810.90352  23961016.3554   23961016.4294
      4466.5944
 04  9 14 21 16 14.9990000  0  8G 3G 8G13G19G23G27G10G28
  -1257543.08148   -975955.91644  22746347.7924   22746348.1474
       829.5784
  -3658621.13248  -2834962.84246  21613561.0264   21613559.4404
      3147.3914
   -451137.61449   -353147.81248  20105314.8864   20105311.9804
       197.4534
  -3622562.37948  -2806535.89344  22889703.0504   22889700.9294
      3013.3444
   2089124.29448   1611147.97845  22248206.5264   22248203.8554
     -1885.3754
  -2231638.10549  -1732122.60448  20773035.5034   20773033.4874
      1927.1724
   -804256.71445   -622158.86942  23779714.0264   23779714.1474
      3237.9224
   -285013.79147   -218014.36442  23948267.6054   23948267.2064
      4465.8444
 04  9 14 21 16 29.9990000  0  8G 3G 8G13G19G23G27G10G28
  -1269931.30848   -985609.08044  22743990.8474   22743991.0114
       822.3444
  -3705825.44348  -2871745.41846  21604578.0264   21604576.5344
      3146.6724
   -454056.78349   -355422.49448  20104759.5194   20104756.5074
       191.9064
  -3667731.21948  -2841732.37344  22881107.1204   22881105.8044
      3009.3444
   2117424.66148   1633200.17745  22253592.4094   22253589.1324
     -1887.8284
  -2260541.37849  -1754644.63348  20767535.3554   20767533.4254
      1926.7504
   -852783.82145   -659972.19442  23770480.0034   23770479.8784
      3232.4384
   -351998.38147   -270210.07843  23935521.4334   23935520.9834
      4465.6564
 04  9 14 21 16 44.9990000  0  8G 3G 8G13G19G23G27G10G28
  -1282207.23648   -995174.74044  22741654.5974   22741654.8474
       813.8444
  -3753014.47548  -2908516.08046  21595598.1674   21595596.9214
      3144.5944
   -456888.23749   -357628.83348  20104220.5734   20104217.7844
       185.0164
  -3712836.32547  -2876879.19044  22872523.4174   22872522.4174
      3004.0634
   2145766.12948   1655284.41645  22258985.5114   22258982.0734
     -1891.5944
  -2289433.41849  -1777157.90648  20762037.4644   20762035.4994
      1925.0004
   -901225.04845   -697718.61042  23761262.4644   23761261.4484
      3225.7504
   -418976.40147   -322400.66043  23922775.5344   23922775.3004
      4464.1414
 04  9 14 21 16 59.9990000  0  8G 3G 8G13G19G23G27G10G28
  -1294367.00148  -1004649.88644  22739340.6984   22739341.2304
       806.9384
  -3800184.06148  -2945271.59946  21586621.9644   21586620.4804
      3144.2194
   -459628.07249   -359763.79048  20103699.3234   20103696.4254
       179.7974
  -3757873.47948  -2911973.04745  22863953.2224   22863952.4134
      3000.4064
   2174152.41048   1677403.55745  22264387.4014   22264383.9954
     -1893.6724
  -2318310.42449  -1799659.47148  20756542.3624   20756540.1404
      1924.8754
   -949576.23445   -735394.82842  23752061.4874   23752061.1324
      3220.6094
   -485943.70947   -374582.90843  23910032.8004   23910031.2454
      4464.2504
 04  9 14 21 17 14.9990000  0  8G 3G 8G13G19G23G27G10G28
  -1306411.64048  -1014035.32844  22737048.7764   22737048.8124
       798.9844
  -3847335.47948  -2982012.95446  21577649.9094   21577648.1634
      3142.6564
   -462277.42649   -361828.22748  20103195.3004   20103192.1164
       173.4384
  -3802843.52847  -2947014.64744  22855396.5734   22855394.9094
      2995.6254
   2202582.18748   1699556.58545  22269797.4564   22269793.6944
     -1896.8444
  -2347173.58549  -1822150.25048  20751049.4804   20751047.5194
      1923.5784
   -997838.31846   -773001.66642  23742876.8704   23742877.4134
      3214.2814
   -552901.25447   -426757.52542  23897290.7064   23897290.4294
      4463.3134
 04  9 14 21 17 29.9990000  0  8G 3G 8G13G19G23G27G10G28
  -1318341.29548  -1023331.17244  22734778.7374   22734778.3944
       791.4534
  -3894468.82548  -3018740.23246  21568679.9954   21568678.5974
      3141.5474
   -464836.38349   -363822.23048  20102708.1984   20102705.3354
       167.4694
  -3847746.36748  -2982003.84845  22846851.7764   22846850.2884
      2991.2344
   2231055.22548   1721743.34545  22275216.4094   22275212.5384
     -1899.7034
  -2376022.97049  -1844630.29448  20745559.9174   20745557.8744
      1922.7194
  -1046011.12746   -810538.92742  23733710.8154   23733710.4484
      3208.4844
   -619849.03847   -478924.59942  23884551.0504   23884550.3354
      4462.8284
 04  9 14 21 17 44.9990000  0  8G 3G 8G13G19G23G27G10G28
  -1330157.70548  -1032538.76044  22732530.5344   22732529.7374
       783.9694
  -3941585.63848  -3055454.63046  21559714.5034   21559713.0304
      3140.4844
   -467306.83149   -365747.27348  20102238.2844   20102235.1124
       161.7194
  -3892583.25448  -3016941.66945  22838319.0194   22838318.6364
      2986.8594
   2259569.60448   1743962.30345  22280641.8474   22280638.4334
     -1902.3444
  -2404860.17349  -1867100.84648  20740072.3154   20740069.9834
      1922.0634
  -1094096.07346   -848007.72942  23724559.8314   23724560.0694
      3202.7034
   -686788.45047   -531085.13442  23871812.6904   23871811.9834
      4462.3134
 04  9 14 21 17 59.9990000  0  8G 3G 8G13G19G23G27G10G28
  -1341858.27248  -1041656.10044  22730304.4174   22730303.3824
       775.6564
  -3988683.51648  -3092154.25946  21550751.6904   21550750.9484
      3138.7344
   -469685.95249   -367601.14548  20101785.4724   20101782.4404
       155.1254
  -3937351.36347  -3051825.89245  22829800.0344   22829798.6554
      2981.6884
   2288127.59848   1766215.25645  22286076.5114   22286072.7574
     -1905.7814
  -2433682.90949  -1889560.13347  20734587.5734   20734585.4524
      1920.5004
  -1142090.56246   -885405.99242  23715426.8784   23715427.0974
      3196.0474
   -753716.78847   -583237.05142  23859076.4094   23859075.4444
      4461.0634
 04  9 14 21 18 14.9990000  0  8G 3G 8G13G19G23G27G10G28
  -1353442.48048  -1050682.76344  22728099.4874   22728098.8154
       768.4534
  -4035761.84949  -3128838.66146  21541793.1514   21541791.6794
      3137.9844
   -471973.26749   -369383.48248  20101350.2064   20101347.2414
       149.5004
  -3982049.87848  -3086655.87444  22821294.5654   22821292.6714
      2977.6564
   2316729.73248   1788502.60645  22291519.5584   22291515.8584
     -1908.2034
  -2462490.42849  -1912007.53848  20729105.5264   20729103.5304
      1920.0474
  -1189993.68146   -922733.08043  23706311.5734   23706310.7654
      3190.5634
   -820633.24647   -635379.69543  23846342.4334   23846342.0774
      4460.7344
 04  9 14 21 18 29.9990000  0  8G 3G 8G13G19G23G27G10G28
  -1364909.23148  -1059617.89244  22725917.5194   22725916.9334
       760.4064
  -4082819.49448  -3165506.94046  21532838.3624   21532837.1204
      3136.3284
   -474167.87049   -371093.56848  20100932.3154   20100929.4604
       143.1094
  -4026677.54848  -3121430.66844  22812802.6054   22812799.7414
      2972.6564
   2345376.80248   1810824.95545  22296970.7694   22296967.1364
     -1911.4374
  -2491281.90349  -1934442.45348  20723627.1754   20723625.2374
      1918.8134
  -1237804.30446   -959988.08142  23697214.0974   23697213.8154
      3184.2194
   -887536.66448   -687512.14143  23833611.5424   23833611.0814
      4459.6414
 04  9 14 21 18 44.9990000  0  8G 3G 8G13G19G23G27G10G28
  -1376259.13548  -1068461.97944  22723757.4014   22723756.7804
       752.4224
  -4129857.15048  -3202159.65646  21523887.2144   21523885.1874
      3134.9224
   -476270.22949   -372731.78748  20100532.5424   20100529.7574
       136.7194
  -4071234.58648  -3156150.41445  22804323.6834   22804320.2844
      2967.7504
   2374067.97448   1833181.67645  22302430.1124   22302426.9914
     -1914.5624
  -2520057.83449  -1956865.26548  20718151.0194   20718149.0034
      1917.5944
  -1285522.72946   -997171.26742  23688133.5194   23688132.7184
      3177.8914
   -954427.48248   -739634.85543  23820882.3784   23820881.8194
      4458.6724
 04  9 14 21 18 59.9990000  0  8G 3G 8G13G19G23G27G10G28
  -1387487.37548  -1077211.26844  22721621.1834   22721620.7924
       745.0004
  -4176869.97848  -3238793.03146  21514940.7454   21514939.3784
      3133.8134
   -478275.43249   -374294.29048  20100150.7064   20100147.6944
       130.8284
  -4115715.72248  -3190811.01345  22795859.1754   22795855.7924
      2963.2504
   2402807.97048   1855576.44645  22307899.0814   22307895.9404
     -1917.1564
  -2548813.40249  -1979272.20247  20712678.6054   20712676.6904
      1916.7344
  -1333143.72846  -1034278.57442  23679071.4094   23679070.9214
      3171.8594
  -1021300.53548   -791743.65642  23808157.3084   23808156.5264
      4458.0004
 04  9 14 21 19 14.9990000  0  8G 3G 8G13G19G23G27G10G28
  -1398595.05348  -1085866.60144  22719507.8234   22719506.7804
       736.2814
  -4223858.93448  -3275407.79346  21505999.4094   21505997.6634
      3131.5634
   -480184.67049   -375782.02648  20099787.3624   20099784.6474
       123.7664
  -4160121.81947  -3225413.15645  22787409.3154   22787405.0114
      2957.6094
   2431595.49347   1878008.24645  22313377.2694   22313374.2144
     -1920.9694
  -2577549.69349  -2001664.13047  20707210.7374   20707208.5424
      1914.8594
  -1380668.34946  -1071310.70142  23670027.7454   23670026.9484
      3164.8444
  -1088156.82048   -843839.45043  23795434.3944   23795433.4834
      4456.2194
 04  9 14 21 19 29.9990000  0  8G 3G 8G13G19G23G27G10G28
  -1409581.32648  -1094427.33844  22717415.9804   22717416.1324
       728.6564
  -4270823.54748  -3312003.58946  21497062.1984   21497061.1554
      3130.4384
   -481997.19949   -377194.38548  20099442.9254   20099439.8864
       117.8754
  -4204451.91448  -3259956.06144  22778973.0974   22778968.8394
      2953.0784
   2460431.09348   1900477.51545  22318865.2614   22318861.3314
     -1923.6724
  -2606265.96449  -2024040.44248  20701745.9874   20701743.4014
      1914.0004
  -1428095.49247  -1108266.92243  23661002.4954   23661001.8434
      3158.7974
  -1154995.42148   -895921.41243  23782715.2144   23782714.9014
      4455.5784
 04  9 14 21 19 44.9990000  0  8G 3G 8G13G19G23G27G10G28
  -1420449.03448  -1102895.67544  22715348.5734   22715348.2494
       720.4694
  -4317766.44348  -3348582.45846  21488129.1834   21488127.6904
      3128.6254
   -483715.79649   -378533.57348  20099115.6984   20099112.5304
       111.3134
  -4248708.32448  -3294441.55044  22770551.1674   22770546.7264
      2947.8284
   2489311.84648   1922981.96745  22324360.6364   22324357.0224
     -1927.0474
  -2634964.91049  -2046403.25447  20696285.0344   20696282.7764
      1912.5164
  -1475427.77546  -1145149.21743  23651994.8624   23651994.4804
      3152.1564
  -1221818.83748   -947991.56043  23769999.8394   23769998.7764
      4454.2974
 04  9 14 21 19 59.9990000  0  8G 3G 8G13G19G23G27G10G28
  -1431192.46248  -1111267.20044  22713303.9254   22713303.6364
       712.1254
  -4364681.67048  -3385139.77546  21479201.3234   21479200.1324
      3126.8134
   -485334.57049   -379794.96848  20098807.5114   20098804.7694
       104.6254
  -4292885.00448  -3328864.91644  22762144.7924   22762139.8474
      2942.4534
   2518243.34847   1945525.95645  22329865.9564   22329862.8194
     -1930.3914
  -2663640.87149  -2068748.15748  20690828.1984   20690825.8514
      1911.0164
  -1522659.05146  -1181952.81743  23643006.6514   23643007.1014
      3145.5004
  -1288621.09248  -1000045.19343  23757287.4724   23757286.5974
      4452.7974
 04  9 14 21 20 14.9990000  0  8G 3G 8G13G19G23G27G10G28
  -1441812.31648  -1119542.39844  22711282.8704   22711283.0624
       704.0004
  -4411569.80648  -3421675.98646  21470279.4014   21470277.7414
      3125.1094
   -486854.40649   -380979.26248  20098518.0654   20098515.1324
        98.1254
  -4336982.43348  -3363226.51844  22753752.7064   22753748.3904
      2937.4064
   2547224.68747   1968108.78345  22335380.8554   22335377.7304
     -1933.6874
  -2692294.62149  -2091075.76547  20685375.4174   20685373.3584
      1909.6254
  -1569790.00446  -1218678.20143  23634039.4014   23634038.0424
      3138.8914
  -1355402.70248  -1052082.79143  23744579.8394   23744578.8084
      4451.4534
 04  9 14 21 20 29.9990000  0  8G 3G 8G13G19G23G27G10G28
  -1452303.54348  -1127717.39344  22709286.3554   22709286.8584
       695.2194
  -4458426.12948  -3458187.39946  21461362.6364   21461361.0894
      3122.7814
   -488270.15049   -382082.45248  20098248.8944   20098246.2184
        91.0314
  -4380995.22348  -3397522.18644  22745377.0504   22745373.5464
      2931.4224
   2576260.68048   1990734.19645  22340906.3864   22340903.1364
     -1937.4694
  -2720921.06849  -2113382.08547  20679927.8704   20679926.1634
      1907.6094
  -1616815.35046  -1255321.31243  23625089.2534   23625089.4334
      3131.6254
  -1422158.55248  -1104100.31443  23731876.5974   23731875.5424
      4449.5634
 04  9 14 21 20 44.9990000  0  8G 3G 8G13G19G23G27G10G28
  -1462669.01348  -1135794.38144  22707313.8554   22707313.8584
       686.9694
  -4505253.36548  -3494676.13947  21452451.7374   21452450.3154
      3120.9844
   -489584.62649   -383106.72048  20097998.6834   20097995.9874
        84.3914
  -4424925.89148  -3431753.85744  22737018.0584   22737014.3314
      2926.0474
   2605348.50048   2013399.99045  22346441.6904   22346438.3194
     -1940.7974
  -2749522.91149  -2135669.23747  20674485.3554   20674483.2614
      1906.0474
  -1663737.71146  -1291884.22143  23616161.3944   23616160.1674
      3124.8284
  -1488891.24248  -1156099.73443  23719176.6124   23719176.9954
      4448.1414
 04  9 14 21 20 59.9990000  0  8G 3G 8G13G19G23G27G10G28
  -1472907.92248  -1143772.77044  22705365.6594   22705365.5464
       678.4064
  -4552050.51548  -3531141.45346  21443546.2844   21443545.1794
      3118.9064
   -490797.10449   -384051.53648  20097768.1364   20097765.0934
        77.5164
  -4468773.38747  -3465920.72644  22728673.6444   22728670.3274
      2920.5314
   2634488.64947   2036106.56745  22351986.6054   22351983.4444
     -1944.2814
  -2778099.49449  -2157936.71647  20669047.2224   20669045.2334
      1904.3444
  -1710555.90046  -1328365.87143  23607252.1124   23607251.3194
      3117.8914
  -1555599.63648  -1208080.26543  23706483.0584   23706482.0734
      4446.5474
 04  9 14 21 21 14.9990000  0  8G 3G 8G13G19G23G27G10G28
  -1483023.02148  -1151654.67144  22703440.9644   22703440.7374
       670.1884
  -4598820.37748  -3567585.49346  21434646.5264   21434644.7724
      3117.0634
   -491910.26749   -384918.93848  20097556.1674   20097553.3824
        70.8134
  -4512540.07147  -3500024.59744  22720344.6674   22720341.4134
      2915.0004
   2663678.16748   2058851.61645  22357541.0654   22357538.5464
     -1947.6564
  -2806653.52349  -2180186.60347  20663613.5424   20663611.6124
      1902.7194
  -1757272.37746  -1364768.34843  23598361.6834   23598361.2454
      3110.8914
  -1622286.34548  -1260043.89243  23693792.8394   23693792.1554
      4444.9844
 04  9 14 21 21 29.9990000  0  8G 3G 8G13G19G23G27G10G28
  -1493008.83348  -1159435.81644  22701540.8944   22701540.6794
       661.1724
  -4645557.53848  -3604004.05947  21425752.5814   21425751.5424
      3114.5164
   -492918.47549   -385704.56448  20097364.3474   20097361.8824
        63.4534
  -4556220.15247  -3534061.01844  22712033.7064   22712030.0424
      2908.7974
   2692922.41048   2081639.30545  22363106.5034   22363103.3514
     -1951.7664
  -2835179.40949  -2202414.56648  20658185.4014   20658183.6444
      1900.5634
  -1803881.54146  -1401087.16143  23589492.5264   23589492.3784
      3103.3914
  -1688945.69348  -1311986.20543  23681108.1124   23681107.1794
      4442.7814
 04  9 14 21 21 44.9990000  0  8G 3G 8G13G19G23G27G10G28
  -1502865.73848  -1167116.53644  22699664.7844   22699665.0344
       652.6094
  -4692262.28348  -3640397.35646  21416865.0034   21416863.8704
      3112.3754
   -493822.24549   -386408.81648  20097192.5584   20097189.5074
        56.5784
  -4599813.64047  -3568029.96244  22703737.4484   22703735.4374
      2903.1564
   2722220.84047   2104469.19945  22368681.8004   22368678.4294
     -1955.2194
  -2863677.61549  -2224620.96447  20652762.2454   20652760.4564
      1898.7194
  -1850383.48846  -1437322.43743  23580643.9014   23580643.0544
      3096.4384
  -1755577.83347  -1363907.32643  23668427.7304   23668427.8084
      4441.0634
 04  9 14 21 21 59.9990000  0  8G 3G 8G13G19G23G27G10G28
  -1512590.75148  -1174694.47144  22697814.5734   22697814.6714
       643.8284
  -4738931.67148  -3676763.09347  21407984.3154   21407982.9954
      3110.0004
   -494618.75849   -387029.48648  20097040.8944   20097038.1244
        49.3444
  -4643317.45248  -3601929.00544  22695458.8314   22695456.9834
      2897.1414
   2751576.26048   2127343.53045  22374268.3234   22374264.6164
     -1959.0944
  -2892145.25049  -2246803.54247  20647345.0584   20647343.1364
      1896.6884
  -1896775.06546  -1473471.71543  23571815.8394   23571815.1794
      3089.0164
  -1822179.75747  -1415804.84843  23655754.4644   23655753.6794
      4438.9534
 04  9 14 21 22 14.9990000  0  8G 3G 8G13G19G23G27G10G28
  -1522182.35748  -1182168.45544  22695989.2694   22695988.7374
       635.3284
  -4785564.03949  -3713099.99747  21399110.4254   21399109.5194
      3107.9064
   -495306.27449   -387565.22348  20096910.0584   20096907.3354
        42.4694
  -4686729.60548  -3635756.64545  22687197.7694   22687196.6014
      2891.3594
   2780989.90047   2150263.21545  22379865.2144   22379862.4404
     -1962.4064
  -2920580.66449  -2268961.00747  20641933.8084   20641931.9404
      1894.8914
  -1943054.47347  -1509533.58843  23563009.0344   23563007.8474
      3081.8284
  -1888749.63447  -1467677.43042  23643086.0894   23643085.4444
      4437.3134
 04  9 14 21 22 29.9990000  0  8G 3G 8G13G19G23G27G10G28
  -1531645.46348  -1189542.31844  22694188.8084   22694188.1514
       626.5164
  -4832164.19649  -3749411.80247  21390242.4334   21390241.1014
      3105.4844
   -495889.66549   -388019.82548  20096799.2614   20096796.1554
        35.3284
  -4730054.69247  -3669516.43745  22678953.6904   22678951.7494
      2885.3134
   2810456.84948   2173224.42845  22385473.1674   22385469.7414
     -1966.3124
  -2948988.68749  -2291097.13647  20636528.0504   20636525.9524
      1892.8284
  -1989226.36646  -1545511.67643  23554222.4174   23554221.8624
      3074.4224
  -1955292.02847  -1519528.60642  23630423.5114   23630422.2574
      4435.1254
 04  9 14 21 22 44.9990000  0  8G 3G 8G13G19G23G27G10G28
  -1540981.17348  -1196816.90044  22692411.8234   22692411.5934
       617.8444
  -4878733.24249  -3785699.36746  21381380.7374   21381378.9054
      3103.2504
   -496370.11249   -388394.21148  20096707.6674   20096705.0424
        28.3444
  -4773293.40247  -3703208.91945  22670725.2454   22670723.7454
      2879.4224
   2839975.81147   2196226.17545  22391090.2224   22391086.2804
     -1969.9534
  -2977370.42849  -2313212.77347  20631127.0034   20631125.1554
      1890.9534
  -2035291.68046  -1581406.68643  23545456.4564   23545456.1204
      3067.1564
  -2021807.80448  -1571359.00742  23617767.0424   23617764.6904
      4433.1564
 04  9 14 21 22 59.9990000  0  8G 3G 8G13G19G23G27G10G28
  -1550183.43348  -1203987.49244  22690661.4174   22690660.4724
       608.5944
  -4925265.08849  -3821957.95046  21372526.1444   21372524.4374
      3100.5314
   -496741.44149   -388683.57648  20096636.6834   20096634.1084
        20.7344
  -4816439.40848  -3736829.18045  22662516.2534   22662513.5934
      2872.8914
   2869552.65147   2219273.02045  22396718.3234   22396714.9954
     -1974.0944
  -3005719.79449  -2335303.19047  20625732.5034   20625730.4524
      1888.4384
  -2081244.02446  -1617213.72843  23536712.4564   23536711.8314
      3059.3444
  -2088290.83648  -1623163.97043  23605115.4564   23605113.8824
      4430.7344
 04  9 14 21 23 14.9990000  0  8G 3G 8G13G19G23G27G10G28
  -1559253.57748  -1211055.12744  22688934.8314   22688934.1404
       600.5944
  -4971760.96349  -3858188.48046  21363678.2614   21363677.0974
      3098.7344
   -497004.97749   -388888.93248  20096586.6444   20096583.9994
        14.1884
  -4859493.68548  -3770377.94245  22654321.7304   22654321.3354
      2867.4064
   2899185.93447   2242363.85545  22402357.5344   22402354.3704
     -1977.1874
  -3034038.13049  -2357369.41847  20620343.5344   20620341.7694
      1887.1414
  -2127084.51446  -1652933.58143  23527989.4874   23527988.4954
      3052.5944
  -2154742.06448  -1674944.11943  23592469.8704   23592468.6634
      4429.2504
 04  9 14 21 23 29.9990000  0  8G 3G 8G13G19G23G27G10G28
  -1568190.51348  -1218018.98744  22687234.5034   22687233.8354
       591.5474
  -5018219.95949  -3894390.28847  21354837.1284   21354835.8704
      3096.1884
   -497159.75549   -389009.55148  20096557.2764   20096554.3944
         6.9064
  -4902454.93648  -3803854.21945  22646147.4174   22646145.1474
      2861.1724
   2928876.46347   2265499.28245  22408007.3084   22408003.9484
     -1981.0164
  -3062324.36849  -2379410.65047  20614960.8864   20614959.0974
      1884.9064
  -2172811.87247  -1688565.29543  23519287.2924   23519286.9404
      3044.9384
  -2221160.35748  -1726698.58643  23579830.9254   23579829.9134
      4426.8594
 04  9 14 21 23 44.9990000  0  8G 3G 8G13G19G23G27G10G28
  -1576996.73048  -1224880.99544  22685558.9014   22685558.3394
       582.4844
  -5064644.42249  -3930565.19247  21346002.9094   21346001.6284
      3093.5784
   -497208.23949   -389047.34848  20096548.0974   20096545.6944
        -0.5004
  -4945325.36948  -3837259.74745  22637989.0814   22637987.7224
      2854.8284
   2958621.71548   2288677.37845  22413667.7144   22413664.5224
     -1985.0314
  -3090580.97149  -2401428.78848  20609583.9094   20609582.1904
      1882.5784
  -2218428.32746  -1724110.58342  23510606.5654   23510605.9334
      3037.1884
  -2287547.98348  -1778429.17243  23567197.9174   23567196.7614
      4424.6564
 04  9 14 21 23 59.9990000  0  8G 3G 8G13G19G23G27G10G28
  -1585674.33548  -1231642.74944  22683907.1444   22683906.9294
       574.2344
  -5111036.32149  -3966714.71047  21337174.7844   21337173.1904
      3091.7194
   -497152.50349   -389003.92448  20096558.5424   20096556.0154
        -7.1414
  -4988106.66048  -3870595.80045  22629848.1904   22629845.7224
      2849.1564
   2988419.40548   2311896.30545  22419338.3314   22419334.5424
     -1988.2344
  -3118810.00649  -2423425.43347  20604211.9334   20604210.4014
      1881.1254
  -2263935.73546  -1759570.85042  23501947.3624   23501946.2654
      3030.1724
  -2353906.71748  -1830137.25343  23554570.0734   23554568.9564
      4423.0314
 04  9 14 21 24 14.9990000  0  8G 3G 8G13G19G23G27G10G28
  -1594223.32448  -1238304.29944  22682280.6754   22682280.3974
       565.8594
  -5157395.59549  -4002838.82647  21328353.0264   21328351.1874
      3089.7344
   -496992.32449   -388879.12748  20096588.9874   20096586.3974
       -13.9844
  -5030798.46448  -3903862.12145  22621724.1834   22621722.2184
      2843.3444
   3018269.34247   2335155.94645  22425018.2694   22425015.0814
     -1991.4374
  -3147011.25649  -2445400.43147  20598845.7844   20598843.7334
      1879.4064
  -2309333.74746  -1794945.94143  23493307.4404   23493307.5384
      3023.0784
  -2420236.39848  -1881822.67243  23541948.0424   23541946.7304
      4421.2194
 04  9 14 21 24 29.9990000  0  8G 3G 8G13G19G23G27G10G28
  -1602644.90448  -1244866.57944  22680677.7844   22680677.8124
       557.1564
  -5203723.34049  -4038938.34947  21319536.7764   21319535.4764
      3087.4694
   -496728.96449   -388673.91648  20096639.4174   20096636.6944
       -21.0784
  -5073401.66248  -3937059.39845  22613617.0344   22613614.8624
      2837.2034
   3048170.22648   2358455.29545  22430708.8864   22430705.4484
     -1995.1254
  -3175186.04249  -2467354.81347  20593484.0264   20593482.2574
      1877.3594
  -2354623.33646  -1830236.50942  23484688.6984   23484689.4444
      3015.6254
  -2486537.94048  -1933486.17243  23529331.2454   23529329.8974
      4419.0944
 04  9 14 21 24 44.9990000  0  8G 3G 8G13G19G23G27G10G28
  -1610940.14348  -1251330.41344  22679098.9014   22679099.0544
       548.6884
  -5250020.58249  -4075014.12046  21310727.0504   21310725.8974
      3085.4064
   -496363.51849   -388389.16548  20096708.8314   20096705.9484
       -27.7974
  -5115917.05048  -3970188.26345  22605526.3554   22605524.0034
      2831.3594
   3078120.72848   2381793.30345  22436408.0584   22436404.3474
     -1998.4064
  -3203335.41549  -2489289.39247  20588127.3474   20588125.4294
      1875.6884
  -2399805.35546  -1865443.28442  23476091.6984   23476090.8904
      3008.5004
  -2552812.20348  -1985128.41743  23516718.9484   23516718.5854
      4417.3134
 04  9 14 21 24 59.9990000  0  8G 3G 8G13G19G23G27G10G28
  -1619103.28548  -1257691.30844  22677545.4804   22677546.2374
       539.8594
  -5296281.60249  -4111061.65447  21301923.9644   21301922.3904
      3082.8754
   -495890.20749   -388020.36248  20096798.7614   20096795.9684
       -35.1094
  -5158338.48148  -4003243.90345  22597453.5504   22597451.2454
      2824.9694
   3108126.59047   2405174.47045  22442117.7454   22442114.7104
     -2002.0944
  -3231453.50249  -2511199.59047  20582776.5974   20582774.7494
      1873.5164
  -2444873.76546  -1900561.51042  23467515.8394   23467514.4564
      3000.8134
  -2619053.19048  -2036744.73043  23504114.2304   23504113.1444
      4415.0164
 04  9 14 21 25 14.9990000  0  8G 3G 8G13G19G23G27G10G28
  -1627133.00848  -1263948.24744  22676017.7924   22676017.5224
       530.6254
  -5342504.94549  -4147079.84647  21293127.9564   21293126.0464
      3080.0314
   -495307.74549   -387566.51048  20096909.3704   20096907.2924
       -42.7664
  -5200664.39848  -4036225.12445  22589399.3234   22589396.7884
      2818.2814
   3138188.82548   2428599.54645  22447838.3314   22447835.3744
     -2006.2344
  -3259539.06349  -2533084.43947  20577432.1834   20577430.0854
      1871.0164
  -2489827.16346  -1935590.13642  23458961.0344   23458960.2184
      2992.7974
  -2685259.49248  -2088334.02043  23491515.6444   23491514.3084
      4412.2344
 04  9 14 21 25 29.9990000  0  8G 3G 8G13G19G23G27G10G28
  -1635031.32948  -1270102.78644  22674515.2614   22674514.6874
       522.0944
  -5388692.74349  -4183070.32847  21284338.8154   21284337.5034
      3077.8594
   -494618.08749   -387029.11848  20097040.9644   20097038.4374
       -49.6254
  -5242896.38548  -4069133.14844  22581362.3704   22581359.7924
      2812.2194
   3168305.33348   2452066.90445  22453570.1364   22453566.2694
     -2009.6254
  -3287593.99049  -2554945.42247  20572093.6054   20572091.6204
      1869.2344
  -2534667.19546  -1970530.40642  23450428.2844   23450428.0734
      2985.4384
  -2751432.77648  -2139897.55743  23478922.9094   23478922.3234
      4410.3444
 04  9 14 21 25 44.9990000  0  8G 3G 8G13G19G23G27G10G28
  -1642802.72248  -1276158.42144  22673036.2224   22673035.6944
       513.7664
  -5434849.12449  -4219036.32747  21275555.2454   21275554.3824
      3075.9844
   -493825.64149   -386411.64348  20097191.4484   20097188.8784
       -56.3444
  -5285038.61048  -4101971.24245  22573343.1904   22573340.3234
      2806.4064
   3198471.53247   2475572.98745  22459310.1674   22459306.8194
     -2012.8124
  -3315622.68249  -2576785.96847  20566759.9644   20566758.0654
      1867.6414
  -2579398.03846  -2005385.58542  23441916.5734   23441915.4724
      2978.2814
  -2817577.29048  -2191438.70443  23466335.9254   23466335.4564
      4408.5944
 04  9 14 21 25 59.9990000  0  8G 3G 8G13G19G23G27G10G28
  -1650449.84248  -1282117.20944  22671581.1674   22671580.4134
       505.6884
  -5480976.86049  -4254980.01047  21266777.7924   21266776.4724
      3074.2814
   -492933.06549   -385716.13748  20097361.4644   20097359.4294
       -62.8284
  -5327093.56747  -4134741.31945  22565340.7064   22565338.1754
      2800.8284
   3228684.60648   2499115.61045  22465059.5034   22465056.3474
     -2015.7344
  -3343627.73949  -2598608.09248  20561430.9804   20561428.7334
      1866.2974
  -2624022.12846  -2040157.59942  23433424.8944   23433424.2534
      2971.4064
  -2883695.45148  -2242959.27843  23453753.4404   23453753.5114
      4406.9844
 04  9 14 21 26 14.9990000  0  8G 3G 8G13G19G23G27G10G28
  -1657967.06148  -1287974.78144  22670151.0264   22670150.2264
       497.2034
  -5527070.33649  -4290896.99447  21258006.4014   21258004.6944
      3072.1724
   -491934.69649   -384938.19648  20097551.4804   20097548.9334
       -69.7194
  -5369055.14948  -4167438.64345  22557355.4014   22557352.4484
      2794.7814
   3258950.00848   2522698.99345  22470818.3234   22470816.1674
     -2019.0004
  -3371603.59149  -2620407.44847  20556107.0504   20556105.5464
      1864.4844
  -2668533.72746  -2074841.93742  23424954.5194   23424953.3824
      2964.0314
  -2949781.41448  -2294454.80543  23441177.9724   23441177.7024
      4405.0314
 04  9 14 21 26 29.9990000  0  8G 3G 8G13G19G23G27G10G28
  -1665357.93448  -1293733.90444  22668742.9014   22668743.2414
       488.4534
  -5573132.65249  -4326789.70047  21249240.7224   21249239.4994
      3069.7034
   -490834.06249   -384080.57748  20097761.0814   20097758.6874
       -76.8914
  -5410926.52348  -4200065.66645  22549387.9014   22549384.6164
      2788.3284
   3289264.07148   2546320.29645  22476587.4724   22476584.2614
     -2022.6254
  -3399553.65449  -2642186.72047  20550788.5814   20550786.6204
      1862.3754
  -2712935.91546  -2109441.05842  23416504.9014   23416504.2534
      2956.4384
  -3015838.54048  -2345927.85243  23428608.4874   23428607.4444
      4402.7344
 04  9 14 21 26 44.9990000  0  8G 3G 8G13G19G23G27G10G28
  -1672622.28548  -1299394.45344  22667361.5584   22667361.2414
       480.0474
  -5619163.89149  -4362658.19747  21240481.5894   21240479.9404
      3067.6884
   -489631.08449   -383143.20447  20097989.9174   20097987.7614
       -83.6724
  -5452707.22848  -4232622.05545  22541437.3084   22541434.3434
      2782.3444
   3319626.78348   2569979.51045  22482364.9014   22482361.9914
     -2025.9064
  -3427477.68849  -2663945.70447  20545474.6834   20545472.5694
      1860.6414
  -2757228.30046  -2143954.60142  23408076.4094   23408075.3744
      2949.0784
  -3081866.34447  -2397378.03743  23416043.0344   23416042.8354
      4400.9224
 04  9 14 21 26 59.9990000  0  8G 3G 8G13G19G23G27G10G28
  -1679763.85448  -1304959.31344  22666002.3554   22666002.5734
       471.9064
  -5665167.71249  -4398505.32047  21231727.1984   21231725.8864
      3065.8754
   -488329.32849   -382128.86048  20098237.7454   20098234.7764
       -90.2664
  -5494400.64748  -4265110.42745  22533503.8944   22533500.5814
      2776.5314
   3350034.30248   2593673.65045  22488151.6514   22488148.4404
     -2028.8124
  -3455379.50248  -2685687.38047  20540165.0894   20540163.1674
      1859.2194
  -2801414.42846  -2178385.32642  23399668.3234   23399667.0034
      2942.0634
  -3147868.38748  -2448808.15943  23403483.2304   23403483.0384
      4399.1094
 04  9 14 21 27 14.9990000  0  8G 3G 8G13G19G23G27G10G28
  -1686783.13748  -1310428.88844  22664666.0894   22664666.7454
       463.9384
  -5711144.50249  -4434331.37747  21222978.0974   21222976.9134
      3064.2814
   -486929.22349   -381037.87547  20098504.0344   20098501.5584
       -96.5314
  -5536006.93348  -4297530.89645  22525586.0194   22525583.4994
      2770.8914
   3380485.96747   2617402.16645  22493946.3084   22493943.4604
     -2031.4694
  -3483259.36449  -2707411.94448  20534859.5814   20534857.9374
      1858.0164
  -2845494.57046  -2212733.48342  23391280.2144   23391279.3314
      2935.2194
  -3213844.91448  -2500218.38943  23390928.2224   23390928.0384
      4397.6254
 04  9 14 21 27 29.9990000  0  8G 3G 8G13G19G23G27G10G28
  -1693675.83648  -1315799.84644  22663354.9404   22663354.5344
       455.5004
  -5757089.72049  -4470132.84347  21214235.0034   21214233.4524
      3062.2504
   -485426.47349   -379866.92548  20098790.0734   20098787.4524
      -103.4374
  -5577521.37448  -4329879.80245  22517685.7224   22517683.4404
      2764.7974
   3410986.00848   2641168.39245  22499750.6444   22499747.4604
     -2034.6724
  -3511112.97549  -2729116.05247  20529559.4334   20529557.5194
      1856.2814
  -2889464.07846  -2246995.45442  23382913.1124   23382912.1284
      2927.8134
  -3279791.19148  -2551605.07043  23378380.0264   23378378.4874
      4395.6254
 04  9 14 21 27 44.9990000  0  8G 3G 8G13G19G23G27G10G28
  -1700448.98148  -1321077.60244  22662065.7764   22662065.5734
       447.2664
  -5803010.44249  -4505915.21447  21205496.8084   21205495.2964
      3060.2814
   -483828.06349   -378621.40848  20099094.3084   20099091.5774
      -110.0164
  -5618950.76948  -4362162.43845  22509801.9014   22509799.5304
      2758.7814
   3441527.10648   2664966.59945  22505562.5114   22505558.7334
     -2037.6564
  -3538947.34848  -2750805.18647  20524262.6674   20524260.6324
      1854.6724
  -2933329.90746  -2281176.57942  23374565.6514   23374563.9914
      2920.6724
  -3345714.28848  -2602973.65943  23365834.6204   23365833.4564
      4393.7664
 04  9 14 21 27 59.9990000  0  8G 3G 8G13G19G23G27G10G28
  -1707096.46448  -1326257.46744  22660801.0264   22660801.1284
       439.0944
  -5848900.53849  -4541673.73147  21196764.2924   21196762.7184
      3058.4534
   -482127.89049   -377296.61948  20099418.0264   20099415.1714
      -116.6254
  -5660288.72648  -4394373.82345  22501935.6444   22501933.9804
      2752.9694
   3472115.33848   2688801.54345  22511383.1124   22511379.8584
     -2040.5784
  -3566756.28049  -2772474.47947  20518970.9564   20518968.8824
      1853.1724
  -2977085.49646  -2315271.87743  23366239.6514   23366237.9334
      2913.4384
  -3411607.67448  -2654319.13543  23353295.8394   23353294.8084
      4392.0314
 04  9 14 21 28 14.9990000  0  8G 3G 8G13G19G23G27G10G28
  -1713618.06148  -1331339.25644  22659561.2304   22659560.2064
       430.2664
  -5894759.64949  -4577408.09947  21188037.4094   21188035.8514
      3055.8914
   -480325.82349   -375892.42648  20099760.7614   20099758.1984
      -123.8754
  -5701534.79348  -4426513.60545  22494087.1754   22494084.7654
      2746.2814
   3502750.76248   2712673.25445  22517213.0264   22517210.1674
     -2044.2664
  -3594539.52249  -2794123.76047  20513683.7534   20513681.4954
      1851.0634
  -3020730.55246  -2349280.97943  23357934.0264   23357932.7764
      2905.6564
  -3477471.07947  -2705641.21743  23340762.1284   23340761.2804
      4389.5314
 04  9 14 21 28 29.9990000  0  8G 3G 8G13G19G23G27G10G28
  -1720019.62648  -1336327.48044  22658342.4014   22658341.7334
       422.7974
  -5940593.76249  -4613122.96947  21179315.5264   21179313.8664
      3054.7814
   -478427.76149   -374413.42348  20100121.6904   20100119.3514
      -129.6874
  -5742694.43048  -4458586.03945  22486254.8474   22486252.6594
      2741.0944
   3533427.27148   2736576.98045  22523050.0194   22523047.2574
     -2046.4534
  -3622302.94749  -2815757.59547  20508400.2844   20508398.4404
      1850.2504
  -3064270.65646  -2383208.31842  23349648.3004   23349646.8554
      2899.2194
  -3543310.03148  -2756944.26543  23328233.3004   23328232.0424
      4388.4224
 04  9 14 21 28 44.9990000  0  8G 3G 8G13G19G23G27G10G28
  -1726299.30948  -1341220.75044  22657147.5114   22657146.6474
       414.0474
  -5986400.71149  -4648816.68547  21170598.3314   21170597.3784
      3052.3134
   -476431.63549   -372858.01648  20100501.6204   20100499.0384
      -136.9224
  -5783765.33049  -4490589.33045  22478439.1444   22478437.3554
      2734.4534
   3564146.67548   2760514.13145  22528896.2454   22528893.4334
     -2050.0164
  -3650044.58149  -2837374.45447  20503121.5344   20503120.0624
      1848.0944
  -3107703.63446  -2417052.21242  23341383.2844   23341381.6554
      2891.4694
  -3609122.46148  -2808226.64043  23315709.7924   23315708.7764
      4386.0164
 04  9 14 21 28 59.9990000  0  8G 3G 8G13G19G23G27G10G28
  -1732456.10048  -1346018.25644  22655975.3704   22655975.3944
       406.4844
  -6032179.35149  -4684488.34647  21161887.1984   21161886.3474
      3051.0784
   -474336.41249   -371225.38648  20100900.3944   20100897.4684
      -142.8284
  -5824746.10848  -4522522.39645  22470640.6674   22470638.5264
      2729.1094
   3594909.87448   2784485.41445  22534749.9874   22534747.4054
     -2052.1874
  -3677763.14549  -2858973.32847  20497846.7374   20497845.0114
      1847.2664
  -3151028.13946  -2450811.55443  23333138.1984   23333138.0074
      2884.7814
  -3674906.98048  -2859487.27843  23303191.6444   23303190.2224
      4384.8134
 04  9 14 21 29 14.9990000  0  8G 3G 8G13G19G23G27G10G28
  -1738488.84548  -1350719.11644  22654827.7144   22654827.4134
       398.0474
  -6077928.48149  -4720137.02647  21153181.7304   21153180.2844
      3048.9224
   -472140.99949   -369514.70148  20101318.0504   20101316.0074
      -149.7344
  -5865635.35148  -4554384.14145  22462859.4564   22462857.1514
      2722.9064
   3625717.95748   2808491.67844  22540612.5194   22540609.3234
     -2055.4224
  -3705457.61349  -2880553.45047  20492577.0344   20492574.9254
      1845.4694
  -3194242.93146  -2484485.42843  23324915.5654   23324914.9524
      2877.2504
  -3740662.29548  -2910725.16343  23290678.8944   23290677.1244
      4382.6564
 04  9 14 21 29 29.9990000  0  8G 3G 8G13G19G23G27G10G28
  -1744399.73448  -1355325.00844  22653702.7144   22653702.4444
       390.0944
  -6123650.13349  -4755764.26647  21144481.0264   21144479.7104
      3047.3754
   -469847.47449   -367727.54348  20101754.5654   20101752.0974
      -156.0004
  -5906434.81348  -4586175.92345  22455095.7614   22455093.8624
      2717.0784
   3656568.58948   2832531.06645  22546483.6514   22546480.7144
     -2057.9224
  -3733130.04149  -2902116.37447  20487311.2224   20487309.0264
      1844.2034
  -3237349.90246  -2518075.27143  23316712.2144   23316712.0734
      2870.3914
  -3806390.31948  -2961941.75543  23278171.4644   23278169.4724
      4381.0474
 04  9 14 21 29 44.9990000  0  8G 3G 8G13G19G23G27G10G28
  -1750192.56548  -1359838.89144  22652600.2764   22652599.4604
       382.4064
  -6169348.17749  -4791373.12747  21135784.9564   21135783.4174
      3045.8284
   -467459.64549   -365866.90148  20102208.8314   20102206.2764
      -162.1724
  -5947148.10848  -4617900.55745  22447348.3474   22447345.5694
      2711.4694
   3687457.72448   2856600.48245  22552361.7454   22552358.4524
     -2060.3914
  -3760784.16849  -2923665.02747  20482048.3784   20482046.3584
      1843.0784
  -3280352.41946  -2551583.75143  23308529.3704   23308528.5894
      2863.4534
  -3872094.62948  -3013139.86743  23265667.8004   23265666.3354
      4379.6094
 04  9 14 21 29 59.9980000  0  8G 3G 8G13G19G23G27G10G28
  -1755861.60348  -1364256.34244  22651522.3034   22651520.9004
       373.6414
  -6215014.10849  -4826956.96847  21127094.8654   21127093.2754
      3043.3914
   -464972.33549   -363928.76248  20102682.4284   20102680.0884
      -169.3754
  -5987766.81048  -4649551.48345  22439618.6474   22439615.7684
      2704.7504
   3718388.43248   2880702.28444  22558247.6314   22558243.9284
     -2063.9374
  -3788412.84549  -2945193.88647  20476790.6624   20476789.1004
      1840.9844
  -3323242.26346  -2585004.37343  23300367.7094   23300366.6544
      2855.5474
  -3937765.35048  -3064311.84644  23253171.5924   23253169.8144
      4377.0784
 04  9 14 21 30 14.9980000  0  8G 3G 8G13G19G23G27G10G28
  -1761407.38648  -1368577.74344  22650467.1394   22650466.3774
       365.9694
  -6260653.86349  -4862520.41147  21118409.7874   21118408.5184
      3041.9844
   -462384.79149   -361912.51148  20103174.8814   20103172.4084
      -175.5474
  -6028295.67148  -4681132.41345  22431905.9284   22431902.7684
      2699.1094
   3749365.09548   2904839.88644  22564142.0844   22564139.3114
     -2066.2664
  -3816019.25549  -2966705.36947  20471537.6544   20471535.6314
      1839.9224
  -3366024.58946  -2618341.22643  23292225.8114   23292226.0884
      2848.7344
  -4003410.61848  -3115463.95043  23240678.9364   23240678.2254
      4375.6414
 04  9 14 21 30 29.9980000  0  8G 3G 8G13G19G23G27G10G28
  -1766833.12248  -1372805.58944  22649434.1314   22649433.6584
       357.7974
  -6306267.42249  -4898063.43047  21109729.9904   21109728.3734
      3040.0634
   -459700.80249   -359821.10747  20103685.4514   20103683.3974
      -182.2194
  -6068735.22548  -4712643.73245  22424210.6394   22424207.2754
      2692.9844
   3780381.98148   2929008.86044  22570044.8184   22570041.6234
     -2069.2034
  -3843605.05048  -2988200.80147  20466288.0534   20466286.1234
      1838.2974
  -3408699.76146  -2651594.62543  23284105.5144   23284105.0414
      2841.5314
  -4069029.24848  -3166595.32443  23228192.0614   23228190.9824
      4373.6884
 04  9 14 21 30 44.9980000  0  8G 3G 8G13G19G23G27G10G28
  -1772136.46348  -1376938.06344  22648424.5454   22648424.6704
       349.4844
  -6351852.87049  -4933584.56147  21101055.2324   21101054.0184
      3038.0784
   -456918.05049   -357652.74747  20104215.4284   20104212.6824
      -188.8124
  -6109082.78148  -4744083.38445  22416533.3264   22416529.5884
      2686.6884
   3811441.18548   2953210.78344  22575954.8034   22575952.3344
     -2071.9844
  -3871167.94348  -3009678.37247  20461043.0294   20461041.3934
      1836.7814
  -3451265.22146  -2684762.51443  23276005.9434   23276005.2794
      2834.0474
  -4134618.80648  -3217704.04243  23215710.8574   23215709.8614
      4371.7344
 04  9 14 21 30 59.9980000  0  8G 3G 8G13G19G23G27G10G28
  -1777320.88348  -1380977.88644  22647438.2794   22647437.9594
       341.3134
  -6397413.30949  -4969086.19047  21092385.5764   21092383.8894
      3036.1254
   -454039.87549   -355410.01848  20104762.6864   20104760.4164
      -195.4374
  -6149341.58348  -4775453.86245  22408872.1704   22408868.5884
      2680.5634
   3842539.20148   2977442.95544  22581872.3424   22581870.2404
     -2074.9374
  -3898711.27949  -3031140.71547  20455801.6004   20455799.9794
      1835.2034
  -3493724.26646  -2717847.46943  23267925.9754   23267925.0574
      2826.7504
  -4200182.46747  -3268792.54943  23203233.7954   23203233.5764
      4369.5944
 04  9 14 21 31 14.9980000  0  8G 3G 8G13G19G23G27G10G28
  -1782388.27048  -1384926.50844  22646473.7874   22646473.8544
       333.8914
  -6442950.43349  -5004569.66547  21083719.9674   21083717.9714
      3034.9694
   -451068.38049   -353094.58548  20105328.0224   20105325.4434
      -201.2194
  -6189513.22148  -4806756.43845  22401227.6784   22401224.0924
      2675.1724
   3873673.84648   3001703.65344  22587797.2564   22587794.8894
     -2076.9064
  -3926236.87248  -3052589.22947  20450564.3894   20450561.9904
      1834.3134
  -3536078.56146  -2750850.81843  23259866.5684   23259865.3344
      2820.0634
  -4265722.03248  -3319862.31043  23190762.8264   23190761.4244
      4368.4844
 04  9 14 21 31 29.9980000  0  8G 3G 8G13G19G23G27G10G28
  -1787336.47248  -1388782.25644  22645532.5454   22645532.1584
       325.9844
  -6488461.96449  -5040033.17647  21075059.0224   21075057.9164
      3033.3134
   -448001.06149   -350704.47748  20105912.1784   20105909.5924
      -207.6094
  -6229594.96248  -4837988.95345  22393600.1004   22393596.8074
      2669.1724
   3904847.33548   3025994.63844  22593730.1784   22593726.8144
     -2079.4694
  -3953742.36749  -3074022.08347  20445329.5294   20445327.4594
      1833.0784
  -3578325.54246  -2783770.54043  23251826.4674   23251826.1544
      2812.8754
  -4331234.89448  -3370911.26443  23178296.0684   23178294.3034
      4366.7194
 04  9 14 21 31 44.9980000  0  8G 3G 8G13G19G23G27G10G28
  -1792169.92548  -1392548.60744  22644612.4044   22644612.5414
       318.2814
  -6533952.28649  -5075480.17947  21066403.0684   21066401.7014
      3031.8914
   -444842.44349   -348243.22448  20106513.0684   20106510.3544
      -213.7504
  -6269591.09848  -4869154.75445  22385989.3654   22385985.5534
      2663.5314
   3936055.06848   3050312.30844  22599667.7254   22599665.3424
     -2081.7344
  -3981232.31249  -3095442.81847  20440098.6474   20440096.3114
      1832.0944
  -3620469.49846  -2816609.97943  23243806.8034   23243806.4904
      2806.1414
  -4396725.18247  -3421942.61443  23165832.8894   23165831.9394
      4365.2344
 04  9 14 21 31 59.9980000  0  8G 3G 8G13G19G23G27G10G28
  -1796884.60248  -1396222.36144  22643715.0064   22643714.7914
       310.4844
  -6579417.29749  -5110907.45047  21057751.5224   21057749.9944
      3030.1724
   -441588.43349   -345707.66347  20107132.3734   20107129.9364
      -219.9534
  -6309497.15548  -4900250.37645  22378395.5764   22378392.4944
      2657.5004
   3967300.98548   3074659.72645  22605614.3574   22605611.2404
     -2084.2194
  -4008702.35149  -3116848.04747  20434871.1234   20434869.4084
      1830.7504
  -3662505.98846  -2849365.69443  23235807.0684   23235807.4674
      2799.0164
  -4462188.56547  -3472953.00143  23153375.6074   23153374.5764
      4363.3444
 04  9 14 21 32 14.9980000  0  8G 3G 8G13G19G23G27G10G28
  -1801482.41848  -1399805.08444  22642840.2484   22642839.9084
       302.8444
  -6624858.90449  -5146316.49347  21049104.2794   21049102.7874
      3028.8754
   -438241.10249   -343099.36147  20107769.2724   20107766.6434
      -226.0944
  -6349314.80648  -4931277.10245  22370818.1544   22370815.3574
      2651.8284
   3998582.92148   3099035.20344  22611566.7874   22611564.2834
     -2086.3594
  -4036154.51148  -3138239.33547  20429647.1394   20429645.2254
      1829.8134
  -3704436.84246  -2882039.07343  23227828.4284   23227827.3344
      2792.1724
  -4527626.99047  -3523943.94943  23140922.6234   23140922.1664
      4361.9694
 04  9 14 21 32 29.9980000  0  8G 3G 8G13G19G23G27G10G28
  -1805964.76548  -1403297.82444  22641987.6704   22641987.4634
       294.8594
  -6670278.42049  -5181708.31547  21040461.1234   21040459.2834
      3027.1724
   -434801.61149   -340419.25247  20108423.9984   20108421.2484
      -232.4844
  -6389044.91448  -4962235.61845  22363257.9754   22363255.1624
      2645.6884
   4029899.41448   3123437.60844  22617526.2404   22617523.7834
     -2089.0624
  -4063590.01049  -3159617.65747  20424426.4044   20424424.4904
      1828.3594
  -3746262.96347  -2914630.83643  23219870.1624   23219868.6074
      2784.7814
  -4593041.46148  -3574916.21643  23128475.3734   23128474.4474
      4360.0314
 04  9 14 21 32 44.9980000  0  8G 3G 8G13G19G23G27G10G28
  -1810330.85148  -1406699.98344  22641156.6704   22641156.2994
       287.0474
  -6715674.76449  -5217082.07647  21031822.2014   21031820.6704
      3025.5314
   -431269.04149   -337666.60347  20109096.1314   20109093.3424
      -238.7664
  -6428686.46348  -4993125.11945  22355714.6154   22355711.8814
      2639.7194
   4061251.09048   3147867.45044  22623492.6934   22623490.0724
     -2091.4374
  -4091007.95249  -3180982.27847  20419208.8814   20419207.2444
      1827.1254
  -3787983.56246  -2947140.40343  23211930.3974   23211929.2404
      2777.7814
  -4658430.99448  -3625869.05743  23116032.6154   23116031.0614
      4358.3444
 04  9 14 21 32 59.9980000  0  8G 3G 8G13G19G23G27G10G28
  -1814583.27248  -1410013.55743  22640347.1934   22640346.8974
       279.9064
  -6761050.48949  -5252439.78847  21023187.5294   21023186.0844
      3024.5004
   -427646.12649   -334843.57947  20109785.5534   20109782.8184
      -244.4374
  -6468241.70148  -5023947.38745  22348187.4904   22348184.8734
      2634.2664
   4092635.34348   3172322.65444  22629464.9984   22629461.8184
     -2093.2664
  -4118410.91449  -3202335.24647  20413994.6624   20413992.3774
      1826.4844
  -3829600.89646  -2979569.48543  23204010.2564   23204010.6154
      2771.1564
  -4723797.78648  -3676804.20643  23103593.9674   23103592.2404
      4357.1884
 04  9 14 21 33 14.9980000  0  8G 3G 8G13G19G23G27G10G28
  -1818721.69048  -1413238.32644  22639559.3114   22639559.2324
       271.6094
  -6806405.11449  -5287781.05047  21014556.8734   21014555.4514
      3022.5164
   -423932.38949   -331949.77648  20110491.9204   20110489.9794
      -251.0004
  -6507709.89048  -5054701.80545  22340676.5844   22340674.7724
      2627.9064
   4124052.45948   3196803.48444  22635443.3734   22635440.4794
     -2095.9844
  -4145798.38149  -3223676.13747  20408782.6624   20408780.5104
      1824.8914
  -3871114.31646  -3011917.61843  23196110.5764   23196110.3504
      2763.7504
  -4789141.28948  -3727721.18243  23091159.2404   23091157.8424
      4355.0314
 04  9 14 21 33 29.9980000  0  8G 3G 8G13G19G23G27G10G28
  -1822743.59948  -1416372.26744  22638794.5764   22638793.7684
       264.5784
  -6851736.01249  -5323103.81747  21005930.5294   21005928.7324
      3021.6094
   -420125.36949   -328983.27947  20111216.8974   20111214.3814
      -256.6094
  -6547088.37148  -5085386.32545  22333183.3974   22333180.9594
      2622.5634
   4155504.57548   3221311.56344  22641428.7254   22641425.8814
     -2097.6094
  -4173167.71449  -3245002.88147  20403574.4204   20403572.6584
      1824.3754
  -3912521.05946  -3044182.62043  23188230.7874   23188231.3774
      2757.2034
  -4854458.71248  -3778617.85543  23078729.5064   23078728.6974
      4354.0004
 04  9 14 21 33 44.9980000  0  8G 3G 8G13G19G23G27G10G28
  -1826657.77548  -1419422.28644  22638049.6624   22638049.0254
       257.2974
  -6897052.01549  -5358414.97647  20997307.3504   20997305.9674
      3020.4384
   -416233.91649   -325951.00347  20111957.0294   20111954.7834
      -262.2504
  -6586385.46948  -5116007.43045  22325705.6474   22325703.0924
      2616.9694
   4186982.84448   3245840.03944  22647418.9284   22647416.1474
     -2099.5164
  -4200527.80049  -3266322.42547  20398368.0144   20398366.2604
      1823.6414
  -3953829.84745  -3076371.25643  23180369.6314   23180370.2684
      2750.6564
  -4919758.63648  -3829500.87943  23066302.5454   23066301.8854
      4352.7664
 04  9 14 21 33 59.9980000  0  8G 3G 8G13G19G23G27G10G28
  -1830458.14948  -1422383.64144  22637326.9044   22637326.5144
       249.4844
  -6942347.00049  -5393709.76347  20988688.1784   20988686.8504
      3018.9064
   -412251.83349   -322848.10247  20112714.9594   20112712.1114
      -268.5314
  -6625594.75848  -5146560.11745  22318244.1234   22318242.0684
      2610.9844
   4218493.24748   3270393.53744  22653414.6474   22653411.8504
     -2101.7504
  -4227872.37549  -3287629.89547  20393164.5684   20393162.2364
      1822.3914
  -3995034.13846  -3108478.52243  23172529.9754   23172528.8034
      2743.4224
  -4985034.71448  -3880365.31343  23053881.9674   23053880.8114
      4350.8754
 04  9 14 21 34 14.9980000  0  8G 3G 8G13G19G23G27G10G28
  -1834147.97548  -1425258.85544  22636624.0144   22636624.0924
       242.0314
  -6987623.86549  -5428990.44047  20980072.0764   20980070.2294
      3017.5784
   -408182.24449   -319677.01147  20113489.3734   20113486.9944
      -274.4534
  -6664719.13248  -5177046.64045  22310799.3654   22310796.6584
      2605.2034
   4250032.58348   3294969.60544  22659416.6394   22659413.5684
     -2103.8284
  -4255204.37649  -3308927.57047  20387963.7794   20387961.6074
      1821.4534
  -4036136.84646  -3140506.62042  23164707.6004   23164706.7294
      2736.5634
  -5050289.81948  -3931213.42343  23041464.5764   23041462.4864
      4349.3134
 04  9 14 21 34 29.9980000  0  8G 3G 8G13G19G23G27G10G28
  -1837719.92048  -1428042.18943  22635944.7014   22635944.5534
       233.9384
  -7032875.19449  -5464251.20747  20971461.0764   20971459.6584
      3015.5944
   -404017.78349   -316431.99247  20114281.9674   20114279.6154
      -281.0784
  -6703750.86848  -5207460.95745  22303371.6544   22303369.0534
      2598.7194
   4281608.08148   3319573.85144  22665425.5924   22665422.5064
     -2106.5624
  -4282516.41849  -3330209.67047  20382766.3814   20382764.4904
      1819.8134
  -4077130.40746  -3172449.62042  23156906.7484   23156905.9004
      2728.9224
  -5115516.31448  -3982039.22744  23029051.8114   23029050.2054
      4347.1564
 04  9 14 21 34 44.9980000  0  8G 3G 8G13G19G23G27G10G28
  -1841174.61248  -1430734.17443  22635287.3114   22635286.8184
       226.4224
  -7078101.41249  -5499492.42047  20962854.9364   20962852.9634
      3014.2504
   -399759.09049   -313113.54347  20115092.4434   20115089.4364
      -287.0474
  -6742690.23948  -5237803.30745  22295960.8734   22295958.5454
      2592.9844
   4313218.87048   3344205.56744  22671441.6234   22671437.8424
     -2108.4694
  -4309809.16849  -3351476.75947  20377572.7794   20377570.3854
      1818.8754
  -4118015.16746  -3204307.85743  23149127.1934   23149126.8614
      2722.0634
  -5180714.66648  -4032843.10743  23016644.7094   23016643.2364
      4345.6094
 04  9 14 21 34 59.9980000  0  8G 3G 8G13G19G23G27G10G28
  -1844512.50748  -1433335.12444  22634652.0924   22634651.9084
       219.0944
  -7123302.75849  -5534714.23547  20954253.1004   20954251.7134
      3013.0784
   -395406.41849   -309721.86848  20115920.4824   20115918.0294
      -292.8444
  -6781537.26448  -5268073.69545  22288569.1314   22288565.6934
      2587.1884
   4344864.46948   3368864.44544  22677462.7794   22677459.7134
     -2110.3914
  -4337082.84349  -3372728.96947  20372382.4594   20372380.5924
      1818.0784
  -4158791.29347  -3236081.47943  23141368.3574   23141367.1624
      2715.2664
  -5245885.05348  -4083625.20343  23004243.6234   23004241.6894
      4344.2034
 04  9 14 21 35 14.9980000  0  8G 3G 8G13G19G23G27G10G28
  -1847737.43348  -1435848.07644  22634038.2724   22634038.1704
       210.9224
  -7168483.14749  -5569919.72747  20945655.3264   20945654.4164
      3011.0634
   -390963.79849   -306260.09848  20116766.1704   20116763.9204
      -299.5164
  -6820295.50748  -5298274.92145  22281193.0924   22281190.0184
      2580.6094
   4376540.82148   3393547.24344  22683491.3574   22683487.8034
     -2113.0624
  -4364341.22449  -3393969.26647  20367195.7174   20367193.6394
      1816.3914
  -4199462.48446  -3267773.35242  23133628.3654   23133626.8304
      2707.5784
  -5311031.11648  -4134388.32543  22991846.3894   22991844.6274
      4341.9534
 04  9 14 21 35 29.9980000  0  8G 3G 8G13G19G23G27G10G28
  -1850846.76948  -1438270.93744  22633446.5064   22633446.4364
       203.2034
  -7213639.79249  -5605106.71547  20937062.8814   20937061.5414
      3009.3754
   -386428.51549   -302726.12948  20117628.6624   20117626.6894
      -305.7344
  -6858962.05148  -5328404.67145  22273835.3574   22273832.5684
      2574.4224
   4408250.45747   3418255.99644  22689524.7014   22689521.7404
     -2115.4064
  -4391581.51449  -3415195.46847  20362011.8814   20362009.7834
      1815.1564
  -4240025.80546  -3299381.10043  23125909.2484   23125908.2254
      2700.2504
  -5376149.76948  -4185130.11143  22979454.7174   22979453.1474
      4340.0164
 04  9 14 21 35 44.9980000  0  8G 3G 8G13G19G23G27G10G28
  -1853841.01948  -1440604.12944  22632877.0764   22632877.0374
       196.3284
  -7258773.16449  -5640275.57247  20928474.1004   20928472.3614
      3008.5944
   -381800.88349   -299120.19847  20118509.8734   20118507.3574
      -311.0944
  -6897537.01748  -5358463.05945  22266494.5144   22266491.8734
      2569.0944
   4439992.73948   3442990.19844  22695565.4754   22695562.5294
     -2116.7194
  -4418804.20049  -3436407.95547  20356831.3814   20356829.3854
      1814.7504
  -4280481.55547  -3330905.04643  23118211.1474   23118210.3144
      2693.9534
  -5441241.31648  -4235850.74443  22967068.5924   22967066.4864
      4339.0634
 04  9 14 21 35 59.9980000  0  8G 3G 8G13G19G23G27G10G28
  -1856723.16148  -1442849.98244  22632328.8264   22632329.0534
       188.0004
  -7303886.08049  -5675428.49647  20919889.6154   20919887.9044
      3006.4534
   -377083.91949   -295444.66247  20119407.2324   20119404.3974
      -317.7504
  -6936023.09248  -5388452.20545  22259171.2794   22259168.4044
      2562.4694
   4471764.73447   3467747.53044  22701611.1234   22701608.7564
     -2119.5164
  -4446012.01149  -3457608.85547  20351653.9364   20351651.5884
      1813.0004
  -4320832.35246  -3362347.23543  23110532.8264   23110530.3694
      2686.2814
  -5506308.40748  -4286552.36043  22954686.5924   22954684.2324
      4336.5784
 04  9 14 21 36 14.9980000  0  8G 3G 8G13G19G23G27G10G28
  -1859490.07048  -1445006.02644  22631802.3654   22631802.5924
       180.8914
  -7348975.00349  -5710562.70247  20911308.9674   20911307.7364
      3005.4384
   -372274.61949   -291697.17447  20120322.6474   20120320.0964
      -323.4374
  -6974416.75448  -5418369.32745  22251864.7094   22251862.6354
      2556.7974
   4503569.36848   3492530.31844  22707663.2644   22707661.0494
     -2121.0784
  -4473201.74249  -3478795.65547  20346480.1154   20346478.0104
      1812.3594
  -4361074.93446  -3393705.08342  23102874.0064   23102872.7954
      2679.5944
  -5571347.79348  -4337232.34943  22942309.6624   22942308.4044
      4335.2504
 04  9 14 21 36 29.9980000  0  8G 3G 8G13G19G23G27G10G28
  -1862142.98448  -1447073.24144  22631297.6004   22631297.5104
       173.3444
  -7394041.17949  -5745679.19647  20902733.2324   20902732.1584
      3003.8284
   -367373.95349   -287878.48847  20121255.1394   20121252.7254
      -329.5624
  -7012718.80448  -5448215.06345  22244576.4124   22244574.0804
      2550.6414
   4535405.45548   3517337.60344  22713721.4364   22713719.2214
     -2123.2034
  -4500374.59249  -3499969.30847  20341309.0764   20341307.1044
      1811.2034
  -4401210.08946  -3424979.18143  23095237.1704   23095235.9394
      2672.4694
  -5636360.33148  -4387891.44343  22929937.8894   22929936.5334
      4333.4844
 04  9 14 21 36 44.9980000  0  8G 3G 8G13G19G23G27G10G28
  -1864682.20048  -1449051.85844  22630813.9514   22630814.0414
       165.3284
  -7439085.08549  -5780778.34147  20894161.8504   20894160.1194
      3002.0164
   -362382.16449   -283988.78747  20122205.0844   20122202.4474
      -335.9534
  -7050929.23548  -5477989.40745  22237305.3114   22237302.9634
      2544.1724
   4567272.32048   3542168.86844  22719785.8034   22719782.9634
     -2125.6094
  -4527530.68749  -3521129.88947  20336141.4284   20336139.6664
      1809.6884
  -4441238.00446  -3456169.78943  23087620.8184   23087619.6074
      2664.8444
  -5701346.02048  -4438529.61943  22917571.6704   22917570.2174
      4331.3284
 04  9 14 21 36 59.9980000  0  8G 3G 8G13G19G23G27G10G28
  -1867106.07248  -1450940.61243  22630352.9984   22630352.0454
       157.8914
  -7484104.44649  -5815858.35747  20885594.9124   20885593.3224
      3000.5784
   -357297.53749   -280026.75847  20123172.5764   20123169.6824
      -341.9374
  -7089045.92948  -5507690.71245  22230051.6394   22230049.5804
      2538.1564
   4599171.72348   3567025.50844  22725856.3814   22725853.6194
     -2127.5624
  -4554668.09249  -3542275.92247  20330977.3184   20330975.4364
      1808.6884
  -4481156.65046  -3487275.22643  23080023.5684   23080023.0064
      2657.7814
  -5766302.84948  -4489145.28344  22905210.9824   22905209.3544
      4329.6414
 04  9 14 21 37 14.9980000  0  8G 3G 8G13G19G23G27G10G28
  -1869418.06048  -1452742.18044  22629913.4904   22629912.5494
       150.3754
  -7529102.64149  -5850921.88947  20877032.1474   20877030.2644
      2999.1564
   -352123.52849   -275995.08047  20124157.4204   20124154.8034
      -347.9224
  -7127072.11048  -5537321.50045  22222815.9434   22222813.3034
      2531.9384
   4631100.06148   3591904.66544  22731931.6314   22731929.1394
     -2129.5624
  -4581790.24549  -3563410.08547  20325816.2484   20325814.5414
      1807.5634
  -4520969.35946  -3518298.09642  23072446.7794   23072445.8974
      2650.6254
  -5831234.06248  -4539741.02943  22892854.9434   22892853.5184
      4327.8444
 04  9 14 21 37 29.9980000  0  8G 3G 8G13G19G23G27G10G28
  -1871617.69548  -1454456.17544  22629494.4044   22629493.6234
       142.6724
  -7574079.34349  -5885968.65447  20868473.2564   20868471.8654
      2997.5314
   -346859.77149   -271893.46347  20125159.1074   20125156.1314
      -354.1414
  -7165006.97648  -5566881.11145  22215597.3974   22215594.6704
      2525.7194
   4663057.61648   3616806.60044  22738014.0924   22738011.1114
     -2131.6724
  -4608896.75149  -3584532.03647  20320658.1864   20320656.7484
      1806.3594
  -4560675.32946  -3549237.84443  23064891.6624   23064890.2954
      2643.3284
  -5896138.98148  -4590316.23843  22880504.1004   22880502.6004
      4325.9224
 04  9 14 21 37 44.9980000  0  8G 3G 8G13G19G23G27G10G28
  -1873701.32448  -1456079.78944  22629097.5224   22629097.5064
       135.0474
  -7619030.74249  -5920995.71147  20859919.3184   20859917.4944
      2995.9224
   -341502.59749   -267719.05647  20126178.4594   20126175.7604
      -360.2194
  -7202846.60848  -5596366.52345  22208396.4594   22208393.9434
      2519.4694
   4695047.96248   3641734.07944  22744100.7484   22744098.6194
     -2133.7814
  -4635983.64749  -3605638.71247  20315503.7874   20315501.7214
      1805.1884
  -4600270.68746  -3580091.33943  23057356.1074   23057356.0184
      2636.0944
  -5961013.72848  -4640867.98044  22868159.2014   22868157.1354
      4324.0164
 04  9 14 21 37 59.9980000  0  8G 3G 8G13G19G23G27G10G28
  -1875675.91948  -1457618.44444  22628721.7404   22628721.7484
       128.1884
  -7663963.56749  -5956008.29847  20851368.4904   20851366.9364
      2995.0164
   -336058.73849   -263477.11047  20127214.1704   20127211.2444
      -365.7194
  -7240597.56448  -5625782.83545  22201213.1394   22201209.5764
      2513.8754
   4727064.00648   3666681.60344  22750193.0534   22750191.1234
     -2135.1724
  -4663057.83749  -3626735.48247  20310351.4904   20310349.7644
      1804.6414
  -4639762.06946  -3610863.84643  23049842.2014   23049840.8974
      2629.4224
  -6025864.93148  -4691401.33744  22855817.9364   22855816.1394
      4322.7664
 04  9 14 21 38 14.9980000  0  8G 3G 8G13G19G23G27G10G28
  -1877534.56248  -1459066.74544  22628368.3734   22628368.3144
       119.9844
  -7708870.71249  -5991000.87047  20842823.5224   20842822.2954
      2992.9064
   -330521.13549   -259162.10847  20128267.9514   20128265.2644
      -372.2814
  -7278252.55349  -5655124.37045  22194047.5844   22194044.1624
      2507.0634
   4759112.62548   3691654.49144  22756292.2174   22756289.8694
     -2137.7194
  -4690112.18449  -3647816.78647  20305203.3264   20305201.1474
      1802.9534
  -4679142.28146  -3641549.73143  23042348.5064   23042347.9674
      2621.6254
  -6090685.32948  -4741910.71044  22843482.5374   22843481.2404
      4320.3134
 04  9 14 21 38 29.9980000  0  8G 3G 8G13G19G23G27G10G28
  -1879279.13848  -1460426.18344  22628036.8504   22628036.6894
       112.3754
  -7753753.91149  -6025974.78447  20834282.1234   20834280.8184
      2991.3444
   -324891.88849   -254775.70247  20129339.1474   20129336.5684
      -378.4534
  -7315813.10648  -5684392.32045  22186900.1784   22186896.3894
      2500.8134
   4791191.82948   3716651.21944  22762396.5844   22762394.1044
     -2139.7814
  -4717148.49449  -3668884.05247  20300058.5454   20300056.6044
      1801.6884
  -4718413.06046  -3672150.29743  23034874.5454   23034874.6934
      2614.1724
  -6155476.47948  -4792397.30444  22831153.5374   22831152.2794
      4318.3444
 04  9 14 21 38 44.9980000  0  8G 3G 8G13G19G23G27G10G28
  -1880908.01848  -1461695.44344  22627726.4124   22627726.4794
       105.2504
  -7798611.43249  -6060928.68247  20825746.0374   20825744.8224
      2990.1414
   -319169.23649   -250316.50047  20130428.5374   20130425.7444
      -384.1414
  -7353277.22049  -5713585.11545  22179770.5844   22179766.8224
      2494.8914
   4823303.06247   3741672.89344  22768506.9674   22768504.2094
     -2141.3754
  -4744164.99949  -3689935.88047  20294917.6314   20294915.5224
      1800.9064
  -4757572.50546  -3702664.15943  23027423.1544   23027422.9944
      2607.4224
  -6220236.67148  -4842859.74544  22818830.1784   22818828.8614
      4316.8284
 04  9 14 21 38 59.9980000  0  8G 3G 8G13G19G23G27G10G28
  -1882426.33148  -1462878.55544  22627437.7324   22627437.6354
        97.5634
  -7843448.32049  -6095866.52847  20817214.4824   20817212.5024
      2988.4844
   -313358.29049   -245788.51747  20131534.2794   20131531.5224
      -390.2664
  -7390649.64149  -5742706.47645  22172659.3974   22172655.0534
      2488.4844
   4855441.20747   3766715.55044  22774622.8574   22774620.4164
     -2143.3124
  -4771166.67949  -3710976.14947  20289779.5844   20289776.9794
      1799.6724
  -4796625.44346  -3733095.04843  23019992.6704   23019990.3384
      2600.0314
  -6284970.57248  -4893301.73344  22806511.1544   22806510.1074
      4314.7504
 04  9 14 21 39 14.9980000  0  8G 3G 8G13G19G23G27G10G28
  -1883829.80448  -1463972.18944  22627170.4824   22627170.7174
        89.9534
  -7888260.07649  -6130784.77547  20808686.4434   20808684.5644
      2986.7194
   -307454.78549   -241188.39747  20132657.6934   20132654.9554
      -396.4694
  -7427925.83249  -5771752.83445  22165565.6864   22165561.9864
      2481.9694
   4887610.42747   3791782.41044  22780745.1154   22780742.0644
     -2145.5164
  -4798149.16549  -3732001.46647  20284644.7724   20284642.4714
      1798.3134
  -4835567.38746  -3763439.41342  23012581.3814   23012579.6894
      2592.5784
  -6349673.56148  -4943719.61744  22794198.9904   22794197.7134
      4312.6094
 04  9 14 21 39 29.9980000  0  8G 3G 8G13G19G23G27G10G28
  -1885121.55748  -1464978.76244  22626924.5924   22626924.9044
        82.2814
  -7933049.70149  -6165685.77547  20800163.3504   20800161.8974
      2985.1564
   -301461.61349   -236518.41248  20133797.8734   20133795.0924
      -402.7034
  -7465108.44148  -5800726.26645  22158489.6704   22158486.5454
      2475.6094
   4919807.57147   3816871.04644  22786871.6234   22786869.0644
     -2147.5004
  -4825115.30949  -3753014.04747  20279513.3504   20279511.1974
      1797.0784
  -4874400.98846  -3793699.32443  23005191.9364   23005191.7524
      2585.0944
  -6414348.58148  -4994115.70044  22781891.3034   22781889.8144
      4310.6254
 04  9 14 21 39 44.9980000  0  8G 3G 8G13G19G23G27G10G28
  -1886294.86148  -1465893.04344  22626701.6784   22626701.4554
        73.9694
  -7977810.29649  -6200564.15247  20791645.8574   20791644.4474
      2982.7664
   -295372.32349   -231773.52247  20134956.7724   20134954.0764
      -409.5164
  -7502190.41648  -5829621.30645  22151433.6934   22151430.0614
      2468.3594
   4952039.26647   3841986.59044  22793005.0764   22793003.1154
     -2150.2814
  -4852058.24649  -3774008.54347  20274386.0294   20274383.8614
      1795.1094
  -4913119.45747  -3823869.56143  22997823.3734   22997823.3144
      2577.0944
  -6478988.56348  -5044484.48144  22769590.8974   22769588.9944
      4307.8444
 04  9 14 21 39 59.9980000  0  8G 3G 8G13G19G23G27G10G28
  -1887354.03848  -1466718.37444  22626499.9044   22626499.9044
        66.7034
  -8022545.76249  -6235422.95147  20783133.0374   20783131.5334
      2981.4064
   -289190.85549   -226956.80647  20136133.4124   20136130.2914
      -415.3284
  -7539175.78448  -5858441.04945  22144394.8734   22144391.8934
      2462.3284
   4984301.03947   3867125.58144  22799144.2954   22799141.6234
     -2151.9224
  -4878982.20749  -3794988.26147  20269262.7724   20269260.4944
      1794.2814
  -4951726.77346  -3853953.18542  22990476.5064   22990475.5414
      2570.0314
  -6543597.58748  -5094829.16044  22757296.5224   22757294.9044
      4306.1254
 04  9 14 21 40 14.9980000  0  8G 3G 8G13G19G23G27G10G28
  -1888297.82148  -1467453.79744  22626320.3894   22626320.2914
        58.8594
  -8067255.02149  -6270261.31847  20774624.9824   20774623.2404
      2979.5474
   -282915.71549   -222067.10847  20137327.2874   20137324.4244
      -421.6724
  -7576062.82048  -5887184.18245  22137375.5064   22137373.1664
      2455.5784
   5016594.02948   3892288.88944  22805290.3184   22805287.4944
     -2154.1724
  -4905885.78149  -3815952.08747  20264143.0534   20264141.2324
      1792.6564
  -4990221.40646  -3883948.99143  22983151.4984   22983151.0804
      2562.2814
  -6608174.06348  -5145148.45744  22745008.0924   22745006.9554
      4303.7504
 04  9 14 21 40 29.9980000  0  8G 3G 8G13G19G23G27G10G28
  -1889122.81548  -1468096.65844  22626163.2404   22626163.2954
        51.5004
  -8111934.39949  -6305076.42047  20766122.8974   20766121.1894
      2978.1094
   -276543.73449   -217101.94047  20138539.7484   20138537.4434
      -427.5624
  -7612847.71148  -5915847.72245  22130375.4754   22130373.0614
      2449.4384
   5048921.66547   3917479.18744  22811440.9284   22811439.0534
     -2155.8444
  -4932765.33749  -3836897.19447  20259027.9754   20259025.9634
      1791.6094
  -5028599.56446  -3913854.06543  22975848.9204   22975849.2054
      2555.0634
  -6672714.20048  -5195439.42044  22732726.3114   22732725.3424
      4301.9384
 04  9 14 21 40 44.9980000  0  8G 3G 8G13G19G23G27G10G28
  -1889827.66648  -1468645.91944  22626029.2404   22626029.1114
        42.9694
  -8156582.34149  -6339867.02047  20757626.6704   20757624.8384
      2975.4694
   -270073.54649   -212060.25547  20139771.1474   20139768.5684
      -434.6564
  -7649528.87248  -5944430.41545  22123395.2794   22123392.9824
      2441.9224
   5081285.11847   3942697.41944  22817599.9364   22817597.2404
     -2158.8594
  -4959619.57049  -3857822.57647  20253917.6394   20253915.6894
      1789.3594
  -5066859.79446  -3943667.23643  22968568.3034   22968567.6624
      2546.7034
  -6737216.49648  -5245700.92544  22720451.9514   22720450.7564
      4298.8754
 04  9 14 21 40 59.9980000  0  8G 3G 8G13G19G23G27G10G28
  -1890415.68448  -1469104.13144  22625917.3894   22625916.8184
        35.0004
  -8201202.02849  -6374635.59947  20749135.6704   20749134.3974
      2973.4224
   -263508.28849   -206944.47847  20141020.5374   20141018.0144
      -441.1874
  -7686109.23748  -5972934.58545  22116434.7874   22116431.7364
      2435.0314
   5113681.13948   3967941.01444  22823765.7564   22823762.4284
     -2161.1254
  -4986451.32649  -3878730.43747  20248811.8504   20248810.1934
      1787.6724
  -5105005.04546  -3973390.81143  22961309.4514   22961308.2834
      2538.8134
  -6801683.86348  -5295935.22444  22708184.2484   22708182.7994
      4296.3594
 04  9 14 21 41 14.9980000  0  8G 3G 8G13G19G23G27G10G28
  -1890886.99348  -1469471.39244  22625827.5614   22625827.5374
        26.7194
  -8245793.24449  -6409381.99747  20740650.3184   20740648.8304
      2971.0474
   -256848.11349   -201754.74647  20142287.9124   20142285.3074
      -447.9844
  -7722588.50848  -6001359.97645  22109492.5534   22109489.4164
      2427.8284
   5146109.49047   3993209.79544  22829936.2094   22829933.0684
     -2163.6874
  -5013260.64649  -3899620.82347  20243710.3184   20243707.7564
      1785.7664
  -5143035.11147  -4003024.63843  22954072.3974   22954071.6434
      2530.8284
  -6866116.12748  -5346142.15444  22695922.9434   22695921.8854
      4293.5634
 04  9 14 21 41 29.9980000  0  8G 3G 8G13G19G23G27G10G28
  -1891239.21747  -1469745.85644  22625760.7564   22625760.9324
        19.5784
  -8290353.55049  -6444104.30147  20732170.8034   20732169.3344
      2969.7974
   -250090.58249   -196489.16147  20143573.7094   20143571.1584
      -453.6564
  -7758964.03948  -6029704.53045  22102569.8114   22102567.7644
      2421.7194
   5178572.35347   4018505.48144  22836113.2644   22836110.9514
     -2165.2504
  -5040045.28149  -3920491.97047  20238613.1004   20238611.2684
      1784.9534
  -5180947.49546  -4032566.73043  22946857.0144   22946857.0724
      2523.5944
  -6930510.74748  -5396319.76144  22683669.1624   22683667.6194
      4291.8444
 04  9 14 21 41 44.9980000  0  8G 3G 8G13G19G23G27G10G28
  -1891475.81348  -1469930.22344  22625715.5534   22625715.7254
        12.0314
  -8334886.38849  -6478805.21047  20723696.5144   20723694.5414
      2967.9844
   -243239.07849   -191150.34547  20144877.4674   20144874.3694
      -459.8284
  -7795238.93148  -6057970.65045  22095668.0064   22095664.5804
      2415.0474
   5211066.14647   4043825.25844  22842296.5924   22842294.2684
     -2167.1564
  -5066808.24749  -3941346.23447  20233520.3034   20233518.4244
      1783.5784
  -5218745.35347  -4062019.62543  22939666.1624   22939664.3504
      2516.0474
  -6994870.80148  -5446470.41744  22671422.0144   22671420.7834
      4289.5314
 04  9 14 21 41 59.9980000  0  8G 3G 8G13G19G23G27G10G28
  -1891599.51947  -1470026.64344  22625691.8344   22625692.3694
         4.4064
  -8379394.23949  -6513486.65147  20715227.0144   20715224.9554
      2966.2504
   -236296.33549   -185740.41947  20146198.7174   20146196.1044
      -466.0164
  -7831415.60148  -6086160.24945  22088783.5764   22088780.6584
      2408.3914
   5243588.10847   4069166.98444  22848485.4824   22848483.2214
     -2169.1414
  -5093552.23449  -3962185.69847  20228431.1864   20228428.9044
      1782.2034
  -5256431.20646  -4091385.24543  22932493.5144   22932493.2174
      2508.5784
  -7059198.82448  -5496596.10644  22659180.1864   22659178.9594
      4287.4694
 04  9 14 21 42 14.9980000  0  8G 3G 8G13G19G23G27G10G28
  -1891605.11848  -1470031.02044  22625691.1544   22625690.9714
        -3.1724
  -8423871.55249  -6548144.29747  20706762.7564   20706761.6004
      2964.5004
   -229257.10249   -180255.32147  20147538.2174   20147535.7794
      -472.1724
  -7867488.38748  -6114268.90445  22081919.0224   22081915.7404
      2401.7194
   5276143.33848   4094534.64344  22854680.9984   22854677.9044
     -2171.0624
  -5120271.88149  -3983006.21047  20223347.0064   20223344.5024
      1780.8594
  -5293999.54046  -4120659.21843  22925344.4824   22925344.6664
      2500.9844
  -7123489.14148  -5546692.42844  22646946.4124   22646944.7404
      4285.1094
 04  9 14 21 42 29.9980000  0  8G 3G 8G13G19G23G27G10G28
  -1891495.25348  -1469945.41644  22625711.6394   22625711.9084
       -11.2194
  -8468320.99249  -6582780.21247  20698304.2794   20698303.2324
      2962.2974
   -222123.92449   -174697.01447  20148895.6074   20148892.8344
      -478.7194
  -7903459.65048  -6142298.44145  22075073.9364   22075070.3544
      2394.6254
   5308729.20747   4119926.15844  22860881.5454   22860878.6314
     -2173.3594
  -5146969.64849  -4003809.67047  20218266.3184   20218264.6354
      1779.0164
  -5331452.71246  -4149843.52043  22918217.8574   22918217.0374
      2493.0474
  -7187744.05248  -5596761.16744  22634719.5294   22634717.5684
      4282.3914
 04  9 14 21 42 44.9980000  0  8G 3G 8G13G19G23G27G10G28
  -1891269.80247  -1469769.75943  22625754.8344   22625754.7644
       -18.9224
  -8512742.27749  -6617394.18747  20689851.4594   20689849.7564
      2960.4534
   -214896.49349   -169065.26548  20150270.9204   20150268.3854
      -484.9374
  -7939328.85949  -6170248.44745  22068248.1394   22068245.2214
      2387.8444
   5341345.77448   4145341.60743  22867088.4434   22867085.4554
     -2175.4224
  -5173645.17849  -4024595.79447  20213190.4124   20213188.2094
      1777.6254
  -5368790.24346  -4178937.72343  22911112.1704   22911111.8384
      2485.2504
  -7251963.20648  -5646802.04944  22622498.8034   22622496.8114
      4280.0784
 04  9 14 21 42 59.9980000  0  8G 3G 8G13G19G23G27G10G28
  -1890924.68848  -1469500.86944  22625820.0374   22625820.3114
       -26.8754
  -8557131.02349  -6651982.82147  20681404.8184   20681403.2404
      2958.3134
   -207570.64849   -163356.82547  20151665.1784   20151662.6584
      -491.5164
  -7975091.54748  -6198115.45645  22061442.7564   22061439.6474
      2380.7814
   5373997.02747   4170784.08943  22873301.1154   22873298.9634
     -2177.7664
  -5200294.22349  -4045361.28247  20208118.9674   20208117.3774
      1775.8134
  -5406007.83246  -4207938.46143  22904029.9674   22904029.7014
      2477.3284
  -7316142.18048  -5696811.61744  22610285.6394   22610284.0334
      4277.3754
 04  9 14 21 43 14.9980000  0  8G 3G 8G13G19G23G27G10G28
  -1890461.15747  -1469139.69343  22625908.6004   22625908.5964
       -35.1094
  -8601488.49049  -6686547.07247  20672963.6394   20672962.1744
      2955.8754
   -200147.68149   -157572.72047  20153077.6544   20153075.0414
      -498.4064
  -8010748.59148  -6225900.15045  22054657.7324   22054653.9514
      2373.3134
   5406681.66547   4196252.53743  22879520.8264   22879519.0644
     -2180.4844
  -5226917.93849  -4066107.05247  20203052.7404   20203051.0184
      1773.7344
  -5443106.47146  -4236846.45143  22896970.4284   22896970.2914
      2469.0164
  -7380281.90048  -5746790.59144  22598080.6394   22598079.1274
      4274.3914
 04  9 14 21 43 29.9980000  0  8G 3G 8G13G19G23G27G10G28
  -1889877.17348  -1468684.64143  22626019.9204   22626019.6394
       -43.0004
  -8645812.36849  -6721085.15247  20664528.9904   20664527.4514
      2953.7814
   -192625.64049   -151711.39847  20154508.4204   20154506.3504
      -504.7344
  -8046297.69548  -6253600.73645  22047892.6864   22047889.5924
      2366.3134
   5439401.49447   4221748.45644  22885746.5924   22885745.3384
     -2182.5004
  -5253514.07849  -4086831.31947  20197991.6394   20197989.9514
      1772.1564
  -5480084.00346  -4265660.12543  22889934.3974   22889933.6314
      2461.1414
  -7444380.20548  -5796737.27944  22585882.2564   22585881.3974
      4271.8284
 04  9 14 21 43 44.9980000  0  8G 3G 8G13G19G23G27G10G28
  -1889174.19947  -1468136.89644  22626153.1864   22626153.2684
       -50.6094
  -8690104.01949  -6755598.12347  20656100.6934   20656098.9864
      2951.9224
   -185005.99049   -145774.02447  20155958.9514   20155956.7874
      -511.0164
  -8081740.09248  -6281218.17245  22041148.4514   22041145.1894
      2359.3914
   5472154.99147   4247270.60643  22891980.4824   22891978.6894
     -2184.3914
  -5280084.05549  -4107535.19348  20192935.5064   20192933.8974
      1770.6414
  -5516941.55247  -4294380.32143  22882920.2324   22882919.5494
      2453.2974
  -7508438.26948  -5846652.62244  22573692.7484   22573691.1274
      4269.4064
 04  9 14 21 43 59.9980000  0  8G 3G 8G13G19G23G27G10G28
  -1888353.20948  -1467497.16944  22626309.9124   22626310.0724
       -58.6414
  -8734364.09449  -6790086.49847  20647678.2564   20647676.2564
      2949.7504
   -177289.56049   -139761.24247  20157427.3974   20157424.8934
      -517.5624
  -8117076.17348  -6308752.75845  22034424.2954   22034420.7564
      2352.3754
   5504941.01447   4272818.08643  22898220.1234   22898217.9904
     -2186.7504
  -5306628.68349  -4128219.32547  20187884.3974   20187882.6314
      1768.9064
  -5553679.90746  -4323007.59043  22875929.2324   22875929.0804
      2445.3914
  -7572456.70248  -5896537.10344  22561510.4594   22561508.7564
      4266.6724
 04  9 14 21 44 14.9980000  0  8G 3G 8G13G19G23G27G10G28
  -1887416.61047  -1466767.37644  22626488.1624   22626487.8734
       -66.1094
  -8778594.84949  -6824552.00947  20639261.4754   20639259.8814
      2947.9694
   -169478.64049   -133674.82847  20158913.6394   20158911.4634
      -523.7194
  -8152307.97448  -6336206.10446  22027719.3504   22027716.3544
      2345.5004
   5537757.36147   4298389.20144  22904464.7174   22904462.3264
     -2188.6254
  -5333149.96549  -4148885.25847  20182837.4124   20182835.4824
      1767.4694
  -5590301.01246  -4351543.50143  22868959.7324   22868960.2324
      2437.6564
  -7636437.42548  -5946392.18544  22549334.7644   22549333.7684
      4264.3284
 04  9 14 21 44 29.9980000  0  8G 3G 8G13G19G23G27G10G28
  -1886365.53347  -1465948.36343  22626688.1314   22626687.7874
       -73.9064
  -8822797.17649  -6858995.38447  20630849.7724   20630848.4754
      2945.8754
   -161574.30749   -127515.61847  20160417.9124   20160415.3504
      -530.0474
  -8187436.21248  -6363578.73846  22021034.8264   22021031.6074
      2338.4534
   5570602.78747   4323982.97843  22910714.3734   22910712.6154
     -2190.6874
  -5359648.97049  -4169533.84847  20177794.8344   20177792.4794
      1765.8594
  -5626805.87546  -4379988.84343  22862013.6624   22862012.8504
      2429.7974
  -7700381.40948  -5996218.65244  22537167.0374   22537165.6824
      4261.6724
 04  9 14 21 44 44.9980000  0  8G 3G 8G13G19G23G27G10G28
  -1885191.43647  -1465033.49543  22626911.6154   22626911.4944
       -82.4224
  -8866962.58349  -6893409.98247  20622445.6154   20622444.1114
      2943.0314
   -153568.03149   -121276.97748  20161941.4284   20161939.4594
      -537.2344
  -8222452.12448  -6390863.86045  22014371.3504   22014368.3734
      2330.5164
   5603485.64847   4349605.91343  22916971.6784   22916969.8114
     -2193.4534
  -5386117.03849  -4190158.30947  20172758.1544   20172756.1074
      1763.4694
  -5663185.59547  -4408336.68343  22855091.0764   22855089.8694
      2421.1414
  -7764279.83948  -6046009.59044  22525007.6394   22525006.5724
      4258.3594
 04  9 14 21 44 59.9980000  0  8G 3G 8G13G19G23G27G10G28
  -1883901.82847  -1464028.63043  22627156.5534   22627157.1624
       -89.9694
  -8911098.11349  -6927801.28747  20614046.8654   20614044.9904
      2941.3284
   -145467.12849   -114964.60447  20163483.0534   20163480.6234
      -543.2504
  -8257362.82248  -6418066.98245  22007728.3264   22007725.5684
      2323.7974
   5636398.50047   4375252.22543  22923235.1704   22923233.0804
     -2195.2034
  -5412561.26449  -4210764.21147  20167725.7794   20167723.9364
      1762.1254
  -5699447.44547  -4436592.66643  22848190.6154   22848189.9824
      2413.5004
  -7828139.74548  -6095770.53044  22512856.1544   22512854.4434
      4255.9534
 04  9 14 21 45 14.9980000  0  8G 3G 8G13G19G23G27G10G28
  -1882494.01547  -1462931.65743  22627424.7324   22627425.1074
       -98.2194
  -8955200.82449  -6962167.03647  20605654.3114   20605652.8734
      2938.6414
   -137268.88149   -108576.36947  20165043.3424   20165040.6974
      -550.2504
  -8292165.17048  -6445185.67545  22001105.2484   22001102.5254
      2316.1254
   5669343.92947   4400923.92743  22929504.7174   22929502.7134
     -2197.8914
  -5438978.90949  -4231349.39247  20162698.9364   20162696.9594
      1759.8914
  -5735588.40247  -4464754.41844  22841313.6234   22841312.4794
      2404.8594
  -7891958.16448  -6145499.14144  22500712.2404   22500709.6234
      4252.7194
 04  9 14 21 45 29.9980000  0  8G 3G 8G13G19G23G27G10G28
  -1880963.27048  -1461738.86943  22627716.4824   22627716.0924
      -106.0164
  -8999265.87649  -6996503.43347  20597268.9904   20597267.5224
      2936.5944
   -128968.54749   -102108.58847  20166622.5534   20166619.8974
      -556.5624
  -8326854.17148  -6472216.05145  21994505.0614   21994502.0144
      2308.9844
   5702326.55347   4426624.59943  22935781.7404   22935778.5334
     -2199.9374
  -5465365.07949  -4251910.03847  20157677.8344   20157675.9044
      1758.2194
  -5771603.47346  -4492818.15443  22834460.0144   22834459.1394
      2396.9844
  -7955730.08848  -6195191.52344  22488576.5614   22488574.5684
      4250.0634
 04  9 14 21 45 44.9980000  0  8G 3G 8G13G19G23G27G10G28
  -1879308.78248  -1460449.67343  22628031.4824   22628030.7014
      -114.2664
  -9043292.24349  -7030809.69047  20588891.3034   20588889.7954
      2933.8754
   -120565.17249    -95560.52448  20168221.7404   20168219.0614
      -563.5624
  -8361428.68748  -6499157.22045  21987925.1624   21987922.7134
      2301.3134
   5735347.14347   4452354.86543  22942064.6314   22942062.1114
     -2202.4694
  -5491718.68249  -4272445.31647  20152662.9124   20152661.1314
      1755.9694
  -5807491.59247  -4520782.91243  22827630.4044   22827629.3464
      2388.4844
  -8019454.38848  -6244846.80244  22476449.6704   22476447.7684
      4246.7194
 04  9 14 21 45 59.9980000  0  8G 3G 8G13G19G23G27G10G28
  -1877534.99447  -1459067.52543  22628367.9284   22628368.6784
      -122.4374
  -9087284.47249  -7065089.33947  20580519.6394   20580518.0414
      2931.5164
   -112063.20149    -88935.63047  20169839.3264   20169837.6784
      -570.2664
  -8395892.72548  -6526012.29545  21981367.0924   21981364.1314
      2293.7814
   5768401.08947   4478111.13443  22948354.6074   22948351.9984
     -2204.8754
  -5518044.15349  -4292958.66547  20147653.2174   20147651.6234
      1753.9224
  -5843256.96847  -4548652.00343  22820824.6074   22820823.7564
      2380.1884
  -8083135.26248  -6294468.22444  22464331.3504   22464329.6704
      4243.7814
 04  9 14 21 46 14.9980000  0  8G 3G 8G13G19G23G27G10G28
  -1875633.14047  -1457585.57943  22628730.5144   22628730.5254
      -131.0474
  -9131233.27749  -7099335.16147  20572156.3504   20572154.7914
      2928.4224
   -103453.77549    -82227.00047  20171477.8734   20171475.7874
      -577.6094
  -8430237.09348  -6552774.13845  21974831.7794   21974828.6784
      2285.6094
   5801497.23347   4503900.25843  22954653.5454   22954650.7134
     -2207.9224
  -5544332.38449  -4313443.01647  20142650.9674   20142649.0334
      1751.2814
  -5878890.50047  -4576418.40344  22814044.7874   22814043.5684
      2371.1724
  -8146763.45848  -6344048.61844  22452223.8114   22452221.5884
      4240.1254
 04  9 14 21 46 29.9980000  0  8G 3G 8G13G19G23G27G10G28
  -1873606.22347  -1456006.19543  22629115.8184   22629115.8464
      -139.3124
  -9175141.47049  -7133549.32647  20563800.9124   20563799.4754
      2925.8754
    -94739.93149    -75437.00547  20173136.1234   20173133.8464
      -584.4064
  -8464464.60748  -6579444.91745  21968318.2174   21968315.1004
      2277.9844
   5834632.39647   4529719.79444  22960958.8574   22960956.2324
     -2210.3284
  -5570586.28949  -4333900.60547  20137654.8034   20137653.0884
      1749.1724
  -5914395.05547  -4604084.27543  22807287.8574   22807286.1074
      2362.6884
  -8210341.78848  -6393590.13044  22440124.9364   22440123.4004
      4236.9384
 04  9 14 21 46 44.9980000  0  8G 3G 8G13G19G23G27G10G28
  -1871453.27947  -1454328.58743  22629525.6004   22629525.6934
      -147.3594
  -9219008.04149  -7167731.07347  20555453.5534   20555451.9674
      2923.4224
    -85920.57649    -68564.80847  20174814.4674   20174812.2524
      -591.0624
  -8498573.88148  -6606023.55245  21961827.3504   21961823.9984
      2270.3594
   5867807.55347   4555570.50043  22967271.5144   22967269.5614
     -2212.6724
  -5596804.72249  -4354330.55947  20132665.5924   20132663.4754
      1747.1094
  -5949769.40747  -4631648.71243  22800555.6474   22800554.8264
      2354.3134
  -8273869.04448  -6443091.88344  22428036.2404   22428034.5254
      4233.7814
 04  9 14 21 46 59.9980000  0  8G 3G 8G13G19G23G27G10G28
  -1869178.04447  -1452555.68343  22629959.0064   22629958.7134
      -155.2814
  -9262836.48749  -7201883.09647  20547113.1864   20547111.5144
      2921.0944
    -76999.38649    -61613.23747  20176511.8894   20176509.9984
      -597.6414
  -8532568.23948  -6632512.65645  21955358.3114   21955355.4324
      2262.8754
   5901018.85347   4581449.37344  22973591.0844   22973590.4004
     -2214.8124
  -5622991.15549  -4374735.56547  20127682.6394   20127680.3344
      1745.1254
  -5985016.84847  -4659114.23844  22793849.1704   22793848.4864
      2346.0164
  -8337348.55948  -6492556.38744  22415956.2724   22415954.5844
      4230.8754
 04  9 14 21 47 14.9980000  0  8G 3G 8G13G19G23G27G10G28
  -1866778.42648  -1450685.88043  22630415.6234   22630415.3854
      -164.2504
  -9306624.60549  -7236003.70647  20538780.5454   20538778.7444
      2917.6884
    -67974.23349    -54580.67147  20178229.6784   20178227.2954
      -605.2504
  -8566445.28448  -6658910.35145  21948911.7954   21948908.4794
      2254.3754
   5934268.42547   4607358.06043  22979919.0144   22979916.5724
     -2217.9844
  -5649143.23449  -4395113.81947  20122706.2954   20122703.9434
      1742.2344
  -6020135.09847  -4686479.08243  22787165.3974   22787164.8544
      2336.6884
  -8400777.81648  -6541981.77244  22403886.6004   22403885.0294
      4226.7664
 04  9 14 21 47 29.9980000  0  8G 3G 8G13G19G23G27G10G28
  -1864250.79348  -1448716.28543  22630896.6394   22630896.3934
      -172.6874
  -9350368.41149  -7270089.78547  20530456.4364   20530454.7684
      2914.8284
    -58841.45749    -47464.24247  20179967.5144   20179965.1314
      -612.3594
  -8600200.95648  -6685213.45046  21942488.5294   21942485.3264
      2246.4224
   5967559.69447   4633299.24344  22986253.6864   22986251.9514
     -2220.8284
  -5675257.27249  -4415462.42347  20117736.5374   20117734.6314
      1739.7344
  -6055120.43047  -4713740.37543  22780508.2324   22780506.7254
      2327.9534
  -8464152.98348  -6591364.99144  22391826.2794   22391823.9514
      4223.2814
 04  9 14 21 47 44.9980000  0  8G 3G 8G13G19G23G27G10G28
  -1861599.56447  -1446650.42344  22631401.1314   22631400.6824
      -181.1564
  -9394072.00549  -7304144.51947  20522139.8344   20522138.0614
      2911.9064
    -49605.37149    -40267.30447  20181724.9754   20181722.9554
      -619.4534
  -8633839.35348  -6711425.16545  21936087.6074   21936083.5184
      2238.3284
   6000888.36847   4659269.59943  22992595.7254   22992594.2254
     -2223.5004
  -5701337.30849  -4435784.52547  20112773.8734   20112771.5294
      1737.2194
  -6089976.80347  -4740901.21744  22773875.9824   22773874.8224
      2319.1414
  -8527478.10248  -6640709.21044  22379775.9674   22379773.9394
      4219.7504
 04  9 14 21 47 59.9980000  0  8G 3G 8G13G19G23G27G10G28
  -1858821.33948  -1444485.57643  22631929.9204   22631929.3504
      -189.5164
  -9437731.87549  -7338165.20647  20513831.6934   20513830.0884
      2909.1414
    -40262.36849    -32987.06948  20183502.9044   20183500.6824
      -626.4844
  -8667356.67048  -6737542.55745  21929709.0294   21929705.1824
      2230.4064
   6034257.76447   4685271.63644  22998946.6154   22998944.1584
     -2226.0314
  -5727379.87649  -4456077.44447  20107817.9284   20107816.0224
      1734.8754
  -6124700.67347  -4767958.75744  22767267.6544   22767268.3854
      2310.4384
  -8590749.49348  -6690011.55544  22367735.5684   22367734.2564
      4216.1564
 04  9 14 21 48 14.9980000  0  8G 3G 8G13G19G23G27G10G28
  -1855915.47248  -1442221.27343  22632482.5294   22632481.8974
      -197.9224
  -9481347.24849  -7372151.19947  20505531.9754   20505530.6434
      2906.2814
    -30811.88249    -25623.06548  20185301.2724   20185299.1044
      -633.5004
  -8700751.88548  -6763564.79145  21923353.7014   21923350.3934
      2222.3594
   6067668.36447   4711305.82044  23005303.4984   23005301.4824
     -2228.5784
  -5753384.08849  -4476340.46547  20102869.4904   20102867.7014
      1732.4064
  -6159291.11047  -4794912.31243  22760686.2794   22760684.4554
      2301.6414
  -8653966.12248  -6739271.23844  22355705.7094   22355704.0334
      4212.6724
 04  9 14 21 48 29.9980000  0  8G 3G 8G13G19G23G27G10G28
  -1852881.49848  -1439857.14643  22633059.5064   22633059.7014
      -206.3444
  -9524917.36249  -7406101.93347  20497240.9044   20497239.8264
      2903.2814
    -21253.44249    -18174.95047  20187120.3734   20187118.0924
      -640.7344
  -8734024.27648  -6789491.32445  21917022.4984   21917019.3114
      2214.1884
   6101120.66447   4737372.47943  23011669.5614   23011667.5724
     -2231.3914
  -5779349.21049  -4496573.02947  20097928.3734   20097926.6864
      1729.7504
  -6193747.25847  -4821761.31143  22754128.6934   22754125.7834
      2292.7814
  -8717127.26448  -6788487.68544  22343686.6154   22343685.0964
      4208.9844
 04  9 14 21 48 44.9980000  0  8G 3G 8G13G19G23G27G10G28
  -1849721.72247  -1437395.00843  22633661.3734   22633661.5924
      -214.9844
  -9568444.14849  -7440018.90647  20488957.9824   20488956.3854
      2900.0944
    -11589.22949    -10644.40947  20188958.9984   20188957.0064
      -648.0164
  -8767175.78348  -6815323.65645  21910714.1004   21910710.9394
      2205.8914
   6134612.13147   4763469.65944  23018043.3814   23018041.3344
     -2234.1564
  -5805277.48349  -4516776.88047  20092994.7324   20092992.9084
      1727.0944
  -6228071.27447  -4848507.26743  22747597.0224   22747596.3114
      2283.7344
  -8780234.88948  -6837662.41044  22331677.8184   22331675.9554
      4205.1724
 04  9 14 21 48 59.9980000  0  8G 3G 8G13G19G23G27G10G28
  -1846431.52747  -1434831.22343  22634287.0924   22634287.8464
      -223.8124
  -9611923.01749  -7473898.53247  20480684.0684   20480682.3544
      2896.8914
     -1814.65349     -3027.87047  20190819.4674   20190817.0254
      -655.4224
  -8800201.35348  -6841057.84845  21904429.6314   21904426.5064
      2197.3444
   6168147.47447   4789601.02543  23024424.1624   23024422.5844
     -2237.2814
  -5831164.03149  -4536948.21847  20088068.4984   20088066.5064
      1724.2194
  -6262258.18447  -4875146.38844  22741091.7174   22741091.4634
      2274.5004
  -8843284.08748  -6886791.63345  22319680.2094   22319677.9714
      4201.2504
 04  9 14 21 49 14.9980000  0  8G 3G 8G13G19G23G27G10G28
  -1843011.02448  -1432165.93843  22634939.1704   22634938.8614
      -232.0784
  -9655353.82749  -7507740.72247  20472419.5534   20472417.8504
      2894.0004
      8070.35949      4674.72047  20192700.2014   20192698.2604
      -662.4064
  -8833100.62648  -6866693.64545  21898169.0374   21898165.9674
      2189.3134
   6201726.53047   4815766.45943  23030815.1704   23030812.7724
     -2239.9064
  -5857008.63649  -4557086.87147  20083150.3894   20083148.2484
      1721.8754
  -6296307.91847  -4901678.65243  22734611.8814   22734610.7684
      2265.6094
  -8906274.57848  -6935875.11544  22307693.6154   22307691.3384
      4197.5944
 04  9 14 21 49 29.9980000  0  8G 3G 8G13G19G23G27G10G28
  -1839459.47748  -1429398.48343  22635614.2484   22635614.2094
      -240.8914
  -9698735.76349  -7541544.83447  20464164.6474   20464162.9714
      2890.7344
     18066.59949     12463.97747  20194602.8894   20194600.6784
      -669.9224
  -8865872.70348  -6892230.32345  21891932.6074   21891929.7794
      2180.7814
   6235349.88547   4841966.40043  23037213.7404   23037211.6044
     -2242.8284
  -5882810.49349  -4577192.21947  20078240.5614   20078238.4004
      1718.9384
  -6330219.59247  -4928103.37243  22728158.3974   22728157.2604
      2256.4064
  -8969205.28048  -6984911.99544  22295717.8114   22295716.1624
      4193.6254
 04  9 14 21 49 44.9980000  0  8G 3G 8G13G19G23G27G10G28
  -1835785.61447  -1426535.76644  22636313.2724   22636313.2754
      -249.5624
  -9742077.21749  -7575317.39547  20455916.9044   20455915.3144
      2887.5474
     28165.36249     20333.11747  20196524.4204   20196522.1044
      -677.1094
  -8898525.86248  -6917674.34845  21885719.1154   21885715.9474
      2172.3754
   6269009.01247   4868194.21643  23043617.9434   23043616.1274
     -2245.6874
  -5908578.11049  -4597270.89147  20073337.1154   20073335.3814
      1716.1884
  -6364001.43947  -4954426.86444  22721730.6704   22721730.0334
      2247.2034
  -9032084.61648  -7033908.85044  22283751.9284   22283750.1004
      4189.6724
 04  9 14 21 49 59.9980000  0  8G 3G 8G13G19G23G27G10G28
  -1831982.65047  -1423572.43243  22637037.4594   22637037.0684
      -257.8754
  -9785371.26649  -7609053.00447  20447678.2404   20447676.7254
      2884.6564
     38373.55849     28287.54047  20198466.8734   20198465.1074
      -684.1414
  -8931053.07748  -6943020.20945  21879529.0614   21879526.2404
      2164.2664
   6302710.40446   4894454.97743  23050030.8894   23050029.3814
     -2248.0314
  -5934304.41149  -4617317.34647  20068441.6934   20068439.3344
      1713.7344
  -6397646.52147  -4980643.77543  22715328.0064   22715327.7954
      2238.4534
  -9094905.49348  -7082860.15444  22271797.6864   22271795.9904
      4186.0784
 04  9 14 21 50 14.9980000  0  8G 3G 8G13G19G23G27G10G28
  -1828053.84547  -1420511.01843  22637784.7404   22637784.3574
      -265.8124
  -9828620.51349  -7642753.70147  20439448.1624   20439446.4204
      2882.0164
     48687.90649     36324.67947  20200429.6544   20200427.8034
      -690.8914
  -8963457.03948  -6968270.02946  21873362.2874   21873359.4284
      2156.3754
   6336450.97547   4920746.26143  23056452.1624   23056449.9124
     -2250.3754
  -5959992.40749  -4637333.97647  20063553.0144   20063551.2794
      1711.5314
  -6431157.79346  -5006756.48043  22708950.3034   22708949.4984
      2229.8914
  -9157670.81048  -7131768.18644  22259853.8894   22259851.4434
      4182.7194
 04  9 14 21 50 29.9980000  0  8G 3G 8G13G19G23G27G10G28
  -1823997.40547  -1417350.16943  22638556.5454   22638556.7754
      -274.7974
  -9871823.33649  -7676418.23347  20431226.8574   20431225.5414
      2878.5634
     59110.34249     44446.03547  20202413.2794   20202410.9674
      -698.5314
  -8995735.70948  -6993422.23545  21867220.2564   21867217.0414
      2147.6094
   6370232.24647   4947069.27343  23062880.6474   23062878.1934
     -2253.5164
  -5985640.22749  -4657319.29147  20058672.5614   20058670.8184
      1708.4224
  -6464533.25447  -5032763.34443  22702600.1784   22702598.4434
      2220.4224
  -9220378.51248  -7180631.29344  22247921.1074   22247919.4984
      4178.4534
 04  9 14 21 50 44.9980000  0  8G 3G 8G13G19G23G27G10G28
  -1819814.37347  -1414090.68743  22639353.1474   22639352.6354
      -283.1564
  -9914980.62249  -7710047.28647  20423014.1394   20423013.2364
      2875.5944
     69639.96249     52650.92047  20204416.9124   20204415.0574
      -705.5624
  -9027889.78748  -7018477.35846  21861101.6154   21861098.8424
      2139.4694
   6404053.27246   4973423.23243  23069315.7484   23069314.4394
     -2256.0164
  -6011248.61149  -4677273.87847  20053799.6784   20053797.5494
      1705.9224
  -6497773.59846  -5058664.90944  22696274.4434   22696274.0574
      2211.5474
  -9283029.35247  -7229450.09944  22235998.6624   22235997.1584
      4174.8284
 04  9 14 21 50 59.9980000  0  8G 3G 8G13G19G23G27G10G28
  -1815505.61047  -1410733.22243  22640172.2564   22640172.2294
      -291.3444
  -9958092.86949  -7743641.24947  20414810.4674   20414808.4204
      2872.7034
     80275.82949     60938.59147  20206440.5924   20206438.6974
      -712.5004
  -9059919.72148  -7043435.74245  21855006.9824   21855003.4124
      2131.2664
   6437912.96846   4999807.35343  23075759.3424   23075757.4824
     -2258.4534
  -6036818.20949  -4697198.24847  20048933.9674   20048931.7254
      1703.4064
  -6530879.48546  -5084461.65443  22689974.2324   22689974.1744
      2202.6094
  -9345623.75348  -7278224.93244  22224087.5924   22224086.0064
      4171.1724
 04  9 14 21 51 14.9980000  0  8G 3G 8G13G19G23G27G10G28
  -1811069.89447  -1407276.85543  22641016.0374   22641017.0064
      -300.0004
 -10001158.49749  -7777198.87047  20406615.0534   20406613.6974
      2869.5474
     91019.20849     69310.03647  20208484.9364   20208482.9754
      -719.7664
  -9091824.04948  -7068296.25346  21848935.4754   21848932.3974
      2122.8754
   6471812.63746   5026222.61343  23082210.7794   23082208.8184
     -2261.2814
  -6062347.59549  -4717091.27947  20044075.7794   20044073.8034
      1700.6724
  -6563849.46147  -5110152.59343  22683701.2874   22683698.5644
      2193.5314
  -9408160.29448  -7326954.67244  22212187.2484   22212185.2794
      4167.2664
 04  9 14 21 51 29.9980000  0  8G 3G 8G13G19G23G27G10G28
  -1806510.36147  -1403723.96843  22641884.2404   22641884.7094
      -308.2814
 -10044180.43649  -7810722.45147  20398428.6234   20398426.7834
      2866.5004
    101867.17249     77762.98147  20210549.3184   20210547.2294
      -726.8914
  -9123605.28948  -7093060.85346  21842887.6624   21842884.4394
      2114.4384
   6505749.13546   5052666.55843  23088669.0144   23088666.4554
     -2263.8284
  -6087839.60549  -4736955.18847  20039224.8184   20039222.5684
      1698.0004
  -6596686.32947  -5135739.76343  22677451.1074   22677450.8854
      2184.5164
  -9470641.51748  -7375641.31045  22200297.0454   22200296.0414
      4163.4534
 04  9 14 21 51 44.9970000  0  8G 3G 8G13G19G23G27G10G28
  -1801828.11947  -1400075.49443  22642775.5094   22642775.3494
      -316.2504
 -10087156.43949  -7844210.24947  20390250.0794   20390248.7944
      2863.9384
    112818.12149     86296.16947  20212633.3134   20212631.2354
      -733.5004
  -9155261.91648  -7117728.34846  21836864.1964   21836860.8884
      2106.5164
   6539719.28047   5079136.72343  23095133.7594   23095130.8024
     -2265.9064
  -6113293.13549  -4756789.10347  20034381.2824   20034379.2674
      1695.8284
  -6629388.55048  -5161221.95843  22671228.9854   22671228.9584
      2175.9384
  -9533063.90648  -7424282.09844  22188419.0094   22188417.1924
      4160.0164
 04  9 14 21 51 59.9970000  0  8G 3G 8G13G19G23G27G10G28
  -1797017.91547  -1396327.29543  22643691.1574   22643690.8964
      -325.0474
 -10130087.50249  -7877663.01047  20382080.7044   20382079.0564
      2860.3754
    123878.18249     94914.38447  20214737.9154   20214735.8174
      -741.0624
  -9186793.29548  -7142298.24746  21830863.2434   21830860.2864
      2097.7194
   6573732.19246   5105640.22843  23101605.6964   23101603.6494
     -2268.9374
  -6138706.87249  -4776592.02247  20029544.9854   20029543.3604
      1692.7504
  -6661955.53448  -5186598.84943  22665032.2984   22665030.5214
      2166.5474
  -9595430.83848  -7472879.66745  22176550.3994   22176548.9664
      4155.6724
 04  9 14 21 52 14.9970000  0  8G 3G 8G13G19G23G27G10G28
  -1792083.11348  -1392482.03043  22644630.3534   22644629.8134
      -333.1094
 -10172973.37849  -7911080.57747  20373919.9784   20373918.2204
      2857.6414
    135043.71449    103614.78047  20216863.0094   20216860.8064
      -747.7974
  -9218199.91748  -7166770.93546  21824886.6884   21824883.7944
      2089.6724
   6607782.50646   5132172.85943  23108084.5094   23108083.6304
     -2271.2194
  -6164081.81049  -4796364.70847  20024716.6654   20024714.4704
      1690.3914
  -6694387.86348  -5211870.85143  22658859.8684   22658858.3294
      2157.7814
  -9657740.76448  -7521432.83245  22164693.5954   22164691.9464
      4152.1254
 04  9 14 21 52 29.9970000  0  8G 3G 8G13G19G23G27G10G28
  -1787024.69747  -1388540.42344  22645593.1424   22645592.3724
      -341.2194
 -10215814.85049  -7944463.55147  20365767.6654   20365765.6184
      2854.7194
    146313.90549    112396.72047  20219007.5324   20219005.5524
      -754.6724
  -9249482.30949  -7191146.82546  21818933.9934   21818930.9934
      2081.5314
   6641869.26147   5158733.90643  23114572.1034   23114569.9424
     -2273.5624
  -6189418.65049  -4816107.70147  20019894.9234   20019893.4234
      1687.9694
  -6726686.23648  -5237038.38043  22652712.8994   22652713.6034
      2148.9224
  -9719994.36648  -7569942.09645  22152847.4464   22152845.2864
      4148.4844
 04  9 14 21 52 44.9970000  0  8G 3G 8G13G19G23G27G10G28
  -1781843.13147  -1384502.85343  22646578.5794   22646578.2864
      -349.5944
 -10258612.47849  -7977812.33847  20357623.0954   20357621.3884
      2851.5944
    157688.19549    121259.79347  20221171.8374   20221169.5754
      -761.8754
  -9280640.65148  -7215426.05846  21813004.7674   21813001.5674
      2072.9534
   6675991.90946   5185322.88143  23121064.9314   23121063.2984
     -2276.1564
  -6214717.70349  -4835821.25447  20015080.6814   20015078.8334
      1685.2504
  -6758850.75148  -5262101.63144  22646594.0634   22646592.8134
      2139.7344
  -9782191.94548  -7618407.71545  22141011.2044   22141009.3604
      4144.5004
 04  9 14 21 52 59.9970000  0  8G 3G 8G13G19G23G27G10G28
  -1776538.80948  -1380369.64443  22647587.9784   22647588.4584
      -358.3284
 -10301366.22749  -8011126.94047  20349487.3994   20349485.8964
      2848.2664
    169166.21049    130203.68147  20223355.9384   20223353.7124
      -769.2504
  -9311675.09648  -7239608.72645  21807098.6034   21807095.7474
      2064.2814
   6710149.93547   5211939.44243  23127565.2204   23127563.5174
     -2278.9844
  -6239979.27249  -4855505.59447  20010273.8844   20010271.6034
      1682.2814
  -6790881.72746  -5287060.82243  22640496.7204   22640496.1774
      2130.4064
  -9844333.47448  -7666829.66444  22129186.0794   22129184.0634
      4140.4064
 04  9 14 21 53 14.9970000  0  8G 3G 8G13G19G23G27G10G28
  -1771109.18447  -1376138.78043  22648621.2284   22648620.7244
      -365.9224
 -10344073.06649  -8044404.98547  20341360.4314   20341359.6264
      2845.7344
    180750.57449    139230.44447  20225560.6574   20225558.2944
      -775.6724
  -9342582.74649  -7263692.60346  21801217.3844   21801214.4074
      2056.4384
   6744345.93047   5238585.61243  23134072.6264   23134071.0754
     -2280.8124
  -6265200.39349  -4875158.41147  20005473.9384   20005472.5834
      1680.1884
  -6822776.45047  -5311913.88943  22634427.9544   22634425.9194
      2121.8444
  -9906416.03548  -7715205.65144  22117372.2824   22117370.1534
      4137.0474
 04  9 14 21 53 29.9970000  0  8G 3G 8G13G19G23G27G10G28
  -1765555.56748  -1371811.30043  22649677.7594   22649677.6104
      -374.5004
 -10386734.36849  -8077647.55647  20333242.3454   20333240.6534
      2842.4534
    192440.13249    148339.16447  20227785.0634   20227782.8294
      -782.9374
  -9373364.37349  -7287678.28446  21795359.7744   21795357.4194
      2047.7504
   6778578.59647   5265260.36543  23140586.9704   23140584.9974
     -2283.6094
  -6290382.21349  -4894780.61347  20000682.2204   20000680.3374
      1677.3594
  -6854535.71948  -5336661.33544  22628385.3454   22628385.6034
      2112.6094
  -9968440.57048  -7763536.43745  22105569.3134   22105567.1964
      4132.8594
 04  9 14 21 53 44.9970000  0  8G 3G 8G13G19G23G27G10G28
  -1759881.85148  -1367390.24243  22650757.8214   22650757.4664
      -382.3124
 -10429353.74849  -8110857.45447  20325132.0954   20325130.3844
      2839.8444
    204231.06449    157526.89447  20230028.6884   20230026.4114
      -789.4534
  -9404023.52848  -7311568.53746  21789525.7124   21789522.9664
      2039.8134
   6812843.94646   5291960.53843  23147106.9314   23147105.5284
     -2285.4064
  -6315528.28049  -4914374.95547  19995896.9384   19995895.0094
      1675.1414
  -6886163.17647  -5361306.08443  22622365.4704   22622365.8374
      2104.0314
 -10030410.58748  -7811824.75445  22093776.9704   22093774.8334
      4129.4224
 04  9 14 21 53 59.9970000  0  8G 3G 8G13G19G23G27G10G28
  -1754087.94948  -1362875.53643  22651860.1104   22651859.7394
      -390.3594
 -10471930.71549  -8144034.30147  20317030.0014   20317028.1614
      2837.0314
    216123.61549    166793.80247  20232291.6964   20232289.7044
      -796.2814
  -9434559.78549  -7335363.01746  21783715.0794   21783712.5874
      2031.6724
   6847142.08147   5318686.28343  23153634.6264   23153632.7554
     -2287.6254
  -6340638.40949  -4933941.28847  19991118.4704   19991116.7164
      1672.7504
  -6917658.55248  -5385847.94743  22616373.3374   22616369.9424
      2095.2814
 -10092325.69648  -7860070.24645  22081994.5954   22081992.8134
      4125.7974
 04  9 14 21 54 14.9970000  0  8G 3G 8G13G19G23G27G10G28
  -1748177.34148  -1358269.89343  22652984.8844   22652984.8534
      -398.0624
 -10514468.53349  -8177180.65247  20308935.6734   20308933.8764
      2834.4384
    228114.40649    176137.25947  20234573.2674   20234571.3804
      -802.7504
  -9464976.23849  -7359064.15146  21777926.7284   21777923.9314
      2023.5944
   6881469.54547   5345434.88443  23160166.9544   23160164.2284
     -2289.6564
  -6365715.69149  -4953482.04247  19986346.6264   19986344.7434
      1670.5944
  -6949025.11348  -5410289.45944  22610404.0634   22610402.5284
      2086.6564
 -10154189.02348  -7908275.38545  22070222.2354   22070220.8214
      4122.4064
 04  9 14 21 54 29.9970000  0  8G 3G 8G13G19G23G27G10G28
  -1742147.96348  -1353571.70443  22654132.2674   22654132.0834
      -405.9374
 -10556964.93349  -8210294.72947  20300848.5014   20300847.3104
      2831.7504
    240205.46549    185558.84847  20236874.3134   20236872.3924
      -809.4694
  -9495270.51949  -7382670.08046  21772162.2594   21772159.3804
      2015.5634
   6915828.20847   5372207.77443  23166705.3994   23166702.9744
     -2291.6094
  -6390757.89149  -4972995.45047  19981581.0324   19981579.3924
      1668.2814
  -6980260.64247  -5434628.78443  22604459.6814   22604460.9274
      2077.8754
 -10215998.09848  -7956438.28845  22058460.8214   22058458.4114
      4118.8134
 04  9 14 21 54 44.9970000  0  8G 3G 8G13G19G23G27G10G28
  -1735998.94648  -1348780.28843  22655302.9704   22655302.1384
      -413.7664
 -10599418.89149  -8243375.73547  20292769.9154   20292768.2354
      2828.9694
    252397.63649    195059.22047  20239194.6814   20239192.6534
      -816.1094
  -9525441.29049  -7406179.77946  21766420.7354   21766418.2284
      2007.4384
   6950219.04447   5399005.77543  23173248.7744   23173247.0364
     -2293.5944
  -6415763.94149  -4992480.68547  19976823.0244   19976820.8564
      1666.0314
  -7011363.91747  -5458865.09143  22598540.9074   22598540.3414
      2069.2664
 -10277751.92048  -8004558.13745  22046709.3374   22046706.9544
      4115.2034
 04  9 14 21 54 59.9970000  0  8G 3G 8G13G19G23G27G10G28
  -1729730.74648  -1343895.98843  22656495.5244   22656495.3844
      -422.0624
 -10641830.48349  -8276423.72547  20284699.6814   20284697.6654
      2825.7504
    264690.58749    204638.12147  20241533.9784   20241531.4854
      -823.1564
  -9555488.73349  -7429593.36946  21760702.8604   21760699.9384
      1998.8754
   6984641.53347   5425828.39943  23179799.0794   23179797.6884
     -2296.1094
  -6440734.01149  -5011937.88847  19972071.3994   19972069.2634
      1663.2504
  -7042335.02348  -5482998.46543  22592648.5954   22592645.2514
      2060.1094
 -10339450.47748  -8052634.89245  22034968.2984   22034967.0324
      4111.0474
 04  9 14 21 55 14.9970000  0  8G 3G 8G13G19G23G27G10G28
  -1723344.85648  -1338920.00243  22657710.9464   22657710.4464
      -429.3594
 -10684201.02249  -8309439.72047  20276636.5634   20276635.3564
      2823.5944
    277082.93749    214294.48347  20243891.8134   20243889.9814
      -829.2034
  -9585413.93649  -7452911.70046  21755007.4854   21755004.9354
      1991.2194
   7019094.19047   5452674.55343  23186355.7984   23186354.5054
     -2297.6094
  -6465669.30349  -5031367.98447  19967326.2594   19967324.1494
      1661.5314
  -7073175.18347  -5507029.79443  22586778.9464   22586778.3724
      2051.8284
 -10401094.94348  -8100669.51345  22023237.0954   22023235.3024
      4108.1414
 04  9 14 21 55 29.9970000  0  8G 3G 8G13G19G23G27G10G28
  -1716850.25748  -1333859.31143  22658945.8684   22658946.7944
      -436.8284
 -10726539.12349  -8342430.44647  20268579.8214   20268578.2944
      2821.1724
    289565.69749    224021.28847  20246267.5794   20246265.6464
      -835.4064
  -9615225.68949  -7476141.63446  21749335.5094   21749332.5994
      1983.4694
   7053567.79247   5479537.04043  23192915.7594   23192914.3454
     -2299.0784
  -6490578.60249  -5050777.83747  19962585.8534   19962584.0404
      1659.4844
  -7103893.35947  -5530965.96643  22580933.2204   22580933.7674
      2043.6094
 -10462693.97748  -8148668.74445  22011515.8064   22011513.6144
      4104.8444
 04  9 14 21 55 44.9970000  0  8G 3G 8G13G19G23G27G10G28
  -1710242.09848  -1328710.10443  22660203.6424   22660203.8994
      -444.1094
 -10768839.70149  -8375391.92347  20260530.4154   20260528.8964
      2818.9844
    302143.73649    233822.33947  20248661.0794   20248658.9314
      -841.5004
  -9644918.64048  -7499278.99646  21743685.1034   21743681.7514
      1975.7344
   7088067.39547   5506419.76843  23199480.9464   23199479.0954
     -2300.6564
  -6515456.76049  -5070163.40947  19957851.9314   19957850.2124
      1657.6564
  -7134484.18747  -5554802.98943  22575113.3534   22575110.1264
      2035.3284
 -10524242.34748  -8196628.48345  21999803.6654   21999801.5244
      4101.7664
 04  9 14 21 55 59.9970000  0  8G 3G 8G13G19G23G27G10G28
  -1703519.59448  -1323471.80243  22661483.2674   22661483.3964
      -451.9374
 -10811101.65449  -8408323.31147  20252487.8924   20252486.1534
      2816.1414
    314817.90049    243698.28947  20251072.9854   20251070.3454
      -848.1254
  -9674491.63248  -7522322.87646  21738057.2044   21738054.5444
      1967.5944
   7122593.74947   5533323.34643  23206051.6424   23206050.0094
     -2302.6874
  -6540302.78949  -5089523.96247  19953124.0094   19953121.9464
      1655.2814
  -7164946.77745  -5578540.11043  22569314.1574   22569312.5674
      2026.5004
 -10585738.90748  -8244547.85745  21988100.9544   21988099.4544
      4098.0004
 04  9 14 21 56 14.9970000  0  8G 3G 8G13G19G23G27G10G28
  -1696681.31048  -1318143.30543  22662784.7284   22662784.5054
      -460.2034
 -10853323.53549  -8441223.47147  20244453.4704   20244451.8884
      2813.0314
    327589.96749    253650.53047  20253503.3844   20253500.8334
      -855.2034
  -9703942.90348  -7545271.92046  21732452.9384   21732450.2394
      1958.9534
   7157148.09547   5560248.71643  23212626.9854   23212625.2354
     -2304.9534
  -6565114.98349  -5108858.13447  19948402.2674   19948400.5324
      1652.6254
  -7195279.43446  -5602175.88643  22563543.6264   22563541.6304
      2017.4064
 -10647181.89048  -8292425.47845  21976408.5794   21976406.8064
      4094.0314
 04  9 14 21 56 29.9970000  0  8G 3G 8G13G19G23G27G10G28
  -1689727.13148  -1312724.47543  22664107.5634   22664107.9314
      -467.4224
 -10895504.97849  -8474092.12347  20236426.4384   20236425.0174
      2810.7344
    340460.01149    263679.12647  20255952.5954   20255950.0284
      -861.3284
  -9733272.07748  -7568125.82246  21726871.7744   21726868.9154
      1951.1564
   7191730.59347   5587196.05743  23219207.5634   23219206.5284
     -2306.3914
  -6589892.95149  -5128165.64647  19943687.0014   19943685.2434
      1650.7034
  -7225481.58948  -5625710.05844  22557796.6814   22557795.5834
      2009.1254
 -10708570.74048  -8340260.90945  21964726.6884   21964724.7044
      4090.7344
 04  9 14 21 56 44.9970000  0  8G 3G 8G13G19G23G27G10G28
  -1682660.38948  -1307217.94743  22665452.7284   22665452.6264
      -475.0004
 -10937648.84949  -8506931.49747  20228406.6814   20228405.4424
      2808.1564
    353424.71849    273781.47147  20258419.5244   20258417.5284
      -867.6254
  -9762482.04348  -7590886.83546  21721313.2674   21721310.3844
      1943.1564
   7226337.86647   5614162.66543  23225793.4624   23225791.5244
     -2308.1564
  -6614639.88349  -5147448.98047  19938978.2744   19938975.7904
      1648.6254
  -7255556.63647  -5649145.15143  22552072.5094   22552072.3964
      2000.5634
 -10769908.63748  -8388056.65245  21953054.7124   21953052.6064
      4087.4224
 04  9 14 21 56 59.9970000  0  8G 3G 8G13G19G23G27G10G28
  -1675478.39148  -1301621.61043  22666819.8454   22666819.6884
      -482.2664
 -10979752.28749  -8539739.36747  20220394.8684   20220393.1304
      2805.9224
    366486.83549    283959.72047  20260905.2044   20260902.9744
      -873.7194
  -9791569.74648  -7613552.57445  21715777.9154   21715775.0244
      1935.4694
   7260972.64946   5641150.71643  23232384.5244   23232382.4974
     -2309.5624
  -6639352.72349  -5166705.73347  19934275.2594   19934273.4274
      1646.7504
  -7285501.40447  -5672478.75043  22546374.8134   22546372.7004
      1992.2974
 -10831192.43248  -8435810.23545  21941393.1104   21941390.9074
      4084.1414
 04  9 14 21 57 14.9970000  0  8G 3G 8G13G19G23G27G10G28
  -1668183.54648  -1295937.33443  22668207.5014   22668207.5094
      -490.1724
 -11021817.43549  -8572517.40247  20212390.0244   20212387.9504
      2802.9384
    379643.99449    294212.03947  20263408.9704   20263406.6814
      -880.4844
  -9820537.23648  -7636124.64746  21710266.2284   21710263.1734
      1927.0164
   7295632.44946   5668158.29143  23238978.7204   23238978.4234
     -2311.6564
  -6664033.62349  -5185937.60447  19929578.5954   19929577.1424
      1644.1884
  -7315318.05047  -5695712.50243  22540701.1344   22540699.7554
      1983.4224
 -10892424.09748  -8483523.18845  21929741.1344   21929738.2354
      4080.2814
 04  9 14 21 57 29.9970000  0  8G 3G 8G13G19G23G27G10G28
  -1660773.00048  -1290162.90043  22669617.3214   22669617.8334
      -497.7974
 -11063841.41949  -8605263.34647  20204393.0484   20204391.0994
      2800.2344
    392899.17849    304540.74047  20265931.2904   20265929.1104
      -886.9064
  -9849381.38648  -7658600.60246  21704777.0014   21704773.6494
      1918.9064
   7330320.10846   5695187.52443  23245580.4704   23245579.4504
     -2313.4064
  -6688679.59249  -5205142.25847  19924888.9464   19924886.9584
      1641.9384
  -7345003.61147  -5718844.09043  22535051.0324   22535051.3564
      1974.6884
 -10953600.61348  -8531193.17945  21918099.0794   21918097.3134
      4076.6724
 04  9 14 21 57 44.9970000  0  8G 3G 8G13G19G23G27G10G28
  -1653246.34248  -1284297.99743  22671049.7044   22671050.2634
      -505.6564
 -11105823.39749  -8637976.58647  20196404.3374   20196402.6104
      2797.3914
    406252.88549    314946.19747  20268472.1344   20268470.3174
      -893.5314
  -9878101.45549  -7680979.88546  21699311.8924   21699308.5674
      1910.5474
   7365035.98647   5722238.82443  23252187.0634   23252185.4234
     -2315.3284
  -6713289.81449  -5224319.06147  19920205.4154   19920203.6854
      1639.5004
  -7374557.35348  -5741872.94343  22529427.9234   22529426.5994
      1965.8284
 -11014721.21948  -8578819.60345  21906468.3134   21906466.5404
      4072.8444
 04  9 14 21 57 59.9970000  0  7G 3G 8G13G19G27G10G28
  -1645602.90848  -1278342.08643  22672504.2284   22672504.3644
      -513.6564
 -11147762.14549  -8670656.12847  20188423.4154   20188421.9154
      2794.1884
    419706.03849    325429.15647  20271032.3994   20271030.7824
      -900.4374
  -9906696.14648  -7703261.44846  21693870.0484   21693867.2474
      1901.9384
  -6737863.35749  -5243467.28047  19915529.3294   19915527.2434
      1636.7664
  -7403978.17547  -5764798.31243  22523829.5094   22523827.6654
      1956.7504
 -11075784.66648  -8626401.48545  21894848.2594   21894846.3604
      4068.7664
 04  9 14 21 58 14.9970000  0  7G 3G 8G13G19G27G10G28
  -1637846.88948  -1272298.47443  22673980.1734   22673980.4854
      -520.7974
 -11189661.66749  -8703305.09347  20180450.5174   20180448.9384
      2792.0004
    433254.32649    335986.24147  20273610.6734   20273608.6854
      -906.3594
  -9935169.38148  -7725448.39445  21688451.3844   21688449.5524
      1894.1254
  -6762403.97049  -5262589.83747  19910859.7594   19910857.6384
      1634.9384
  -7433270.05346  -5787623.14644  22518254.2204   22518255.2124
      1948.5634
 -11136794.86448  -8673941.87845  21883237.7514   21883236.3884
      4065.5634
 04  9 14 21 58 29.9970000  0  7G 3G 8G13G19G27G10G28
  -1629973.45048  -1266163.33343  22675478.6494   22675478.8134
      -528.7974
 -11231516.87449  -8735919.53647  20172485.5634   20172483.8294
      2788.9534
    446902.72849    346621.35447  20276207.5954   20276206.1424
      -913.1564
  -9963515.96848  -7747536.62646  21683057.6654   21683055.0364
      1885.5164
  -6786906.79049  -5281682.93847  19906197.0954   19906194.6424
      1632.3284
  -7462427.96346  -5810343.55443  22512706.4624   22512706.4854
      1939.4694
 -11197746.58548  -8721436.68945  21871639.2744   21871637.3214
      4061.5784
 04  9 14 21 58 44.9970000  0  7G 3G 8G13G19G27G10G28
  -1621983.14548  -1259937.13243  22676998.7124   22676999.3104
      -536.7344
 -11273328.07249  -8768499.68847  20164529.3844   20164527.6854
      2785.7344
    460650.68449    357334.03047  20278824.0564   20278821.6814
      -920.0314
  -9991736.16048  -7769526.39246  21677687.7984   21677684.9544
      1876.9224
  -6811372.08249  -5300746.80447  19901541.0634   19901539.1424
      1629.5474
  -7491452.14747  -5832959.84643  22507183.7824   22507181.4664
      1930.2814
 -11258640.11848  -8768886.17645  21860051.9464   21860050.5794
      4057.4064
 04  9 14 21 58 59.9970000  0  7G 3G 8G13G19G27G10G28
  -1613876.73948  -1253620.45843  22678541.2674   22678542.0524
      -544.3914
 -11315095.75649  -8801045.93347  20156581.2204   20156579.5674
      2783.0474
    474497.44449    368123.68147  20281458.8534   20281456.7674
      -926.4064
 -10019830.47249  -7791418.05446  21672341.3294   21672338.2394
      1868.7504
  -6835800.36149  -5319781.84147  19896892.7744   19896890.7714
      1627.3444
  -7520343.27247  -5855472.39743  22501684.9624   22501683.8254
      1921.5314
 -11319476.08148  -8816290.80145  21848475.3994   21848473.2164
      4053.7664
 04  9 14 21 59 14.9970000  0  7G 3G 8G13G19G27G10G28
  -1605650.22748  -1247210.21043  22680106.6964   22680107.5174
      -552.1564
 -11356815.89849  -8833555.12647  20148641.8454   20148640.4314
      2780.0634
    488446.99749    378993.44147  20284113.5954   20284111.1264
      -933.0474
 -10047794.55449  -7813208.24746  21667020.0794   21667016.9234
      1860.2034
  -6860187.41449  -5338784.74547  19892251.9154   19892249.9934
      1624.6724
  -7549097.07248  -5877877.93344  22496214.3064   22496214.1734
      1912.5474
 -11380249.99748  -8863647.07845  21836910.2204   21836908.8174
      4049.7974
 04  9 14 21 59 29.9970000  0  7G 3G 8G13G19G27G10G28
  -1597309.75748  -1240711.17043  22681694.5954   22681695.1144
      -560.1414
 -11398494.36149  -8866031.84947  20140710.9234   20140709.4544
      2776.7814
    502493.35949    389938.63747  20286786.4384   20286784.3884
      -939.9374
 -10075634.29848  -7834901.54346  21661722.9154   21661719.1734
      1851.4694
  -6884539.10249  -5357760.07847  19887618.2124   19887616.0244
      1621.8914
  -7577719.49648  -5900181.12743  22490767.4154   22490765.9034
      1903.4534
 -11440967.62348  -8910959.48045  21825356.4624   21825354.6224
      4045.6094
 04  9 14 21 59 44.9970000  0  7G 3G 8G13G19G27G10G28
  -1588852.56548  -1234121.16443  22683303.7674   22683304.4664
      -567.4064
 -11440127.87949  -8898473.54247  20132788.3604   20132786.6424
      2774.3594
    516639.52449    400961.61647  20289478.3214   20289476.3214
      -946.0944
 -10103346.33548  -7856495.32446  21656448.7514   21656446.0444
      1843.5164
  -6908852.18749  -5376705.33747  19882991.2594   19882989.5174
      1619.8594
  -7606207.40447  -5922379.48843  22485345.9854   22485344.0754
      1894.9844
 -11501625.70548  -8958225.51745  21813813.4234   21813811.4114
      4042.1724
 04  9 14 21 59 59.9970000  0  7G 3G 8G13G19G27G10G28
  -1580285.87148  -1227445.84543  22684933.9154   22684934.4854
      -574.7504
 -11481723.30749  -8930885.55847  20124872.8764   20124871.7784
      2771.7344
    530878.29649    412056.74747  20292187.8994   20292186.3334
      -952.3594
 -10130937.56748  -7877994.98745  21651198.8764   21651195.6304
      1835.3284
  -6933133.81449  -5395626.09747  19878370.9074   19878369.0484
      1617.7034
  -7634567.78846  -5944478.48144  22479949.1964   22479949.4274
      1886.5474
 -11562231.22148  -9005450.56145  21802280.6964   21802278.8764
      4038.5474
 04  9 14 22  0 14.9970000  0  7G 3G 8G13G19G27G10G28
  -1571604.83248  -1220681.42143  22686586.3534   22686586.3024
      -582.5624
 -11523275.64449  -8963263.99847  20116965.7824   20116964.0634
      2768.7504
    545214.52449    423227.80947  20294916.3214   20294914.4894
      -958.9694
 -10158402.86648  -7899396.52046  21645972.0484   21645969.2284
      1826.8754
  -6957378.77549  -5414518.27147  19873756.7354   19873754.5244
      1615.1414
  -7662795.56247  -5966474.16243  22474577.3924   22474577.3294
      1877.3754
 -11622778.99048  -9052630.61245  21790758.6034   21790756.4234
      4034.6254
 04  9 14 22  0 29.9970000  0  7G 3G 8G13G19G27G10G28
  -1562811.12348  -1213829.17943  22688259.2594   22688259.5564
      -590.0474
 -11564786.40349  -8995610.04547  20109066.3924   20109064.9114
      2766.0004
    559646.58649    434473.55447  20297662.6344   20297660.2864
      -965.3124
 -10185743.48548  -7920700.89846  21640769.6264   21640766.7284
      1818.5474
  -6981588.52049  -5433383.01247  19869150.0244   19869147.8884
      1612.8134
  -7690892.12747  -5988367.59143  22469230.3294   22469229.3374
      1868.6724
 -11683270.33248  -9099766.71145  21779247.6184   21779245.9194
      4030.9064
 04  9 14 22  0 44.9970000  0  7G 3G 8G13G19G27G10G28
  -1553904.06848  -1206888.61743  22689954.5874   22689954.1654
      -597.4374
 -11606254.46149  -9027922.81548  20101175.3454   20101174.0754
      2763.2344
    574175.17549    445794.50247  20300426.9544   20300424.7514
      -971.6254
 -10212958.49248  -7941907.38446  21635590.2904   21635587.4314
      1810.2034
  -7005762.01649  -5452219.49947  19864549.7434   19864548.1184
      1610.5634
  -7718856.62848  -6010158.10243  22463909.8454   22463908.4974
      1860.0004
 -11743704.24148  -9146858.03345  21767746.7744   21767745.5284
      4027.1564
 04  9 14 22  0 59.9970000  0  7G 3G 8G13G19G27G10G28
  -1544881.31248  -1199857.91943  22691671.1964   22691671.6614
      -605.2504
 -11647677.41649  -9060200.42247  20093292.8924   20093291.4624
      2760.1254
    588802.84149    457192.67947  20303210.5324   20303208.3134
      -978.4064
 -10240045.14348  -7963013.84046  21630436.1104   21630433.2864
      1801.5474
  -7029896.72049  -5471025.75847  19859957.4934   19859955.4584
      1607.7194
  -7746686.49348  -6031843.68944  22458613.9704   22458613.1814
      1850.9224
 -11804077.99648  -9193902.48345  21756258.5484   21756257.2044
      4023.0474
 04  9 14 22  1 14.9970000  0  7G 3G 8G13G19G27G10G28
  -1535743.51348  -1192737.56043  22693410.7904   22693410.5324
      -612.7034
 -11689055.30649  -9092442.93248  20085419.1104   20085417.4894
      2757.3284
    603529.00949    468667.58547  20306013.0634   20306010.4894
      -984.7194
 -10267003.67548  -7984020.49946  21625306.1264   21625303.3924
      1793.2814
  -7053992.98349  -5489802.07447  19855371.8994   19855370.1494
      1605.4694
  -7774381.96348  -6053424.59643  22453343.3764   22453342.4194
      1842.2504
 -11864391.88748  -9240900.30445  21744781.5094   21744779.3494
      4019.2664
 04  9 14 22  1 29.9970000  0  7G 3G 8G13G19G27G10G28
  -1526494.83348  -1185530.81343  22695170.0714   22695170.3454
      -620.0624
 -11730392.08249  -9124653.40247  20077552.5714   20077551.1464
      2754.5944
    618349.62349    480216.10347  20308833.5634   20308831.1224
      -990.9694
 -10293837.75248  -8004930.16546  21620199.4384   21620196.2474
      1785.0004
  -7078054.57749  -5508551.37447  19850793.2904   19850790.9274
      1603.1094
  -7801946.91147  -6074903.77843  22448098.2674   22448097.7044
      1833.5314
 -11924649.41248  -9287854.19545  21733313.7744   21733312.6924
      4015.5474
 04  9 14 22  1 44.9970000  0  7G 3G 8G13G19G27G10G28
  -1517133.93748  -1178236.63243  22696951.4854   22696951.9584
      -628.0004
 -11771686.35549  -9156830.75947  20069695.2674   20069693.1424
      2751.3134
    633265.98949    491839.22147  20311671.8844   20311669.7124
      -997.8444
 -10320545.92448  -8025741.72845  21615116.8844   21615113.8414
      1776.1564
  -7102079.88949  -5527272.40647  19846221.3134   19846219.1144
      1600.2504
  -7829379.88748  -6096280.11644  22442877.9624   22442877.6734
      1824.2814
 -11984849.22248  -9334763.11645  21721858.9314   21721857.1814
      4011.2194
 04  9 14 22  1 59.9970000  0  7G 3G 8G13G19G27G10G28
  -1507657.21348  -1170852.18643  22698754.7284   22698755.1264
      -635.5314
 -11812934.12449  -9188971.86248  20061845.5484   20061844.0674
      2748.4384
    648281.89749    503539.90647  20314529.0954   20314526.8884
     -1004.2194
 -10347124.19348  -8046452.06446  21610059.5954   21610056.5634
      1767.6414
  -7126065.04249  -5545962.12647  19841656.8924   19841655.1104
      1597.8134
  -7856676.92247  -6117550.53443  22437683.7354   22437682.3884
      1815.3594
 -12044987.20948  -9381623.84245  21710414.6264   21710413.4504
      4007.2974
 04  9 14 22  2 14.9970000  0  7G 3G 8G13G19G27G10G28
  -1498068.25948  -1163380.29443  22700579.8604   22700579.2124
      -642.4694
 -11854138.60549  -9221079.24947  20054004.5324   20054002.9544
      2746.0784
    663393.61149    515315.25647  20317404.9234   20317402.7244
     -1010.0944
 -10373575.93648  -8067063.79746  21605025.6814   21605023.0634
      1759.8134
  -7150013.56349  -5564623.31847  19837100.2044   19837097.9814
      1595.8754
  -7883841.57448  -6138717.80444  22432514.0014   22432513.5484
      1807.0634
 -12105066.69448  -9428439.00745  21698981.9314   21698980.3174
      4003.9534
 04  9 14 22  2 29.9970000  0  7G 3G 8G13G19G27G10G28
  -1488370.95448  -1155823.97143  22702424.7044   22702425.2784
      -650.0474
 -11895303.59549  -9253155.86047  20046171.3764   20046169.6264
      2743.0784
    678597.48449    527162.40047  20320298.2124   20320296.0914
     -1016.6254
 -10399904.59848  -8087579.63746  21600016.0094   21600012.7164
      1751.1564
  -7173928.83049  -5583258.59747  19832548.7904   19832547.1144
      1593.2504
  -7910877.47547  -6159784.73743  22427369.7594   22427369.0524
      1798.1884
 -12165091.36248  -9475211.43945  21687559.2904   21687558.0364
      3999.8914
 04  9 14 22  2 44.9970000  0  7G 3G 8G13G19G27G10G28
  -1478566.40348  -1148184.05543  22704290.4854   22704291.0214
      -657.2974
 -11936429.62449  -9285202.11048  20038345.1184   20038343.5244
      2740.4224
    693892.49249    539080.56547  20323208.7674   20323206.3254
     -1022.7814
 -10426110.79548  -8108000.04745  21595028.3604   21595025.7474
      1742.9694
  -7197811.74849  -5601868.66047  19828004.0484   19828002.2434
      1591.0634
  -7937785.40947  -6180751.95243  22422249.3604   22422247.7124
      1789.5944
 -12225061.71148  -9521941.55545  21676147.6654   21676145.5484
      3996.2194
 04  9 14 22  2 59.9970000  0  7G 3G 8G13G19G27G10G28
  -1468646.62148  -1140454.37643  22706178.2514   22706178.7474
      -665.0474
 -11977508.54649  -9317211.65748  20030528.1184   20030526.3294
      2737.0944
    709286.65049    551075.99847  20326138.3534   20326136.2394
     -1029.4534
 -10452186.29448  -8128318.61546  21590067.2044   21590063.5174
      1734.1254
  -7221654.00549  -5620447.05147  19823467.0874   19823465.2164
      1588.2344
  -7964557.17347  -6201613.06843  22417154.6184   22417154.1464
      1780.2194
 -12284969.49548  -9568622.93145  21664747.4314   21664746.2514
      3991.8914
 04  9 14 22  3 14.9970000  0  7G 3G 8G13G19G27G10G28
  -1458612.37148  -1132635.49643  22708087.3374   22708087.6814
      -672.6094
 -12018540.72149  -9349184.76747  20022719.5794   20022717.7634
      2734.0314
    724779.30749    563148.17747  20329086.4384   20329084.1694
     -1035.9534
 -10478131.44348  -8148535.60646  21585129.7514   21585126.1774
      1725.5314
  -7245456.00649  -5638994.05847  19818937.7434   19818935.5054
      1585.6094
  -7991193.17748  -6222368.39244  22412085.5174   22412085.5364
      1771.3284
 -12344815.06048  -9615255.80945  21653359.1494   21653357.8134
      3987.7814
 04  9 14 22  3 29.9970000  0  7G 3G 8G13G19G27G10G28
  -1448467.27148  -1124730.23243  22710018.6184   22710018.6534
      -680.0624
 -12059529.76249  -9381124.27747  20014919.9934   20014918.5244
      2731.1254
    740366.87949    575294.31047  20332052.7204   20332050.8564
     -1042.3754
 -10503949.64648  -8168653.68045  21580216.5874   21580213.6814
      1716.9384
  -7269221.21149  -5657512.41047  19814415.6654   19814413.5524
      1583.0634
  -8017696.81247  -6243020.59543  22407042.4704   22407041.3884
      1762.3914
 -12404601.67148  -9661842.75945  21641982.5324   21641980.9114
      3983.7344
 04  9 14 22  3 44.9970000  0  7G 3G 8G13G19G27G10G28
  -1438212.28148  -1116739.36343  22711970.0244   22711970.1264
      -687.1254
 -12100476.11249  -9413030.51248  20007127.9154   20007126.2394
      2728.5944
    756048.58249    587513.80847  20335036.5634   20335034.6304
     -1048.3444
 -10529641.45848  -8188673.27245  21575328.0794   21575324.9274
      1708.8754
  -7292950.13549  -5676002.46747  19809899.5714   19809898.2084
      1580.9534
  -8044068.74146  -6263570.12943  22402023.7124   22402023.2314
      1754.0314
 -12464329.91348  -9708384.20445  21630616.7984   21630614.8724
      3980.2034
 04  9 14 22  3 59.9970000  0  7G 3G 8G13G19G27G10G28
  -1427846.04848  -1108661.77843  22713942.1264   22713942.0794
      -694.9694
 -12141378.08949  -9444902.18147  19999344.9624   19999343.2244
      2725.1254
    771825.88749    599807.79247  20338038.9544   20338036.8724
     -1055.2194
 -10555205.02948  -8208592.93346  21570462.9314   21570460.3534
      1699.7974
  -7316641.13349  -5694462.99247  19805391.5714   19805389.1964
      1577.9844
  -8070307.34048  -6284015.77943  22397030.6264   22397029.9544
      1744.6724
 -12523998.03248  -9754878.83345  21619262.0954   21619260.1224
      3975.6724
 04  9 14 22  4 14.9970000  0  7G 3G 8G13G19G27G10G28
  -1417368.34048  -1100497.35243  22715936.3064   22715936.1654
      -702.1564
 -12182235.20449  -9476738.89448  19991570.0874   19991568.5174
      2722.3754
    787698.94349    612176.38247  20341059.6104   20341057.5714
     -1061.2974
 -10580640.00648  -8228412.39446  21565622.2514   21565620.0994
      1691.4384
  -7340293.85049  -5712893.68347  19800890.5874   19800888.9664
      1575.6564
  -8096412.28147  -6304357.28443  22392063.3064   22392062.3334
      1735.9844
 -12583605.53648  -9801326.20245  21607918.6574   21607916.7744
      3971.9534
 04  9 14 22  4 29.9970000  0  7G 3G 8G13G19G27G10G28
  -1406781.55648  -1092247.90943  22717950.9854   22717950.6344
      -709.2664
 -12223049.61749  -9508542.32548  19983803.3844   19983801.7744
      2719.5944
    803665.34049    624617.70847  20344098.1424   20344095.6884
     -1067.4064
 -10605948.50048  -8248133.31046  21560806.6264   21560803.8764
      1683.1414
  -7363910.37449  -5731296.16547  19796396.5014   19796394.5634
      1573.3284
  -8122385.77447  -6324596.37043  22387120.4154   22387119.9074
      1727.2664
 -12643154.50148  -9847727.97645  21596587.2284   21596585.9074
      3968.1094
 04  9 14 22  4 44.9970000  0  7G 3G 8G13G19G27G10G28
  -1396084.91848  -1083912.86943  22719986.4784   22719986.3844
      -717.1094
 -12263820.46449  -9540311.80748  19976044.8214   19976043.5444
      2716.2504
    819726.11449    637132.58047  20347154.4384   20347152.0484
     -1074.1724
 -10631129.25148  -8267754.65945  21556014.7354   21556011.9314
      1674.0944
  -7387489.56049  -5749669.56047  19791909.3844   19791907.4894
      1570.3914
  -8148226.71647  -6344732.17343  22382203.8604   22382202.7744
      1717.9224
 -12702643.72348  -9894083.18445  21585266.7984   21585264.9114
      3963.5634
 04  9 14 22  4 59.9970000  0  7G 3G 8G13G19G27G10G28
  -1385275.33048  -1075489.83243  22722043.5484   22722043.1694
      -724.1414
 -12304543.86949  -9572044.32048  19968295.5244   19968293.6964
      2713.5634
    835884.45449    649723.47647  20350229.1494   20350227.2864
     -1080.2814
 -10656178.75048  -8287273.74946  21551248.3604   21551245.6494
      1665.8134
  -7411027.93649  -5768011.15547  19787430.4384   19787428.0914
      1568.1094
  -8173931.81047  -6364762.10643  22377311.2124   22377310.4704
      1709.3914
 -12762069.61248  -9940389.05145  21573958.5634   21573956.1464
      3959.8284
 04  9 14 22  5 14.9970000  0  7G 3G 8G13G19G27G10G28
  -1374357.91948  -1066982.77243  22724120.4624   22724121.1144
      -731.1254
 -12345224.78249  -9603743.72547  19960553.9384   19960552.1304
      2711.0004
    852135.28449    662386.44047  20353321.7594   20353319.6344
     -1086.0784
 -10681101.82248  -8306694.32346  21546505.0564   21546502.3454
      1657.6564
  -7434530.27049  -5786324.65647  19782957.9234   19782956.1964
      1565.9384
  -8199505.84947  -6384689.93543  22372445.3924   22372444.1144
      1700.8594
 -12821437.02048  -9986649.34245  21562661.2284   21562659.3684
      3956.2814
 04  9 14 22  5 29.9970000  0  7G 3G 8G13G19G27G10G28
  -1363333.74348  -1058392.52343  22726218.6574   22726218.5914
      -738.2814
 -12385864.08849  -9635410.70847  19952820.3214   19952818.8174
      2708.1254
    868477.58149    675120.67147  20356431.1574   20356429.3254
     -1092.3444
 -10705899.12748  -8326016.90046  21541787.3684   21541783.5794
      1649.2034
  -7457997.40749  -5804610.73647  19778492.4934   19778490.4624
      1563.4844
  -8224949.62647  -6404516.24243  22367603.1104   22367602.7744
      1692.0004
 -12880746.62048 -10032864.59845  21551374.8064   21551373.3684
      3952.2034
 04  9 14 22  5 44.9970000  0  7G 3G 8G13G19G27G10G28
  -1352207.13648  -1049722.45943  22728336.6814   22728336.2514
      -745.2974
 -12426465.94149  -9667048.51547  19945094.2594   19945092.2084
      2705.4384
    884906.89549    687922.70747  20359557.2514   20359555.7354
     -1098.2194
 -10730574.89748  -8345244.76646  21537091.1344   21537088.1654
      1640.9384
  -7481433.62849  -5822872.72647  19774032.3134   19774030.6814
      1561.3134
  -8250267.52747  -6424244.48443  22362785.6034   22362784.3604
      1683.5634
 -12940002.54748 -10079038.01145  21540098.4464   21540097.1694
      3948.4844
 04  9 14 22  5 59.9970000  0  7G 3G 8G13G19G27G10G28
  -1340973.77848  -1040969.22943  22730474.4464   22730474.1064
      -752.6874
 -12467025.51349  -9698653.36648  19937376.0714   19937374.2554
      2702.3754
    901427.83349    700796.15547  20362701.4464   20362699.8644
     -1104.6564
 -10755124.26648  -8364374.14146  21532419.5014   21532416.6104
      1632.2814
  -7504834.03049  -5841106.80747  19769579.5484   19769577.6424
      1558.6414
  -8275454.72148  -6443870.86143  22357992.8534   22357991.8804
      1674.5944
 -12999199.86448 -10125165.76945  21528833.9934   21528832.3334
      3944.3754
 04  9 14 22  6 14.9970000  0  7G 3G 8G13G19G27G10G28
  -1329636.78448  -1032135.20143  22732630.7284   22732631.9974
      -759.3444
 -12507545.42449  -9730227.32548  19929665.3684   19929663.3724
      2700.0004
    918037.48249    713738.71447  20365862.3534   20365860.3564
     -1110.3594
 -10779549.92748  -8383407.12246  21527771.2594   21527768.4934
      1624.1254
  -7528201.36249  -5859315.12347  19765133.0634   19765131.0324
      1556.5944
  -8300514.02247  -6463397.57743  22353224.3064   22353223.4234
      1666.2974
 -13058341.47448 -10171250.13545  21517579.8454   21517578.0404
      3940.8594
 04  9 14 22  6 29.9970000  0  7G 3G 8G13G19G27G10G28
  -1318193.53048  -1023218.41843  22734808.6034   22734809.1384
      -766.3444
 -12548023.26649  -9761768.48648  19921962.8994   19921961.0914
      2697.2344
    934738.18849    726752.23047  20369040.3994   20369038.7314
     -1116.3284
 -10803849.20948  -8402341.62146  21523147.6034   21523144.3414
      1615.8134
  -7551532.96148  -5877495.58447  19760693.2044   19760691.3994
      1554.3594
  -8325442.86047  -6482822.65243  22348480.1884   22348478.7864
      1657.7034
 -13117424.55648 -10217288.85845  21506336.7284   21506334.3684
      3937.0164
 04  9 14 22  6 44.9970000  0  7G 3G 8G13G19G27G10G28
  -1306643.67447  -1014218.54843  22737006.1034   22737007.1384
      -773.3594
 -12588458.21949  -9793276.25048  19914268.2044   19914266.0794
      2694.4844
    951530.62149    739837.21347  20372235.7284   20372233.9814
     -1122.2974
 -10828021.22148  -8421176.96446  21518547.7514   21518545.0714
      1607.5314
  -7574827.98949  -5895647.56647  19756260.4314   19756258.3924
      1552.0474
  -8350240.39647  -6502145.41443  22343761.0874   22343760.5874
      1649.0314
 -13176448.19548 -10263281.29245  21495104.7204   21495102.7044
      3933.1884
 04  9 14 22  6 59.9970000  0  7G 3G 8G13G19G27G10G28
  -1294990.80548  -1005138.36043  22739224.0794   22739223.9584
      -780.4064
 -12628853.33449  -9824752.95148  19906581.1654   19906579.0714
      2691.5004
    968411.27349    752990.95147  20375448.3924   20375446.1184
     -1128.4844
 -10852069.25848  -8439915.69146  21513971.6814   21513968.3684
      1598.9064
  -7598089.68048  -5913773.55947  19751833.6884   19751831.9704
      1549.5474
  -8374910.03348  -6521368.48143  22339066.9074   22339066.5874
      1640.2034
 -13235415.60948 -10309229.89645  21483883.0014   21483882.2434
      3929.1724
 04  9 14 22  7 14.9970000  0  7G 3G 8G13G19G27G10G28
  -1283233.05348   -995976.49842  22741461.6344   22741461.7744
      -787.3594
 -12669206.68749  -9856197.12548  19898902.0954   19898900.4784
      2688.8594
    985381.94449    766214.83447  20378677.6264   20378675.5794
     -1134.4064
 -10875991.22748  -8458556.18746  21509419.3994   21509416.3174
      1590.5164
  -7621316.06949  -5931872.04347  19747413.9234   19747412.0484
      1547.2194
  -8399449.75347  -6540490.36643  22334397.2044   22334396.0484
      1631.5474
 -13294324.69348 -10355133.05245  21472673.3994   21472671.2674
      3925.3284
 04  9 14 22  7 29.9970000  0  7G 3G 8G13G19G27G10G28
  -1271375.74748   -986737.04543  22743717.5014   22743717.7354
      -793.9374
 -12709523.10749  -9887612.50748  19891230.2284   19891228.4854
      2686.4534
   1002437.47649    779504.83447  20381923.1654   20381921.4114
     -1139.9534
 -10899791.87648  -8477102.15046  21504890.5484   21504887.5094
      1582.5944
  -7644511.98249  -5949946.78847  19743000.1424   19742998.1574
      1545.3284
  -8423864.64348  -6559514.93943  22329751.0634   22329749.9194
      1623.3914
 -13353180.19048 -10400994.45645  21461473.1264   21461472.0134
      3921.7974
 04  9 14 22  7 44.9970000  0  7G 3G 8G13G19G27G10G28
  -1259417.68248   -977419.08843  22745993.7674   22745993.8764
      -800.3124
 -12749800.94149  -9918997.82048  19883565.5564   19883563.6734
      2684.1724
   1019579.19949    792862.00347  20385185.1734   20385183.3684
     -1145.3754
 -10923469.70749  -8495552.39646  21500384.5794   21500381.6654
      1574.6884
  -7667675.86749  -5967996.56047  19738591.9544   19738589.7864
      1543.4534
  -8448153.19747  -6578441.09043  22325129.0324   22325128.5054
      1615.3284
 -13411980.59948 -10446812.92745  21450284.1884   21450282.4074
      3918.4844
 04  9 14 22  7 59.9970000  0  7G 3G 8G13G19G27G10G28
  -1247356.68248   -968020.92742  22748288.0484   22748289.0714
      -807.6254
 -12790037.86449  -9950351.25848  19875908.7044   19875906.5714
      2681.0004
   1036809.23249    806287.97947  20388463.8684   20388461.8414
     -1151.7034
 -10947022.34449  -8513905.10946  21495902.5794   21495899.4464
      1565.9534
  -7690805.38049  -5986019.55547  19734190.7514   19734188.3334
      1540.8134
  -8472313.08647  -6597266.96943  22320531.4464   22320530.8844
      1606.2814
 -13470723.48048 -10492586.58145  21439105.3294   21439104.0794
      3914.2034
 04  9 14 22  8 14.9970000  0  7G 3G 8G13G19G27G10G28
  -1235191.21448   -958541.38042  22750603.6734   22750603.9784
      -814.4534
 -12830231.91149  -9981671.28648  19868260.2904   19868258.6184
      2678.2974
   1054129.22549    819784.05847  20391759.7124   20391758.2164
     -1157.5624
 -10970447.94448  -8532158.80945  21491444.9384   21491442.0564
      1557.5784
  -7713898.60049  -6004014.27647  19729796.2904   19729793.6734
      1538.4224
  -8496342.48047  -6615991.15943  22315958.7124   22315957.9974
      1597.7034
 -13529406.89948 -10538313.88145  21427938.5484   21427937.5014
      3910.3284
 04  9 14 22  8 29.9970000  0  7G 3G 8G13G19G27G10G28
  -1222922.58848   -948981.42143  22752937.9624   22752938.9744
      -820.8444
 -12870384.46949 -10012958.99348  19860619.2044   19860617.4744
      2675.9534
   1071538.11949    833349.40947  20395073.0874   20395070.7634
     -1163.0164
 -10993747.32248  -8550314.16646  21487010.9544   21487008.0754
      1549.5634
  -7736956.48849  -6021981.46047  19725408.2044   19725406.2204
      1536.5164
  -8520242.32546  -6634614.41943  22311410.9384   22311410.2164
      1589.5164
 -13588031.57148 -10583995.41745  21416782.7594   21416780.5404
      3906.8444
 04  9 14 22  8 44.9970000  0  7G 3G 8G13G19G27G10G28
  -1210551.89348   -939341.94043  22755292.5324   22755293.0874
      -828.5624
 -12910495.93649 -10044214.68548  19852986.2124   19852985.0284
      2672.2344
   1089034.72049    846983.09347  20398402.0954   20398400.6814
     -1169.8444
 -11016921.27348  -8568371.79746  21482601.7824   21482598.1264
      1540.2504
  -7759979.88249  -6039921.77647  19721027.2514   19721025.2284
      1533.2974
  -8544013.68846  -6653137.54743  22306887.1264   22306886.8064
      1580.0784
 -13646598.43548 -10629631.92245  21405637.3684   21405635.9704
      3902.0634
 04  9 14 22  8 59.9970000  0  7G 3G 8G13G19G27G10G28
  -1198073.22248   -929618.29043  22757667.3454   22757667.2044
      -835.4224
 -12950559.76849 -10075433.24248  19845362.5324   19845360.5444
      2669.4384
   1106625.01649    860689.79947  20401749.6494   20401747.7314
     -1175.7814
 -11039963.47648  -8586326.73246  21478216.8844   21478214.0914
      1531.8444
  -7782962.41449  -6057830.23647  19716653.6814   19716651.7314
      1530.8754
  -8567650.34746  -6671555.72543  22302389.7594   22302389.2124
      1571.2974
 -13705101.08349 -10675218.36545  21394504.8294   21394503.2634
      3898.0944
 04  9 14 22  9 14.9970000  0  7G 3G 8G13G19G27G10G28
  -1185490.62248   -919813.71343  22760061.6734   22760062.5284
      -842.2974
 -12990580.25549 -10106618.03948  19837746.9154   19837745.0364
      2666.5784
   1124305.08149    874466.45347  20405113.6574   20405112.2904
     -1181.6564
 -11062877.82549  -8604182.06846  21473856.0634   21473853.0014
      1523.3754
  -7805907.96849  -6075709.89647  19712287.5634   19712285.4464
      1528.4694
  -8591156.21647  -6689871.98443  22297915.6424   22297915.2244
      1562.7194
 -13763543.32948 -10720757.75645  21383384.5484   21383381.9854
      3894.1414
 04  9 14 22  9 29.9970000  0  7G 3G 8G13G19G27G10G28
  -1172803.90748   -909927.98143  22762475.8604   22762476.2474
      -849.2344
 -13030556.75649 -10137768.54348  19830139.6884   19830137.7594
      2663.6564
   1142075.23249    888313.29747  20408495.4854   20408493.4464
     -1187.6724
 -11085663.76649  -8621937.34546  21469519.6344   21469517.2554
      1514.7504
  -7828816.10149  -6093560.38447  19707928.1104   19707926.1614
      1525.9384
  -8614530.76048  -6708085.91843  22293468.4384   22293468.2744
      1553.9064
 -13821924.58249 -10766249.61545  21372274.2354   21372272.3804
      3890.0474
 04  9 14 22  9 44.9970000  0  7G 3G 8G13G19G27G10G28
  -1160019.17148   -899965.90443  22764908.4704   22764908.5674
      -855.5474
 -13070494.90549 -10168889.17648  19822539.4934   19822537.5674
      2661.2974
   1159929.51149    902225.69647  20411893.0634   20411891.1884
     -1193.0944
 -11108326.94049  -8639596.96146  21465207.2984   21465204.5754
      1506.7974
  -7851692.37049  -6111386.04647  19703574.8924   19703572.7314
      1524.0634
  -8637779.85048  -6726202.09343  22289044.1884   22289043.8604
      1545.7504
 -13880250.51248 -10811698.37345  21361174.9074   21361172.6224
      3886.5784
 04  9 14 22  9 59.9970000  0  7G 3G 8G13G19G27G10G28
  -1147132.61548   -889924.42543  22767360.7904   22767361.1964
      -862.5784
 -13110390.77449 -10199976.85848  19814947.3604   19814946.2394
      2658.2194
   1177871.62749    916206.54847  20415307.2514   20415305.4624
     -1199.1414
 -11130863.24349  -8657157.69545  21460918.3134   21460915.5564
      1498.0784
  -7874532.70349  -6129183.69647  19699228.3454   19699226.4814
      1521.4064
  -8660899.50848  -6744217.38443  22284644.5484   22284644.1534
      1536.9064
 -13938516.96348 -10857100.77745  21350087.1964   21350085.0214
      3882.3134
 04  9 14 22 10 14.9970000  0  7G 3G 8G13G19G27G10G28
  -1134142.53748   -879802.31643  22769832.3684   22769833.2314
      -869.4064
 -13150242.36849 -10231030.04748  19807364.5014   19807363.1144
      2655.3134
   1195903.45649    930257.30247  20418738.8534   20418736.8604
     -1205.0784
 -11153270.76748  -8674618.10945  21456654.9544   21456652.0564
      1489.5474
  -7897335.13749  -6146951.83147  19694889.3214   19694887.5094
      1519.0164
  -8683887.85548  -6762130.39343  22280270.4074   22280269.4704
      1528.2344
 -13996721.93049 -10902455.27845  21339011.9154   21339008.9854
      3878.3754
 04  9 14 22 10 29.9970000  0  7G 3G 8G13G19G27G10G28
  -1121045.09348   -869596.53143  22772324.4234   22772325.6304
      -876.3754
 -13190045.34149 -10262045.32948  19799790.1424   19799788.3294
      2652.2344
   1214028.77849    944380.91347  20422187.5714   20422185.8924
     -1211.1414
 -11175545.25249  -8691974.83146  21452415.9784   21452413.4974
      1480.8284
  -7920095.43749  -6164687.12247  19690557.9784   19690556.2554
      1516.2664
  -8706740.77548  -6779937.87043  22275921.9544   22275921.2554
      1519.3594
 -14054861.20649 -10947758.57545  21327948.2124   21327946.1854
      3874.0784
 04  9 14 22 10 44.9970000  0  7G 3G 8G13G19G27G10G28
  -1107837.28248   -859304.74043  22774838.7044   22774838.8374
      -884.2194
 -13229796.32149 -10293020.10947  19792225.3604   19792223.8964
      2648.3284
   1232250.96349    958579.99747  20425655.4464   20425653.9624
     -1218.0474
 -11197683.28548  -8709225.25046  21448203.9384   21448200.2084
      1471.2814
  -7942810.28049  -6182387.00547  19686235.7744   19686234.0284
      1512.8134
  -8729455.02848  -6797637.26743  22271598.9544   22271598.2824
      1509.6724
 -14112931.26849 -10993007.94645  21316897.8764   21316894.9274
      3869.0164
 04  9 14 22 10 59.9970000  0  7G 3G 8G13G19G27G10G28
  -1094524.45848   -848931.10843  22777372.0404   22777371.9584
      -891.5004
 -13269500.28549 -10323958.27348  19784670.3374   19784667.9584
      2644.8594
   1250564.56449    972850.30147  20429140.2044   20429138.7474
     -1224.4224
 -11219689.90848  -8726373.26946  21444016.2744   21444012.3644
      1462.2504
  -7965484.66348  -6200055.37847  19681921.0094   19681919.0714
      1509.7814
  -8752035.74648  -6815232.65443  22267302.4074   22267301.5564
      1500.5004
 -14170937.18849 -11038207.34645  21305859.6034   21305856.9624
      3864.4694
 04  9 14 22 11 14.9970000  0  7G 3G 8G13G19G27G10G28
  -1081103.29448   -838473.06443  22779925.7044   22779926.2674
      -898.1414
 -13309153.70249 -10354857.03048  19777124.2984   19777122.3994
      2642.1094
   1268972.88049    987194.42747  20432643.6264   20432641.7744
     -1230.1414
 -11241561.56848  -8743416.09946  21439853.0404   21439850.9854
      1453.8284
  -7988115.01149  -6217689.40947  19677614.2284   19677612.6774
      1507.5164
  -8774479.35548  -6832721.17743  22263030.6814   22263030.7044
      1492.0164
 -14228875.32349 -11083353.91646  21294834.0634   21294832.1264
      3860.5004
 04  9 14 22 11 29.9970000  0  7G 3G 8G13G19G27G10G28
  -1067579.52247   -827935.05443  22782498.4464   22782500.0954
      -904.8754
 -13348761.80949 -10385720.48548  19769587.2984   19769585.4274
      2639.0634
   1287470.29749   1001607.96947  20436163.2904   20436161.6574
     -1236.0004
 -11263303.58648  -8760357.92846  21435716.3684   21435713.6304
      1445.2194
  -8010706.66149  -6235293.28547  19673315.3534   19673313.4744
      1504.9384
  -8796791.39948  -6850107.19643  22258785.1654   22258784.3884
      1483.1254
 -14286750.91149 -11128451.75746  21283820.6884   21283818.3494
      3856.3134
 04  9 14 22 11 44.9970000  0  7G 3G 8G13G19G27G10G28
  -1053947.31448   -817312.60743  22785093.3604   22785094.2124
      -912.4064
 -13388318.61149 -10416543.95848  19762059.5714   19762057.9074
      2635.5164
   1306062.79249   1016095.61447  20439701.4854   20439699.2984
     -1242.5784
 -11284909.87548  -8777193.98746  21431604.6964   21431601.8604
      1435.9224
  -8033253.55449  -6252862.30147  19669024.6574   19669023.2124
      1501.7034
  -8818965.82648  -6867385.94843  22254566.1184   22254564.6184
      1473.7974
 -14344557.81649 -11173496.06846  21272820.3534   21272818.3294
      3851.5784
 04  9 14 22 11 59.9970000  0  7G 3G 8G13G19G27G10G28
  -1040207.16747   -806605.99143  22787708.1814   22787708.6424
      -919.6564
 -13427824.40049 -10447327.67948  19754542.0324   19754540.2004
      2632.0004
   1324749.95949   1030657.01147  20443257.7824   20443255.8334
     -1248.9694
 -11306380.53249  -8793924.36646  21427518.5324   21427515.7394
      1426.8444
  -8055755.77849  -6270396.50347  19664742.7044   19664741.2044
      1498.5944
  -8841002.88647  -6884557.67543  22250372.1344   22250371.2984
      1464.5164
 -14402296.16149 -11218486.97046  21261832.9784   21261831.2904
      3846.9384
 04  9 14 22 12 14.9960000  0  7G 3G 8G13G19G27G10G28
  -1026357.30047   -795813.91443  22790342.8014   22790344.2194
      -927.0624
 -13467273.31049 -10478067.08848  19747035.2854   19747033.5554
      2628.2504
   1343533.26749   1045293.34347  20446831.4414   20446830.3524
     -1255.5164
 -11327711.16649  -8810545.63146  21423460.0204   21423456.5944
      1417.5634
  -8078208.73949  -6287892.31347  19660470.1844   19660468.3444
      1495.4064
  -8862898.09447  -6901618.87243  22246205.6374   22246204.9494
      1455.1564
 -14459959.01749 -11263419.03846  21250860.4024   21250858.2974
      3842.1094
 04  9 14 22 12 29.9960000  0  7G 3G 8G13G19G27G10G28
  -1012397.47648   -784936.16743  22792999.9494   22793000.6844
      -934.1724
 -13506671.73349 -10508767.15548  19739537.8714   19739536.0944
      2624.8754
   1362413.75449   1060005.37647  20450424.4964   20450422.8324
     -1261.7974
 -11348905.85649  -8827060.97046  21419426.9884   21419423.7034
      1408.5004
  -8100616.73549  -6305353.09447  19656206.2704   19656204.7154
      1492.4694
  -8884655.83946  -6918572.96743  22242064.8014   22242064.3054
      1445.9064
 -14517555.24549 -11308299.19546  21239900.0824   21239898.0664
      3837.5004
 04  9 14 22 12 44.9960000  0  7G 3G 8G13G19G27G10G28
   -998332.42747   -773976.38043  22795675.9884   22795677.6024
      -941.3914
 -13546020.84249 -10539428.78548  19732050.1374   19732048.2544
      2621.3444
   1381386.41849   1074789.24647  20454034.9964   20454033.1374
     -1268.1094
 -11369966.78149  -8843472.06146  21415419.0274   21415415.6684
      1399.3444
  -8122981.79549  -6322780.41747  19651950.1684   19651948.4844
      1489.2664
  -8906278.24046  -6935421.60843  22237950.0514   22237949.7774
      1436.7974
 -14575084.50749 -11353127.17145  21228952.3094   21228950.2664
      3832.8134
 04  9 14 22 12 59.9960000  0  7G 3G 8G13G19G27G10G28
   -984156.95248   -762930.58143  22798374.2854   22798375.1174
      -948.5004
 -13585314.96949 -10570047.57148  19724572.4024   19724571.4264
      2617.9694
   1400456.43449   1089648.97747  20457663.8634   20457662.3794
     -1274.3914
 -11390888.35248  -8859774.58646  21411437.8014   21411434.3754
      1390.3134
  -8145298.42649  -6340169.99147  19647703.5274   19647701.4184
      1486.4064
  -8927759.89447  -6952160.56943  22233862.6454   22233861.8364
      1427.6884
 -14632541.34849 -11397898.70046  21218018.7154   21218016.7934
      3828.2974
 04  9 14 22 13 14.9960000  0  7G 3G 8G13G19G27G10G28
   -969876.80848   -751803.22343  22801091.5744   22801092.2384
      -955.7034
 -13624559.48349 -10600627.70848  19717104.4884   19717103.1294
      2614.4534
   1419618.17749   1104580.18247  20461310.2464   20461308.9734
     -1280.6564
 -11411676.01148  -8875972.75146  21407481.8324   21407478.5944
      1381.2194
  -8167572.00549  -6357526.02547  19643465.0044   19643462.9654
      1483.3284
  -8949106.44646  -6968794.19843  22229799.9184   22229799.7114
      1418.4064
 -14689931.04649 -11442617.91445  21207098.0904   21207095.5594
      3823.5314
 04  9 14 22 13 29.9960000  0  7G 3G 8G13G19G27G10G28
   -955490.74948   -740593.33443  22803829.3404   22803829.5474
      -962.4374
 -13663752.82449 -10631167.96548  19709646.1764   19709644.8564
      2611.3284
   1438872.92549   1119583.86047  20464974.5594   20464973.0394
     -1286.5474
 -11432328.20048  -8892065.34346  21403551.9884   21403548.8954
      1372.4534
  -8189800.94149  -6374847.28047  19639235.0824   19639232.5864
      1480.6094
  -8970316.31847  -6985321.37943  22225765.0664   22225763.8564
      1409.6094
 -14747252.02549 -11487283.59046  21196189.9964   21196188.1064
      3819.2664
 04  9 14 22 13 44.9960000  0  7G 3G 8G13G19G27G10G28
   -940996.15948   -729298.86443  22806587.7074   22806588.1254
      -970.1254
 -13702891.94749 -10661665.96748  19702198.2234   19702196.4884
      2607.2344
   1458223.48549   1134662.19646  20468656.8094   20468654.8134
     -1293.4374
 -11452842.00348  -8908050.13346  21399648.0594   21399645.5354
      1362.7344
  -8211982.19449  -6392131.36547  19635013.9814   19635011.9304
      1476.9534
  -8991386.66047  -7001739.83443  22221754.8794   22221754.5274
      1399.7814
 -14804501.23049 -11531893.32746  21185295.7234   21185294.0514
      3813.9844
 04  9 14 22 13 59.9960000  0  7G 3G 8G13G19G27G10G28
   -926392.07248   -717919.05543  22809367.1524   22809366.6484
      -976.7974
 -13741975.63349 -10692120.78648  19694760.6684   19694758.8244
      2604.1884
   1477670.94049   1149816.03047  20472357.4734   20472355.3674
     -1299.2344
 -11473215.97749  -8923925.95446  21395771.2624   21395768.2774
      1354.0784
  -8234114.45749  -6409377.28747  19630802.0514   19630800.5784
      1474.3134
  -9012316.24848  -7018048.60443  22217772.5434   22217771.9844
      1391.1094
 -14861677.21749 -11576446.03046  21174415.6214   21174414.1684
      3809.7974
 04  9 14 22 14 14.9960000  0  7G 3G 8G13G19G27G10G28
   -911683.90148   -706458.19043  22812165.1994   22812165.6844
      -984.8284
 -13781009.26149 -10722536.60148  19687333.2154   19687331.3014
      2599.7504
   1497209.85649   1165041.13847  20476075.7464   20476073.8984
     -1306.4374
 -11493455.38049  -8939696.90746  21391919.8484   21391916.9104
      1344.0004
  -8256203.00249  -6426589.14747  19626598.9814   19626597.0394
      1470.2974
  -9033110.48748  -7034251.89843  22213815.5744   22213814.4144
      1381.0474
 -14918785.12849 -11620945.67246  21163547.9344   21163546.1254
      3804.1564
 04  9 14 22 14 29.9960000  0  7G 3G 8G13G19G27G10G28
   -896860.21448   -694907.25043  22814985.7154   22814986.8404
      -991.5784
 -13819980.58949 -10752903.84748  19679916.9104   19679915.3564
      2596.4384
   1516851.83649   1180346.56147  20479813.3954   20479811.6454
     -1312.4694
 -11513548.33748  -8955353.75146  21388096.2234   21388093.3094
      1335.0944
  -8278235.86549  -6443757.60047  19622406.1844   19622404.4614
      1467.4384
  -9053757.61148  -7050340.58143  22209886.4964   22209885.5204
      1372.0164
 -14975813.07649 -11665382.99246  21152696.0664   21152694.4734
      3799.6254
 04  9 14 22 14 44.9960000  0  7G 3G 8G13G19G27G10G28
   -881931.57448   -683274.55243  22817827.5274   22817827.4184
      -999.0314
 -13858900.06949 -10783230.71748  19672511.0664   19672509.1414
      2592.6094
   1536586.26349   1195723.99847  20483568.8164   20483567.0274
     -1318.9694
 -11533505.14149  -8970904.51546  21384298.4964   21384295.2424
      1325.6254
  -8300223.30349  -6460890.69547  19618222.3014   19618220.3054
      1464.0314
  -9074268.04448  -7066322.75243  22205983.2234   22205982.8874
      1362.4694
 -15032771.40549 -11709766.10146  21141857.5514   21141855.2424
      3794.6094
 04  9 14 22 14 59.9960000  0  7G 3G 8G13G19G27G10G28
   -866896.35848   -671558.83943  22820688.0204   22820688.8284
     -1005.9534
 -13897765.47349 -10813515.43948  19665115.0984   19665112.9734
      2589.2034
   1556414.93749   1211174.89547  20487341.9184   20487340.2624
     -1325.0784
 -11553323.74749  -8986347.56846  21380527.3094   21380524.3324
      1316.6094
  -8322163.29649  -6477986.76647  19614047.3404   19614045.0594
      1461.0634
  -9094639.81048  -7082196.85343  22202106.8014   22202106.3054
      1353.4694
 -15089657.93549 -11754093.22346  21131032.8404   21131030.5784
      3789.9064
 04  9 14 22 15 14.9960000  0  7G 3G 8G13G19G27G10G28
   -851757.85748   -659762.61842  22823569.1454   22823569.2734
     -1012.6414
 -13936580.00449 -10843760.51848  19657728.9884   19657727.3714
      2586.0314
   1576334.44249   1226696.57447  20491132.6134   20491130.9614
     -1330.9694
 -11573007.34349  -9001685.43045  21376781.9574   21376778.6064
      1307.7814
  -8344058.88949  -6495048.28147  19609880.5204   19609878.5514
      1458.3134
  -9114876.14248  -7097965.40443  22198255.2774   22198255.2314
      1344.6884
 -15146475.83749 -11798366.89446  21120220.2934   21120218.7034
      3785.6414
 04  9 14 22 15 29.9960000  0  7G 3G 8G13G19G27G10G28
   -836516.60148   -647886.33143  22826469.0664   22826469.8484
     -1019.3284
 -13975343.74849 -10873966.02148  19650352.3874   19650350.7704
      2582.7504
   1596344.62349   1242288.89647  20494940.3634   20494938.9384
     -1336.8444
 -11592555.95449  -9016918.10546  21373061.7544   21373058.6524
      1298.9534
  -8365910.12749  -6512075.20947  19605722.5984   19605720.1804
      1455.4694
  -9134977.16748  -7113628.52943  22194431.2854   22194429.4924
      1335.8284
 -15203224.96549 -11842586.95446  21109420.9414   21109419.2734
      3781.2194
 04  9 14 22 15 44.9960000  0  7G 3G 8G13G19G27G10G28
   -821170.62848   -635928.45043  22829389.1844   22829389.7314
     -1026.8754
 -14014054.35049 -10904130.12848  19642985.6374   19642984.1644
      2578.5164
   1616447.30649   1257953.29247  20498766.2464   20498764.2074
     -1343.6564
 -11611967.38649  -9032043.89546  21369367.6844   21369364.5234
      1289.1254
  -8387714.87649  -6529065.93447  19601573.4574   19601571.2234
      1451.7034
  -9154940.84047  -7129184.66043  22190631.8874   22190630.7974
      1325.9064
 -15259903.14749 -11886751.76346  21098635.1524   21098633.5904
      3775.8134
 04  9 14 22 15 59.9960000  0  7G 3G 8G13G19G27G10G28
   -805719.34748   -623888.52043  22832329.9814   22832330.6454
     -1033.6414
 -14052710.75949 -10934251.98448  19635629.8794   19635627.9884
      2575.2664
   1636643.38149   1273690.47547  20502609.3244   20502607.4494
     -1349.5474
 -11631240.61749  -9047061.98046  21365699.7314   21365696.9694
      1280.2504
  -8409472.09749  -6546019.61047  19597432.8484   19597430.8674
      1448.8284
  -9174766.30748  -7144633.06343  22186859.2154   22186858.4064
      1317.0474
 -15316509.35149 -11930860.45746  21087864.1214   21087862.0314
      3771.3284
 04  9 14 22 16 14.9960000  0  7G 3G 8G13G19G27G10G28
   -790159.47748   -611763.98843  22835291.0744   22835291.1764
     -1040.8914
 -14091309.78449 -10964329.13748  19628284.9264   19628283.2424
      2571.3444
   1656935.98549   1289502.87946  20506470.7074   20506468.7974
     -1356.0624
 -11650372.25249  -9061969.74446  21362059.4654   21362055.9534
      1270.7194
  -8431178.15649  -6562933.41447  19593302.3094   19593300.3674
      1445.3594
  -9194450.11848  -7159971.08843  22183112.7934   22183112.9304
      1307.5474
 -15373040.02249 -11974910.30046  21077106.1374   21077104.3094
      3766.2344
 04  9 14 22 16 29.9960000  0  7G 3G 8G13G19G27G10G28
   -774493.75548   -599556.95343  22838271.5124   22838271.7854
     -1047.5164
 -14129853.48249 -10994363.18948  19620950.0204   19620948.2854
      2568.0784
   1677322.46849   1305388.42147  20510350.4024   20510348.4614
     -1361.8594
 -11669364.63249  -9076768.99646  21358445.3404   21358442.0354
      1261.9224
  -8452835.42049  -6579809.20347  19589180.9964   19589178.9344
      1442.5634
  -9213994.84648  -7175200.75643  22179393.7384   22179393.6294
      1298.7344
 -15429497.53649 -12018903.14046  21066362.9344   21066360.6994
      3761.7344
 04  9 14 22 16 44.9960000  0  7G 3G 8G13G19G27G10G28
   -758728.53848   -587272.41943  22841271.9184   22841272.7154
     -1054.4064
 -14168347.94349 -11024358.85748  19613624.8324   19613623.2314
      2564.6254
   1697796.57849   1321342.25647  20514246.1684   20514244.3714
     -1367.9064
 -11688223.91349  -9091464.54246  21354856.5904   21354852.9774
      1252.7974
  -8474449.95949  -6596651.70047  19585067.7624   19585065.8874
      1439.6094
  -9233406.65948  -7190326.84043  22175700.0824   22175699.2664
      1289.6724
 -15485887.77349 -12062843.55946  21055631.9104   21055629.9344
      3757.1094
 04  9 14 22 16 59.9960000  0  7G 3G 8G13G19G27G10G28
   -742859.23248   -574906.73842  22844292.0594   22844292.5004
     -1061.4224
 -14206787.95649 -11054312.11448  19606309.9494   19606308.3164
      2560.9064
   1718363.11949   1337368.11247  20518160.1684   20518158.2424
     -1374.1414
 -11706944.95849  -9106052.36046  21351294.3324   21351291.3014
      1243.5004
  -8496016.81449  -6613457.03847  19580963.9264   19580962.1764
      1436.2504
  -9252680.54547  -7205345.44643  22172032.1684   22172032.0904
      1280.3444
 -15542205.67949 -12106727.60846  21044915.3244   21044913.4344
      3752.1094
 04  9 14 22 17 14.9960000  0  7G 3G 8G13G19G27G10G28
   -726886.82648   -562460.70743  22847331.6454   22847332.2814
     -1068.3594
 -14245174.51149 -11084223.69448  19599005.3324   19599003.8054
      2557.1094
   1739021.13449   1353465.24047  20522091.1214   20522089.1804
     -1380.3754
 -11725528.37848  -9120532.94246  21347757.6914   21347754.8134
      1234.1094
  -8517536.50349  -6630225.62847  19576868.9184   19576867.1684
      1432.9694
  -9271817.34347  -7220257.23443  22168390.7854   22168389.9814
      1271.0004
 -15598452.01249 -12150555.89546  21034211.7854   21034209.8164
      3747.2344
 04  9 14 22 17 29.9960000  0  7G 3G 8G13G19G27G10G28
   -710812.07248   -549934.96642  22850390.1844   22850390.5594
     -1075.2344
 -14283507.59549 -11114093.62548  19591710.7704   19591709.3324
      2553.7034
   1759769.93849   1369633.11147  20526039.5124   20526037.8014
     -1386.3754
 -11743974.83648  -9134906.80546  21344248.1604   21344244.7344
      1225.0944
  -8539009.53749  -6646957.85647  19572782.5594   19572780.5274
      1429.9224
  -9290817.59246  -7235062.61743  22164775.1604   22164774.2974
      1261.9844
 -15654627.02649 -12194328.60446  21023521.7854   21023519.5634
      3742.5004
 04  9 14 22 17 44.9960000  0  7G 3G 8G13G19G27G10G28
   -694633.94348   -537328.65442  22853468.6684   22853469.3284
     -1081.5164
 -14321786.23749 -11143921.13148  19584426.4964   19584424.8364
      2550.5944
   1780610.61748   1385872.57746  20530005.4414   20530003.5704
     -1391.8914
 -11762283.00248  -9149172.89746  21340763.4264   21340760.8954
      1216.4064
  -8560434.41249  -6663652.57247  19568706.1454   19568704.0234
      1427.2974
  -9309680.22247  -7249760.76943  22161186.1994   22161184.9224
      1253.4064
 -15710729.41249 -12238044.72746  21012845.9814   21012844.0084
      3738.2664
 04  9 14 22 17 59.9960000  0  7G 3G 8G13G19G27G10G28
   -678359.59447   -524647.34542  22856565.2624   22856566.0784
     -1088.1724
 -14360016.91149 -11173711.26748  19577151.6604   19577149.7504
      2547.0164
   1801536.17249   1402178.17946  20533987.2624   20533985.3954
     -1397.8914
 -11780459.62949  -9163336.51646  21337304.9104   21337301.8204
      1207.2504
  -8581818.03749  -6680315.13847  19564636.2774   19564634.6174
      1424.1094
  -9328412.06548  -7264357.02543  22157621.3874   22157620.6884
      1244.3444
 -15766765.86049 -12281709.47846  21002182.3094   21002180.3484
      3733.5164
 04  9 14 22 18 14.9960000  0  7G 3G 8G13G19G27G10G28
   -661985.32547   -511888.24742  22859681.9104   22859682.2584
     -1094.7664
 -14398195.97549 -11203461.17348  19569886.2854   19569884.4064
      2543.7974
   1822550.16248   1418552.69646  20537986.3564   20537984.5704
     -1403.6874
 -11798500.77449  -9177394.54146  21333871.6914   21333868.6254
      1198.4534
  -8603156.34449  -6696942.38347  19560575.9414   19560574.0514
      1421.2664
  -9347009.32248  -7278848.40143  22154082.4884   22154081.8014
      1235.5004
 -15822732.48049 -12325319.77546  20991532.0904   20991530.5904
      3729.0004
 04  9 14 22 18 29.9960000  0  7G 3G 8G13G19G27G10G28
   -645513.23247   -499052.81242  22862815.6604   22862816.7074
     -1101.4694
 -14436324.84149 -11233171.97148  19562630.5204   19562628.7664
      2540.1094
   1843650.69448   1434994.63946  20542001.4414   20541999.9024
     -1409.6564
 -11816408.06249  -9191348.26446  21330463.4184   21330460.4264
      1189.2974
  -8624451.01049  -6713535.62147  19556523.8484   19556521.9414
      1418.1094
  -9365473.85848  -7293236.34243  22150568.3404   22150567.3164
      1226.4694
 -15878630.75949 -12368876.86046  20980895.1294   20980893.6134
      3724.2344
 04  9 14 22 18 44.9960000  0  7G 3G 8G13G19G27G10G28
   -628941.89547   -486140.10342  22865969.7074   22865970.4964
     -1107.8594
 -14474401.81149 -11262842.33248  19555384.6684   19555383.0274
      2536.9224
   1864839.36948   1451505.27746  20546033.5434   20546032.0084
     -1415.3124
 -11834180.00049  -9205196.52846  21327082.1294   21327078.7114
      1180.4534
  -8645700.28849  -6730093.50247  19552479.7544   19552478.3714
      1415.2664
  -9383804.01848  -7307519.57243  22147080.6454   22147079.9454
      1217.6414
 -15934459.07749 -12412379.41846  20970271.7154   20970269.3164
      3719.6884
 04  9 14 22 18 59.9960000  0  7G 3G 8G13G19G27G10G28
   -612277.08447   -473154.56742  22869140.5434   22869141.5704
     -1114.4064
 -14512432.30749 -11292476.47548  19548147.7314   19548146.1454
      2533.5784
   1886110.29548   1468080.00446  20550081.2464   20550079.8564
     -1421.1094
 -11851822.09949  -9218943.60646  21323724.4884   21323721.8134
      1171.5944
  -8666909.62249  -6746620.25547  19548444.4104   19548442.3324
      1412.3594
  -9402005.45448  -7321702.52443  22143616.3634   22143615.7544
      1208.8594
 -15990222.82849 -12455831.66846  20959659.9024   20959657.8754
      3715.1414
 04  9 14 22 19 14.9960000  0  7G 3G 8G13G19G27G10G28
   -595517.74947   -460095.36242  22872330.1604   22872330.6294
     -1120.1414
 -14550414.93149 -11322073.31048  19540919.9184   19540918.2314
      2530.8594
   1907464.70448   1484719.76846  20554144.8324   20554143.5904
     -1426.2194
 -11869332.79249  -9232588.29746  21320392.9814   21320389.8134
      1163.2814
  -8688077.60549  -6763114.79047  19544415.9414   19544413.9924
      1410.1254
  -9420076.80148  -7335784.09643  22140177.9734   22140176.7234
      1200.6884
 -16045920.44749 -12499232.38346  20949061.2384   20949059.0204
      3711.2664
 04  9 14 22 19 29.9960000  0  7G 3G 8G13G19G27G10G28
   -578664.12547   -446962.65242  22875536.5984   22875537.5594
     -1126.9374
 -14588349.25149 -11351632.51348  19533701.3244   19533699.6454
      2527.1414
   1928902.48949   1501424.51046  20558224.4104   20558222.3564
     -1432.1094
 -11886712.04549  -9246130.58046  21317085.4104   21317082.3834
      1154.0474
  -8709203.95449  -6779576.87247  19540395.6454   19540394.3634
      1406.8594
  -9438018.03748  -7349764.28843  22136764.6454   22136762.9814
      1191.5474
 -16101551.82949 -12542581.48446  20938475.0044   20938472.5634
      3706.4064
 04  9 14 22 19 44.9960000  0  7G 3G 8G13G19G27G10G28
   -561718.21647   -433758.03942  22878762.0204   22878762.0354
     -1132.7504
 -14626237.14549 -11381155.53448  19526491.3794   19526489.3014
      2524.4384
   1950421.58349   1518192.62346  20562319.1604   20562317.4414
     -1437.2504
 -11903961.52449  -9259571.72246  21313803.0984   21313800.0904
      1145.6564
  -8730290.46449  -6796007.91847  19536382.9574   19536381.4964
      1404.5164
  -9455831.03148  -7363644.53343  22133374.0514   22133372.7464
      1183.3284
 -16157118.54349 -12585880.19346  20927900.5904   20927898.6884
      3702.3444
 04  9 14 22 19 59.9960000  0  7G 3G 8G13G19G27G10G28
   -544685.67747   -420485.97342  22882003.0904   22882002.9844
     -1138.8914
 -14664083.95149 -11410646.55048  19519289.3714   19519287.7544
      2521.2194
   1972016.58548   1535019.86746  20566428.9414   20566426.8444
     -1442.7034
 -11921086.56449  -9272915.91646  21310543.8094   21310541.2314
      1136.9844
  -8751342.28849  -6812411.94247  19532377.0354   19532375.5554
      1401.7814
  -9473521.19948  -7377429.07343  22130007.4184   22130006.8484
      1174.7504
 -16212625.97849 -12629132.72746  20917337.9184   20917335.9304
      3698.0474
 04  9 14 22 20 14.9960000  0  7G 3G 8G13G19G27G10G28
   -527556.04147   -407138.21542  22885262.5744   22885262.5984
     -1145.2034
 -14701878.78649 -11440097.06248  19512097.0274   19512095.1914
      2517.9224
   1993697.91948   1551914.39446  20570554.7074   20570552.2344
     -1448.3444
 -11938076.49849  -9286154.81146  21307311.3714   21307308.2734
      1128.1564
  -8772348.66449  -6828780.53547  19528379.6374   19528378.0554
      1398.8914
  -9491077.84548  -7391109.58243  22126666.5744   22126665.9774
      1165.9384
 -16268063.24449 -12672330.55946  20906788.9654   20906786.3444
      3693.4694
 04  9 14 22 20 29.9960000  0  7G 3G 8G13G19G27G10G28
   -510331.06647   -393716.19142  22888540.8094   22888541.3164
     -1151.5944
 -14739623.10049 -11469508.20448  19504914.4184   19504913.1174
      2514.5474
   2015463.93148   1568874.89346  20574696.3714   20574694.5004
     -1453.8754
 -11954932.79949  -9299289.59946  21304103.5124   21304100.4414
      1119.2974
  -8793311.10249  -6845114.89647  19524390.5594   19524388.5084
      1395.9694
  -9508502.64548  -7404687.33643  22123351.0514   22123349.9104
      1157.2194
 -16323431.75549 -12715474.82246  20896252.4184   20896249.9614
      3688.8754
 04  9 14 22 20 44.9960000  0  7G 3G 8G13G19G27G10G28
   -493016.41947   -380224.24142  22891835.2384   22891836.1374
     -1157.3444
 -14777322.08049 -11498884.03048  19497740.8484   19497739.1564
      2511.7034
   2037308.99648   1585896.99946  20578853.3714   20578851.6524
     -1459.0314
 -11971660.79049  -9312324.38446  21300920.2854   21300917.1644
      1110.8914
  -8814234.81549  -6861419.08847  19520409.1914   19520407.2034
      1393.5474
  -9525801.03548  -7418166.60743  22120059.5824   22120058.3404
      1148.9844
 -16378736.74749 -12758569.59846  20885728.3244   20885726.0314
      3684.8444
 04  9 14 22 20 59.9960000  0  7G 3G 8G13G19G27G10G28
   -475610.52547   -366661.22842  22895147.9414   22895147.7704
     -1163.5314
 -14814973.98949 -11528223.16648  19490576.0664   19490574.5084
      2508.5634
   2059234.71448   1602981.94546  20583025.5594   20583023.9814
     -1464.4374
 -11988258.73549  -9325257.85446  21297761.5124   21297758.3404
      1102.1414
  -8835117.83349  -6877691.57447  19516434.8874   19516433.9064
      1390.8594
  -9542971.38448  -7431546.09343  22116792.2234   22116790.9574
      1140.3914
 -16433976.37149 -12801613.44546  20875216.5044   20875213.8204
      3680.4844
 04  9 14 22 21 14.9960000  0  7G 3G 8G13G19G27G10G28
   -458115.11747   -353028.43742  22898476.4414   22898477.5984
     -1169.3444
 -14852580.07949 -11557526.61748  19483419.8714   19483418.0394
      2505.5634
   2081239.52848   1620128.53346  20587213.1914   20587211.6414
     -1469.6094
 -12004727.86149  -9338090.92946  21294627.7624   21294624.3444
      1093.6564
  -8855961.48549  -6893933.37447  19512468.7854   19512466.8134
      1388.3134
  -9560015.04448  -7444826.85443  22113548.8244   22113547.9694
      1132.0634
 -16489151.86249 -12844607.30746  20864717.1764   20864714.8834
      3676.2504
 04  9 14 22 21 29.9960000  0  7G 3G 8G13G19G27G10G28
   -440525.81147   -339322.49842  22901823.8874   22901824.6684
     -1175.8914
 -14890135.59349 -11586790.63548  19476273.1684   19476271.2114
      2501.8914
   2103327.82548   1637340.17746  20591416.4884   20591415.0164
     -1475.5164
 -12021063.46849  -9350819.95546  21291519.2154   21291516.1374
      1084.4844
  -8876761.23349  -6910140.96547  19508510.9184   19508509.1604
      1385.0474
  -9576927.57048  -7458005.47143  22110330.6064   22110329.8564
      1123.0164
 -16544258.59349 -12887547.58146  20854230.2314   20854228.2344
      3671.4384
 04  9 14 22 21 44.9960000  0  6G 8G13G19G27G10G28
 -14927639.95849 -11616014.80748  19469136.2464   19469134.3134
      2498.6414
   2125500.00449   1654617.15946  20595635.8794   20595634.3874
     -1480.8444
 -12037265.19249  -9363444.67846  21288435.8714   21288433.0904
      1075.7344
  -8897516.21149  -6926313.67647  19504560.9964   19504559.1064
      1382.3134
  -9593708.62148  -7471081.61743  22107137.0824   22107136.2934
      1114.4064
 -16599295.86849 -12930433.75746  20843757.3094   20843754.9614
      3666.8754
 04  9 14 22 21 59.9960000  0  6G 8G13G19G27G10G28
 -14965092.30949 -11645198.46348  19462009.5044   19462007.4344
      2494.8284
   2147756.48049   1671959.84946  20599871.2464   20599869.7584
     -1486.7814
 -12053332.26749  -9375964.48246  21285378.6524   21285375.5004
      1066.3754
  -8918225.84049  -6942451.04547  19500620.0044   19500618.4844
      1378.8754
  -9610357.47448  -7484054.76143  22103969.1134   22103968.5044
      1105.2664
 -16654262.93849 -12973265.21346  20833297.4264   20833294.6914
      3661.9534
 04  9 14 22 22 14.9960000  0  6G 8G13G19G27G10G28
 -15002494.79149 -11674343.23848  19454891.6844   19454889.6564
      2491.8594
   2170094.76448   1689366.27546  20604121.9814   20604120.4144
     -1491.9224
 -12069266.94049  -9388381.10246  21282345.7774   21282343.3204
      1057.9694
  -8938892.19249  -6958554.69047  19496687.5434   19496685.4574
      1376.3444
  -9626876.42748  -7496926.66043  22100826.0744   22100824.3404
      1096.9534
 -16709161.89349 -13016043.59146  20822850.3404   20822848.4104
      3657.7194
 04  9 14 22 22 29.9960000  0  6G 8G13G19G27G10G28
 -15039847.58649 -11703449.29648  19447783.7544   19447782.1414
      2488.3134
   2192514.44048   1706836.13946  20608388.3634   20608386.8484
     -1497.5474
 -12085069.50049  -9400694.77846  21279339.9264   21279336.1954
      1048.9064
  -8959515.46249  -6974624.77247  19492762.8324   19492761.0394
      1373.2344
  -9643266.00048  -7509697.75443  22097706.5274   22097705.6254
      1088.0634
 -16763992.93249 -13058769.04546  20812416.0044   20812413.8164
      3652.9224
 04  9 14 22 22 44.9960000  0  6G 8G13G19G27G10G28
 -15077150.85749 -11732516.79148  19440685.4024   19440684.1254
      2484.9534
   2215015.04948   1724369.04246  20612670.1524   20612668.3364
     -1502.9224
 -12100740.14049  -9412905.65946  21276357.1454   21276354.5314
      1040.0944
  -8980095.69049  -6990661.31747  19488846.8484   19488845.0394
      1370.3284
  -9659526.44348  -7522368.25043  22094612.4884   22094611.8794
      1079.5314
 -16818756.25049 -13101441.74846  20801995.0984   20801992.5744
      3648.3914
 04  9 14 22 22 59.9960000  0  6G 8G13G19G27G10G28
 -15114403.45549 -11761544.77448  19433596.5044   19433594.5824
      2481.5474
   2237597.50449   1741965.74746  20616967.2854   20616966.1064
     -1508.5314
 -12116277.75749  -9425012.89546  21273399.8954   21273397.4414
      1031.0634
  -9000631.83949  -7006663.49847  19484938.5824   19484936.8834
      1367.2344
  -9675656.72948  -7534937.29943  22091543.0984   22091542.0824
      1070.6564
 -16873450.65449 -13144060.72446  20791586.9494   20791584.6954
      3643.6884
 04  9 14 22 23 14.9960000  0  6G 8G13G19G27G10G28
 -15151600.27249 -11790529.29648  19426518.3324   19426516.1414
      2478.2194
   2260266.58549   1759629.93846  20621281.0354   20621279.5354
     -1513.8284
 -12131677.50049  -9437012.68546  21270469.8634   21270467.0044
      1022.3754
  -9021118.78749  -7022627.35147  19481040.2934   19481038.1604
      1364.4694
  -9691651.98848  -7547401.10543  22088498.7854   22088498.6884
      1062.1884
 -16928070.98849 -13186622.00546  20781193.0904   20781190.5164
      3639.2034
 04  9 14 22 23 29.9960000  0  6G 8G13G19G27G10G28
 -15188740.02749 -11819469.36648  19419450.6604   19419448.6884
      2474.2974
   2283022.98249   1777362.16346  20625611.4264   20625610.3204
     -1519.7974
 -12146938.22149  -9448904.15146  21267565.8874   21267562.9344
      1012.9534
  -9041555.46549  -7038552.04447  19477151.0824   19477149.3054
      1360.9224
  -9707511.42448  -7559759.14543  22085480.6764   22085480.5904
      1052.9384
 -16982616.25749 -13229124.79346  20770813.4654   20770811.1094
      3634.0314
 04  9 14 22 23 44.9960000  0  6G 8G13G19G27G10G28
 -15225828.02249 -11848369.09348  19412392.9414   19412391.2734
      2470.9064
   2305861.55349   1795158.43546  20629957.7384   20629956.2734
     -1525.1564
 -12162064.99049  -9460691.23246  21264687.4024   21264684.3914
      1004.0474
  -9061946.76549  -7054441.36647  19473271.0904   19473268.6374
      1358.0314
  -9723240.05748  -7572015.23443  22082487.6684   22082486.8524
      1044.4064
 -17037091.34049 -13271572.87846  20760447.1764   20760445.2074
      3629.4694
 04  9 14 22 23 59.9960000  0  6G 8G13G19G27G10G28
 -15262859.42049 -11877224.70748  19405346.0514   19405344.6094
      2466.7974
   2328786.65749   1813022.12346  20634319.8244   20634318.4414
     -1531.3444
 -12177053.13449  -9472370.30346  21261835.3634   21261832.2544
       994.5314
  -9082287.89649  -7070291.58247  19469400.1604   19469398.1914
      1354.3134
  -9738833.36248  -7584165.84943  22079520.4574   22079519.7704
      1034.8914
 -17091491.52349 -13313962.60246  20750095.1524   20750092.7624
      3624.1254
 04  9 14 22 24 14.9960000  0  6G 8G13G19G27G10G28
 -15299840.57349 -11906041.19848  19398308.8874   19398307.2854
      2463.3284
   2351791.68249   1830948.09146  20638697.7934   20638696.0784
     -1536.8444
 -12191909.02349  -9483946.31846  21259008.7544   21259004.9734
       985.5474
  -9102585.26949  -7086107.71847  19465537.6914   19465535.7934
      1351.1884
  -9754297.84848  -7596216.10643  22076578.0274   22076576.9304
      1026.2194
 -17145822.98849 -13356298.78546  20739756.2154   20739753.6844
      3619.3444
 04  9 14 22 24 29.9960000  0  6G 8G13G19G27G10G28
 -15336765.95049 -11934814.21548  19391282.1604   19391280.6454
      2459.6724
   2374881.68149   1848940.26146  20643092.4184   20643089.6684
     -1542.2344
 -12206627.50649  -9495415.25246  21256207.7234   21256204.4654
       976.5314
  -9122833.56549  -7101885.61747  19461684.8164   19461682.7154
      1348.1254
  -9769628.46747  -7608162.03843  22073660.9654   22073659.3094
      1017.4844
 -17200080.57049 -13398577.40346  20729431.6064   20729428.9844
      3614.5314
 04  9 14 22 24 44.9960000  0  6G 8G13G19G27G10G28
 -15373634.87549 -11963543.23748  19384266.3564   19384264.8364
      2456.1564
   2398057.16749   1866999.07346  20647502.3244   20647500.2424
     -1547.6874
 -12221207.84048  -9506776.54746  21253432.8484   21253429.9414
       967.5474
  -9143031.98749  -7117624.64147  19457841.0204   19457838.8094
      1345.0314
  -9784824.47146  -7620003.07743  22070768.9414   22070768.3634
      1008.7504
 -17254263.47449 -13440797.82146  20719120.7074   20719118.4184
      3609.8444
 04  9 14 22 24 59.9960000  0  6G 8G13G19G27G10G28
 -15410449.30949 -11992229.80548  19377260.6294   19377258.5704
      2452.6254
   2421315.83649   1885122.67746  20651928.1914   20651926.5204
     -1553.2664
 -12235652.05048  -9518031.77446  21250683.8954   21250681.6484
       958.5474
  -9163182.47949  -7133326.32347  19454006.6064   19454004.3204
      1341.8444
  -9799888.06846  -7631740.95743  22067902.2314   22067901.0984
       999.9384
 -17308373.64549 -13482961.55646  20708823.8874   20708821.3364
      3605.0474
 04  9 14 22 25 14.9960000  0  6G 8G13G19G27G10G28
 -15447206.58949 -12020871.84148  19370266.0274   19370264.1334
      2448.5784
   2444660.06748   1903312.95646  20656370.2544   20656368.3984
     -1559.1724
 -12249957.67648  -9529179.01746  21247961.6914   21247958.6914
       949.0314
  -9183282.27849  -7148988.51247  19450181.5594   19450179.5394
      1338.2974
  -9814816.79946  -7643373.72944  22065061.8014   22065060.9774
       990.9064
 -17362408.40249 -13525066.54746  20698541.3874   20698538.7854
      3599.7974
 04  9 14 22 25 29.9960000  0  6G 8G13G19G27G10G28
 -15483908.22549 -12049470.51348  19363281.8014   19363279.5234
      2444.8444
   2468088.19549   1921568.61246  20660828.6844   20660827.0124
     -1564.7974
 -12264126.15248  -9540219.38746  21245266.1214   21245262.6604
       939.8444
  -9203332.85149  -7164612.33047  19446366.2624   19446363.8324
      1334.9694
  -9829612.22947  -7654902.66243  22062246.1374   22062245.1764
       981.8594
 -17416369.21949 -13567113.91046  20688273.2154   20688270.3204
      3594.8134
 04  9 14 22 25 44.9960000  0  6G 8G13G19G27G10G28
 -15520555.45349 -12078026.78648  19356308.2624   19356306.4964
      2441.2814
   2491598.12549   1939888.02446  20665302.4574   20665300.8834
     -1570.1414
 -12278159.13548  -9551154.17046  21242595.3714   21242592.2814
       930.8914
  -9223335.79949  -7180199.03747  19442559.5514   19442557.3754
      1331.8594
  -9844276.32146  -7666329.20643  22059455.7624   22059454.2464
       973.2034
 -17470257.53749 -13609104.78446  20678018.3094   20678016.1764
      3590.0634
 04  9 14 22 25 59.9960000  0  6G 8G13G19G27G10G28
 -15557144.94849 -12106538.07448  19349345.4574   19349343.5864
      2437.5164
   2515193.18349   1958273.76246  20669792.4024   20669790.3954
     -1575.6724
 -12292053.34648  -9561980.82246  21239951.3714   21239947.8564
       921.8284
  -9243287.67449  -7195745.95347  19438762.9264   19438761.0594
      1328.5314
  -9858805.71047  -7677650.82044  22056690.8634   22056690.0044
       964.2664
 -17524069.98749 -13651036.53046  20667778.1604   20667775.9694
      3585.1254
 04  9 14 22 26 14.9960000  0  6G 8G13G19G27G10G28
 -15593677.74049 -12135005.18048  19342393.3404   19342392.0124
      2433.4534
   2538872.14348   1976724.86746  20674298.1064   20674296.7194
     -1581.5784
 -12305809.69148  -9572700.05246  21237334.1844   21237330.8484
       912.2974
  -9263189.37249  -7211253.78047  19434975.8094   19434973.7584
      1324.8444
  -9873201.77047  -7688868.53844  22053951.5594   22053950.1724
       955.1254
 -17577807.60049 -13692909.97646  20657551.7154   20657549.8794
      3579.7664
 04  9 14 22 26 29.9960000  0  6G 8G13G19G27G10G28
 -15630155.74749 -12163429.59148  19335451.9104   19335450.1174
      2430.0314
   2562632.95049   1995239.75946  20678820.0124   20678818.1684
     -1586.8914
 -12319430.09749  -9583313.34946  21234742.1294   21234738.9264
       903.4064
  -9283042.66149  -7226723.86347  19431197.9344   19431195.8794
      1321.9224
  -9887466.18848  -7699983.65644  22051236.8794   22051236.2074
       946.5004
 -17631471.99349 -13734726.35646  20647340.1134   20647337.5234
      3575.1254
 04  9 14 22 26 44.9960000  0  6G 8G13G19G27G10G28
 -15666579.67349 -12191811.87648  19328520.9494   19328518.9654
      2426.5474
   2586474.06648   2013817.22546  20683356.5824   20683355.2234
     -1592.0004
 -12332915.76749  -9593821.66546  21232175.5824   21232172.5354
       894.6254
  -9302848.56249  -7242157.03547  19427428.9024   19427426.8714
      1318.9224
  -9901600.33148  -7710997.28643  22048547.0354   22048546.2234
       937.9844
 -17685064.19949 -13776486.49946  20637141.7544   20637139.8714
      3570.5164
 04  9 14 22 26 59.9960000  0  6G 8G13G19G27G10G28
 -15702950.01649 -12220152.39648  19321599.5744   19321597.7074
      2422.6724
   2610394.74749   2032456.69046  20687908.6524   20687906.7344
     -1597.5624
 -12346267.32849  -9604225.46846  21229634.8094   21229632.0084
       885.3754
  -9322607.68749  -7257553.76447  19423668.8874   19423666.4964
      1315.4694
  -9915604.95648  -7721909.98043  22045882.2074   22045881.5514
       929.0474
 -17738584.85148 -13818190.87646  20626956.7704   20626954.5124
      3565.4224
 04  9 14 22 27 14.9960000  0  6G 8G13G19G27G10G28
 -15739266.79949 -12248451.17448  19314689.0354   19314686.9224
      2419.2814
   2634394.97948   2051158.14346  20692475.7704   20692473.9694
     -1602.7194
 -12359484.71649  -9614524.72846  21227119.3634   21227116.7114
       876.5634
  -9342319.82749  -7272913.86347  19419917.6294   19419915.7154
      1312.5164
  -9929480.00848  -7732721.71543  22043241.7934   22043241.0044
       920.6724
 -17792033.69849 -13859839.30246  20616786.0904   20616783.9694
      3560.8284
 04  9 14 22 27 29.9960000  0  6G 8G13G19G27G10G28
 -15775531.26949 -12276709.19948  19307787.7624   19307785.8634
      2415.4064
   2658473.07848   2069920.28146  20697057.7234   20697055.9494
     -1608.2194
 -12372569.38349  -9624720.56746  21224629.7774   21224626.5234
       867.4064
  -9361986.25749  -7288238.36447  19416175.4024   19416173.8134
      1309.1094
  -9943227.04848  -7743433.68543  22040626.0204   22040624.5864
       911.7664
 -17845412.11349 -13901432.84946  20606628.6064   20606626.3794
      3555.7034
 04  9 14 22 27 44.9960000  0  6G 8G13G19G27G10G28
 -15811735.79349 -12304920.50348  19300898.2544   19300896.3914
      2412.0634
   2682636.30948   2088748.75246  20701655.9104   20701653.8484
     -1613.3124
 -12385513.83149  -9634807.15046  21222166.6214   21222164.1294
       858.7664
  -9381599.43049  -7303521.34847  19412443.3484   19412441.1064
      1306.2034
  -9956838.62948  -7754040.11444  22038035.8794   22038035.4924
       903.2974
 -17898712.57849 -13942965.64546  20596485.8484   20596483.7704
      3551.2034
 04  9 14 22 27 59.9960000  0  6G 8G13G19G27G10G28
 -15847887.61749 -12333090.75948  19294018.7774   19294016.8564
      2408.4384
   2706877.23748   2107637.75546  20706268.6684   20706267.1524
     -1618.5944
 -12398325.25649  -9644790.07546  21219728.5514   21219725.8204
       849.7344
  -9401166.32449  -7318768.28147  19408719.4884   19408717.1994
      1303.0164
  -9970322.23848  -7764546.82643  22035468.9494   22035468.7504
       894.7814
 -17951942.09249 -13984443.17046  20586355.9884   20586354.2934
      3546.2974
 04  9 14 22 28 14.9960000  0  6G 8G13G19G27G10G28
 -15883981.53049 -12361215.87148  19287150.2934   19287148.4144
      2404.3914
   2731200.62048   2126591.03046  20710897.4264   20710895.6334
     -1624.2664
 -12410998.62249  -9654665.42846  21217316.6684   21217314.2544
       840.3284
  -9420681.85649  -7333975.17547  19405005.6214   19405004.2664
      1299.3594
  -9983672.84348  -7774949.88043  22032929.4024   22032928.6994
       885.6414
 -18005095.54549 -14025861.41846  20576241.9184   20576239.3794
      3541.0784
 04  9 14 22 28 29.9960000  0  6G 8G13G19G27G10G28
 -15920018.95749 -12389296.98348  19280292.5044   19280291.2314
      2400.6564
   2755604.79648   2145607.23846  20715541.8094   20715539.4924
     -1629.5784
 -12423535.53149  -9664434.45146  21214930.8874   21214927.9814
       831.3134
  -9440147.59149  -7349143.29947  19401301.6994   19401300.0044
      1296.0784
  -9996892.29048  -7785250.75243  22030413.8094   22030412.9144
       877.0164
 -18058174.52049 -14067221.64246  20566140.9414   20566138.6764
      3536.1724
 04  9 14 22 28 44.9960000  0  6G 8G13G19G27G10G28
 -15955995.26449 -12417330.46048  19273446.7704   19273444.7974
      2396.5634
   2780094.03448   2164689.74146  20720201.4104   20720200.1134
     -1635.2504
 -12435931.44949  -9674093.59446  21212572.1524   21212569.7074
       821.9384
  -9459558.63949  -7364268.77547  19397607.6684   19397606.2234
      1292.4384
 -10009975.96548  -7795445.83943  22027924.5664   22027923.3754
       867.9224
 -18111174.22249 -14108520.08446  20556055.8244   20556053.6454
      3530.8444
 04  9 14 22 28 59.9960000  0  6G 8G13G19G27G10G28
 -15991917.18749 -12445321.56948  19266610.8954   19266609.1254
      2393.0004
   2804661.18148   2183832.93646  20724876.5514   20724875.0744
     -1640.3754
 -12448193.25049  -9683648.25146  21210239.1604   21210236.0554
       813.0314
  -9478922.04949  -7379357.15447  19393923.2384   19393921.2544
      1289.3444
 -10022930.93848  -7805540.61644  22025458.3954   22025458.1064
       859.3754
 -18164101.60249 -14149762.17746  20545983.6214   20545981.6294
      3526.0944
 04  9 14 22 29 14.9960000  0  6G 8G13G19G27G10G28
 -16027785.33249 -12473270.76848  19259785.3324   19259783.4144
      2389.2974
   2829305.50548   2203036.28846  20729566.4884   20729564.6954
     -1645.6414
 -12460321.60949  -9693098.91846  21207931.3484   21207927.8134
       804.0164
  -9498238.21349  -7394408.70447  19390247.4344   19390245.6214
      1286.0474
 -10035758.04448  -7815535.79043  22023017.5044   22023017.1764
       850.7194
 -18216957.22749 -14190948.35946  20535926.0824   20535923.4024
      3521.2034
 04  9 14 22 29 29.9960000  0  6G 8G13G19G27G10G28
 -16063594.37349 -12501173.89048  19252971.0664   19252969.3794
      2385.5944
   2854031.86048   2222303.56146  20734271.9104   20734269.8674
     -1650.9534
 -12472311.34449  -9702441.56446  21205649.2384   21205646.5474
       794.9844
  -9517501.87849  -7409419.35447  19386581.7704   19386579.6374
      1282.7814
 -10048452.16448  -7825427.29144  22020602.0434   22020601.5904
       842.1724
 -18269735.71549 -14232074.42146  20525882.4734   20525880.3794
      3516.2664
 04  9 14 22 29 44.9960000  0  6G 8G13G19G27G10G28
 -16099345.57349 -12529031.98248  19246168.1604   19246166.0744
      2381.3444
   2878838.51648   2241633.38946  20738992.0204   20738990.5594
     -1656.6094
 -12484164.15549  -9711677.53246  21203394.0594   21203391.1844
       785.4384
  -9536714.48949  -7424390.22747  19382925.5904   19382923.7704
      1278.9534
 -10061014.94747  -7835216.50243  22018211.4574   22018211.2624
       832.9064
 -18322438.65649 -14273141.63747  20515853.3954   20515851.1804
      3510.8594
 04  9 14 22 29 59.9960000  0  6G 8G13G19G27G10G28
 -16135040.30849 -12556846.04248  19239375.5744   19239373.8094
      2377.8754
   2903724.17048   2261024.79145  20743727.5274   20743726.1994
     -1661.6094
 -12495881.04848  -9720807.56046  21201164.5594   21201161.1644
       776.7194
  -9555877.02449  -7439322.06147  19379279.3094   19379277.0434
      1275.9384
 -10073447.70946  -7844904.34743  22015845.8634   22015845.2664
       824.6564
 -18375066.87349 -14314150.59946  20505838.4814   20505836.1764
      3506.1414
 04  9 14 22 30 14.9960000  0  6G 8G13G19G27G10G28
 -16170677.31049 -12584615.12948  19232593.9104   19232592.1484
      2373.9844
   2928689.56048   2280478.30746  20748478.2854   20748477.1604
     -1666.9064
 -12507461.19848  -9729831.06446  21198961.1214   21198958.0274
       767.5784
  -9574988.53049  -7454214.15747  19375642.7234   19375640.7384
      1272.4384
 -10085749.61747  -7854490.25743  22013504.9344   22013503.8014
       815.8594
 -18427619.40449 -14355100.61046  20495838.1374   20495835.6844
      3501.0634
 04  9 14 22 30 29.9960000  0  6G 8G13G19G27G10G28
 -16206253.58449 -12612336.89648  19225824.2854   19225822.1414
      2369.8594
   2953737.34248   2299996.04146  20753244.5514   20753243.1684
     -1672.5164
 -12518901.66749  -9738745.70946  21196784.0044   21196780.6804
       758.1414
  -9594045.78249  -7469063.95247  19372015.9654   19372013.8324
      1268.7814
 -10097917.85048  -7863972.00243  22011189.1374   22011188.4304
       806.8754
 -18480093.28649 -14395989.31346  20485852.7774   20485850.2234
      3495.6724
 04  9 14 22 30 44.9960000  0  6G 8G13G19G27G10G28
 -16241772.58449 -12640014.02848  19219065.1994   19219063.2664
      2365.8754
   2978863.69848   2319574.99546  20758026.2854   20758024.7384
     -1677.9694
 -12530206.23049  -9747554.46846  21194632.9574   21194629.7154
       748.9844
  -9613052.55449  -7483874.42347  19368398.9344   19368396.9534
      1265.2194
 -10109956.22348  -7873352.56443  22008898.1914   22008897.7344
       798.1094
 -18532492.07549 -14436819.51746  20475881.2934   20475879.4734
      3490.5944
 04  9 14 22 30 59.9960000  0  6G 8G13G19G27G10G28
 -16277235.08349 -12667647.13748  19212317.0274   19212315.4064
      2362.1724
   3004067.56348   2339214.34346  20762822.4494   20762820.8484
     -1682.9224
 -12541375.66349  -9756257.93046  21192507.1134   21192504.1134
       740.0314
  -9632009.47449  -7498646.06147  19364791.7384   19364790.1254
      1262.0314
 -10121865.82448  -7882632.77943  22006631.8954   22006631.1644
       789.6254
 -18584816.56249 -14477591.82746  20465924.6844   20465921.8794
      3485.7344
 04  9 14 22 31 14.9960000  0  6G 8G13G19G27G10G28
 -16312638.54649 -12695234.24548  19205579.9104   19205578.3524
      2358.1254
   3029351.24248   2358915.89246  20767633.9184   20767632.6134
     -1688.3754
 -12552407.38249  -9764854.06746  21190408.3164   21190405.0944
       730.7974
  -9650913.87249  -7513376.75447  19361194.0664   19361192.3204
      1258.4064
 -10133644.17848  -7891810.73243  22004390.6684   22004390.0004
       780.7344
 -18637064.11949 -14518304.17747  20455982.2464   20455979.2774
      3480.4694
 04  9 14 22 31 29.9960000  0  6G 8G13G19G27G10G28
 -16347982.24149 -12722774.77348  19198853.9814   19198852.3594
      2354.0634
   3054714.79248   2378679.67046  20772460.4414   20772458.9964
     -1693.7034
 -12563301.20249  -9773342.75346  21188334.5824   21188331.6804
       721.4224
  -9669765.43149  -7528066.27547  19357607.1294   19357605.0944
      1254.8444
 -10145291.02848  -7900886.18943  22002174.4964   22002173.7854
       771.8754
 -18689234.28549 -14558956.23646  20446054.3244   20446052.0274
      3475.1884
 04  9 14 22 31 44.9960000  0  6G 8G13G19G27G10G28
 -16383269.73349 -12750271.51348  19192138.8954   19192136.8014
      2350.8284
   3080154.56748   2398502.84046  20777301.7774   20777300.2854
     -1698.4374
 -12574060.45249  -9781726.59546  21186287.1684   21186284.3094
       712.9844
  -9688567.22549  -7542717.03147  19354028.9964   19354027.0824
      1251.9844
 -10156809.94148  -7909861.98444  21999982.0514   21999981.6484
       763.7974
 -18741330.33449 -14599550.53346  20436140.8794   20436138.4384
      3470.7504
 04  9 14 22 31 59.9950000  0  6G 8G13G19G27G10G28
 -16418501.38249 -12777724.74048  19185434.6164   19185432.8394
      2346.8914
   3105665.94148   2418381.81146  20782156.2104   20782154.3584
     -1703.5314
 -12584687.35149  -9790007.29746  21184265.0234   21184261.8124
       703.9384
  -9707320.86949  -7557330.26247  19350460.6014   19350458.5774
      1248.5164
 -10168203.14148  -7918739.81243  21997814.1404   21997813.4874
       755.1724
 -18793351.64549 -14640086.59246  20426241.4604   20426238.9484
      3465.7194
 04  9 14 22 32 14.9950000  0  6G 8G13G19G27G10G28
 -16453681.79449 -12805138.02848  19178739.9914   19178738.4834
      2343.8284
   3131251.99748   2438318.97646  20787025.0934   20787023.5544
     -1707.9224
 -12595183.45549  -9798186.05746  21182267.5384   21182264.2804
       695.6094
  -9726028.66449  -7571907.75447  19346900.4604   19346898.6404
      1245.9064
 -10179472.36348  -7927521.02743  21995669.8984   21995669.5424
       747.4384
 -18845304.99049 -14680569.68946  20416355.0384   20416352.5504
      3461.4064
 04  9 14 22 32 29.9950000  0  6G 8G13G19G27G10G28
 -16488807.26849 -12832508.53548  19172055.7104   19172054.5504
      2340.0474
   3156911.80748   2458313.59846  20791907.8984   20791906.0424
     -1712.9224
 -12605547.04749  -9806261.60446  21180295.4444   21180292.4804
       686.7034
  -9744688.40149  -7586447.81847  19343349.7574   19343347.8004
      1242.5474
 -10190615.85348  -7936204.26943  21993549.8354   21993549.0464
       738.9694
 -18897185.88249 -14720996.34347  20406482.6244   20406480.1204
      3456.4534
 04  9 14 22 32 44.9950000  0  6G 8G13G19G27G10G28
 -16523876.73649 -12859835.38448  19165382.1014   19165380.8154
      2336.0314
   3182646.37648   2478366.48346  20796805.0774   20796803.6634
     -1718.1874
 -12615776.95349  -9814232.95546  21178348.9054   21178345.8784
       677.5164
  -9763298.77249  -7600949.41347  19339808.1554   19339806.2064
      1239.0784
 -10201632.52548  -7944788.70743  21991453.3664   21991452.0774
       730.1724
 -18948993.06049 -14761365.54546  20396624.3514   20396621.1514
      3451.3594
 04  9 14 22 32 59.9950000  0  6G 8G13G19G27G10G28
 -16558892.03349 -12887120.02748  19158719.2264   19158717.4724
      2332.3134
   3208453.64748   2498476.01245  20801715.9374   20801714.7804
     -1723.0944
 -12625874.99449  -9822101.55946  21176427.1484   21176424.3704
       668.6094
  -9781861.34949  -7615413.75547  19336275.9994   19336273.8194
      1235.7344
 -10212524.52748  -7953275.95444  21989380.9994   21989379.5504
       721.8134
 -19000728.30049 -14801678.70146  20386778.8514   20386776.2694
      3446.4534
 04  9 14 22 33 14.9950000  0  6G 8G13G19G27G10G28
 -16593852.00749 -12914361.55748  19152066.2734   19152064.6364
      2328.4694
   3234334.13848   2518642.62046  20806641.0074   20806639.4134
     -1728.1094
 -12635840.54148  -9829866.91946  21174531.2494   21174527.9094
       659.6414
  -9800375.39249  -7629840.27747  19332752.9834   19332750.8354
      1232.3284
 -10223291.21747  -7961665.58644  21987331.7884   21987330.9724
       713.2504
 -19052390.72749 -14841935.11247  20376947.7494   20376945.3744
      3441.4534
 04  9 14 22 33 29.9950000  0  6G 8G13G19G27G10G28
 -16628757.73849 -12941560.82248  19145424.2884   19145422.4214
      2325.0314
   3260286.31148   2538865.05846  20811579.7574   20811578.2924
     -1732.6724
 -12645674.95548  -9837530.10746  21172659.5384   21172656.5734
       651.0784
  -9818842.08149  -7644229.91047  19329238.8664   19329236.5974
      1229.3914
 -10233934.08846  -7969958.75243  21985306.2734   21985305.3004
       705.3134
 -19103981.67249 -14882135.82547  20367130.3744   20367127.9764
      3436.8444
 04  9 14 22 33 44.9950000  0  6G 8G13G19G27G10G28
 -16663608.61149 -12968717.34048  19138792.3434   19138790.8554
      2321.8594
   3286310.67148   2559143.75945  20816531.4294   20816530.4564
     -1737.0164
 -12655377.61448  -9845090.61546  21170813.3434   21170810.2454
       642.7814
  -9837260.59249  -7658581.99247  19325733.6944   19325731.7534
      1226.6254
 -10244452.49247  -7978154.90144  21983304.6084   21983304.3194
       697.4224
 -19155500.23149 -14922280.13447  20357326.8584   20357324.1834
      3432.4534
 04  9 14 22 33 59.9950000  0  6G 8G13G19G27G10G28
 -16698407.94649 -12995833.69348  19132169.9444   19132168.5464
      2318.0784
   3312403.49048   2579475.80046  20821497.0234   20821496.0774
     -1741.8284
 -12664951.84549  -9852551.06146  21168991.0384   21168988.0384
       633.8754
  -9855634.18849  -7672899.08647  19322237.2804   19322235.4764
      1223.2814
 -10254849.96048  -7986256.84044  21981326.5854   21981325.3154
       688.8754
 -19206949.71849 -14962370.61847  20347536.2414   20347533.8044
      3427.5164
 04  9 14 22 34 14.9950000  0  6G 8G13G19G27G10G28
 -16733151.61349 -13022906.67948  19125558.6324   19125556.7374
      2314.3594
   3338568.81848   2599864.32846  20826476.5624   20826474.8824
     -1746.7504
 -12674393.58349  -9859908.26946  21167194.1324   21167191.2104
       625.0784
  -9873958.65349  -7687177.89547  19318750.3274   19318748.3194
      1220.0314
 -10265122.58448  -7994261.50643  21979370.9374   21979371.1794
       680.6724
 -19258325.92749 -15002404.01147  20337759.3434   20337756.9134
      3422.7034
 04  9 14 22 34 29.9950000  0  6G 8G13G19G27G10G28
 -16767838.98249 -13049935.78948  19118957.8194   19118955.8194
      2310.5784
   3364806.73848   2620309.45245  20831468.8044   20831467.8554
     -1751.5624
 -12683702.62948  -9867162.06546  21165422.9294   21165419.8704
       616.1884
  -9892233.52849  -7701418.06247  19315272.5544   19315269.8984
      1216.6724
 -10275270.19648  -8002168.74443  21977440.1714   21977439.4684
       672.3284
 -19309628.46149 -15042379.98847  20327996.7964   20327994.9254
      3417.7504
 04  9 14 22 34 44.9950000  0  6G 8G13G19G27G10G28
 -16802472.09949 -13076922.61848  19112367.3744   19112365.7144
      2306.7974
   3391114.79848   2640809.19845  20836475.4834   20836473.8824
     -1756.4694
 -12692881.04349  -9874314.08146  21163676.1324   21163673.4684
       607.2974
  -9910460.89649  -7715621.20447  19311804.2264   19311802.4294
      1213.2504
 -10285295.09148  -8009980.35943  21975533.5384   21975532.3314
       663.9694
 -19360859.34849 -15082300.14147  20318248.2494   20318245.8554
      3412.7194
 04  9 14 22 34 59.9950000  0  6G 8G13G19G27G10G28
 -16837046.42349 -13103863.66448  19105788.2264   19105786.6444
      2303.3444
   3417497.20548   2661366.88745  20841496.0694   20841494.4604
     -1761.0164
 -12701924.64349  -9881361.04446  21161955.1794   21161952.3274
       598.7504
  -9928636.23849  -7729783.80747  19308345.5304   19308343.2304
      1210.2974
 -10295193.04148  -8017693.04943  21973649.2654   21973648.2734
       655.9224
 -19412014.24649 -15122161.08247  20308513.7804   20308511.4174
      3408.1414
 04  9 14 22 35 14.9950000  0  6G 8G13G19G27G10G28
 -16871569.78949 -13130764.96948  19099218.7414   19099216.7264
      2299.9384
   3443945.91248   2681976.24445  20846528.8584   20846527.9054
     -1765.4064
 -12710841.27649  -9888309.07046  21160258.9834   21160255.6484
       590.2194
  -9946767.24449  -7743911.85847  19304895.5854   19304893.4214
      1207.2814
 -10304972.03448  -8025313.05343  21971788.2334   21971787.1674
       648.0004
 -19463100.85949 -15161968.80347  20298792.3274   20298789.8434
      3403.5474
 04  9 14 22 35 29.9950000  0  6G 8G13G19G27G10G28
 -16906036.95449 -13157622.49748  19092659.7494   19092657.6674
      2296.1884
   3470465.68848   2702640.98245  20851575.4764   20851573.9404
     -1770.0314
 -12719626.05049  -9895154.34946  21158587.1944   21158583.8084
       581.5634
  -9964848.86649  -7758001.44547  19301454.6484   19301452.5814
      1204.0314
 -10314627.23648  -8032836.60943  21969950.9134   21969950.4484
       639.8134
 -19514114.11949 -15201719.38247  20289084.8744   20289082.2104
      3398.7034
 04  9 14 22 35 44.9950000  0  6G 8G13G19G27G10G28
 -16940450.04849 -13184437.89148  19086110.9374   19086108.8864
      2292.2344
   3497054.20848   2723359.28245  20856635.1554   20856633.8584
     -1775.0474
 -12728281.08649  -9901898.54446  21156939.9134   21156937.3944
       572.4534
  -9982883.02449  -7772054.03547  19298022.8194   19298020.7964
      1200.4534
 -10324160.86348  -8040265.41244  21968136.8514   21968136.0034
       631.3754
 -19565056.03249 -15241414.34747  20279391.1164   20279388.4094
      3393.5474
 04  9 14 22 35 59.9950000  0  6G 8G13G19G27G10G28
 -16974809.94449 -13211211.83248  19079572.1714   19079570.6014
      2288.5944
   3523710.33848   2744130.25445  20861707.6324   20861706.1874
     -1779.6094
 -12736807.22549  -9908542.29046  21155317.7884   21155314.5854
       563.8594
 -10000870.62649  -7786070.35547  19294599.8514   19294597.7334
      1197.3444
 -10333574.06648  -8047600.36743  21966345.8584   21966345.3274
       623.3134
 -19615927.35449 -15281054.33047  20269710.2104   20269707.7224
      3388.8134
 04  9 14 22 36 14.9950000  0  6G 8G13G19G27G10G28
 -17009118.57149 -13237945.82848  19073043.8584   19073042.2494
      2285.4694
   3550431.45148   2764951.87045  20866792.2884   20866791.5194
     -1783.5474
 -12745206.86649  -9915087.46046  21153719.1874   21153716.4524
       555.7664
 -10018813.69549  -7800051.97347  19291185.3664   19291183.4644
      1194.7344
 -10342869.23948  -8054843.37244  21964577.0854   21964576.2104
       615.7034
 -19666730.47949 -15320641.16547  20260042.7734   20260040.1754
      3384.5634
 04  9 14 22 36 29.9950000  0  6G 8G13G19G27G10G28
 -17043376.40649 -13264640.24648  19066524.7964   19066523.1794
      2282.4384
   3577216.82848   2785823.56645  20871889.8664   20871888.6904
     -1787.5944
 -12753480.70949  -9921534.61546  21152145.0854   21152141.7304
       547.6564
 -10036712.76749  -7813999.29547  19287779.5934   19287777.4174
      1192.0314
 -10352047.12848  -8061994.99044  21962830.4764   21962829.7184
       608.2664
 -19717465.83949 -15360175.19547  20250388.2574   20250385.7764
      3380.3284
 04  9 14 22 36 44.9950000  0  6G 8G13G19G27G10G28
 -17077580.62549 -13291292.87548  19060015.9764   19060013.9834
      2278.3914
   3604068.94448   2806747.26945  20876999.1714   20876998.0544
     -1792.3754
 -12761626.16549  -9927881.71946  21150594.5464   21150592.1674
       538.6884
 -10054565.00349  -7827910.13347  19284381.8514   19284380.2654
      1188.5164
 -10361105.24448  -8069053.26543  21961106.7734   21961105.8584
       599.8284
 -19768130.64249 -15399654.23247  20240746.9214   20240744.6084
      3375.2344
 04  9 14 22 36 59.9950000  0  6G 8G13G19G27G10G28
 -17111729.44149 -13317902.34448  19053517.7184   19053515.8154
      2274.7504
   3630989.20748   2827724.05045  20882122.4134   20882120.8624
     -1796.9374
 -12769641.55349  -9934127.49246  21149069.5774   21149066.2844
       530.0634
 -10072368.59949  -7841783.07047  19280994.3584   19280991.8624
      1185.3134
 -10370042.07548  -8076017.04044  21959406.2334   21959404.7224
       591.7974
 -19818723.01549 -15439076.84447  20231119.5234   20231116.6714
      3370.4224
 04  9 14 22 37 14.9950000  0  6G 8G13G19G27G10G28
 -17145826.45049 -13344471.43948  19047029.3664   19047027.5584
      2271.4224
   3657973.94648   2848751.10445  20887257.3124   20887256.1594
     -1801.1564
 -12777530.38549  -9940274.62846  21147568.3354   21147565.8664
       521.7034
 -10090126.99949  -7855620.79147  19277614.6944   19277612.4954
      1182.3284
 -10378861.22348  -8082889.11244  21957727.9374   21957726.7334
       583.9534
 -19869246.53249 -15478445.79047  20221505.1164   20221502.3434
      3365.9534
 04  9 14 22 37 29.9950000  0  6G 8G13G19G27G10G28
 -17179873.04349 -13371001.23548  19040550.4054   19040548.9334
      2268.1724
   3685021.55048   2869827.13145  20892404.4374   20892402.9054
     -1805.1724
 -12785294.25248  -9946324.39546  21146090.7654   21146088.3584
       513.5784
 -10107841.53949  -7869424.32247  19274243.7334   19274241.8554
      1179.6094
 -10387564.29948  -8089670.72843  21956071.8514   21956071.3314
       576.3914
 -19919702.53049 -15517762.12847  20211903.2574   20211901.1794
      3361.5634
 04  9 14 22 37 44.9950000  0  6G 8G13G19G27G10G28
 -17213864.56049 -13397488.14548  19034081.9214   19034080.0504
      2263.9844
   3712135.87448   2890955.14445  20897563.6944   20897562.9134
     -1810.0944
 -12792929.04149  -9952273.58746  21144637.5464   21144635.2264
       504.4384
 -10125507.81649  -7883190.27147  19270881.9444   19270880.0234
      1175.7814
 -10396147.36648  -8096358.84843  21954437.9524   21954437.5814
       567.9694
 -19970086.81649 -15557022.60447  20202315.6164   20202313.3784
      3356.2814
 04  9 14 22 37 59.9950000  0  6G 8G13G19G27G10G28
 -17247800.87249 -13423932.01648  19027623.8354   19027622.0384
      2260.6564
   3739316.91148   2912135.13545  20902736.0624   20902735.0934
     -1814.2664
 -12800434.49648  -9958121.99746  21143209.6324   21143207.0464
       496.0944
 -10143125.58049  -7896918.39347  19267529.6944   19267527.4174
      1172.9844
 -10404610.28048  -8102953.32743  21952827.1794   21952826.7534
       560.2504
 -20020399.00349 -15596226.88347  20192741.6404   20192738.8194
      3351.8754
 04  9 14 22 38 14.9950000  0  6G 8G13G19G27G10G28
 -17281681.94049 -13450332.85148  19021176.6944   19021174.8004
      2257.0474
   3766564.14348   2933366.72245  20907921.5154   20907920.2764
     -1818.5314
 -12807811.00748  -9963869.93146  21141805.5774   21141803.1404
       487.5634
 -10160695.03049  -7910608.89047  19264186.4524   19264184.1484
      1169.8444
 -10412953.57548  -8109454.62143  21951239.8824   21951238.8434
       552.4384
 -20070639.27849 -15635375.13446  20183181.3514   20183178.6984
      3347.1094
 04  9 14 22 38 29.9950000  0  6G 8G13G19G27G10G28
 -17315504.16149 -13476687.82548  19014740.5304   19014738.8154
      2252.6884
   3793881.02348   2954652.58245  20913119.2024   20913118.2494
     -1823.6874
 -12815054.98548  -9969514.59046  21140427.4214   21140425.0774
       478.2504
 -10178212.31049  -7924258.72747  19260852.5934   19260850.6794
      1165.8754
 -10421173.63247  -8115859.86543  21949675.6874   21949675.5734
       543.7194
 -20120803.83649 -15674464.37847  20173635.2024   20173632.4954
      3341.5784
 04  9 14 22 38 44.9950000  0  6G 8G13G19G27G10G28
 -17349270.09149 -13502998.94048  19008314.9524   19008313.0894
      2249.1884
   3821264.51448   2975990.32545  20918330.7104   20918329.2184
     -1827.7664
 -12822169.31648  -9975058.23946  21139073.6714   21139070.6054
       470.0004
 -10195680.08949  -7937869.98547  19257528.9914   19257526.8004
      1162.9224
 -10429273.50647  -8122171.45743  21948135.1244   21948133.8354
       536.0004
 -20170895.51149 -15713496.83747  20164103.1084   20164100.7304
      3337.0004
 04  9 14 22 38 59.9950000  0  6G 8G13G19G27G10G28
 -17382978.74849 -13529265.42948  19001900.8824   19001898.5814
      2245.0474
   3848715.27348   2997380.49945  20923554.5154   20923552.6514
     -1832.5624
 -12829153.23948  -9980500.25146  21137744.2654   21137741.5654
       460.9844
 -10213097.52749  -7951442.02447  19254214.2964   19254212.0424
      1159.2344
 -10437252.50448  -8128388.88144  21946616.7104   21946615.5654
       527.6254
 -20220913.45549 -15752471.83947  20154585.1944   20154582.7804
      3331.7974
 04  9 14 22 39 14.9950000  0  6G 8G13G19G27G10G28
 -17416630.07849 -13555487.22648  18995496.8194   18995494.9444
      2241.9224
   3876233.08748   3018822.92045  20928790.9524   20928789.8234
     -1836.3754
 -12836006.81548  -9985840.70546  21136440.7574   21136437.6444
       452.9844
 -10230464.34149  -7964974.60247  19250909.4134   19250907.2924
      1156.4694
 -10445110.85447  -8134512.24843  21945121.4914   21945119.9444
       520.2664
 -20270857.49849 -15791389.25347  20145080.9524   20145078.6594
      3327.5474
 04  9 14 22 39 29.9950000  0  6G 8G13G19G27G10G28
 -17450226.30549 -13581666.11448  18989103.9444   18989102.0154
      2237.6094
   3903815.40748   3040315.61145  20934039.5234   20934038.0504
     -1841.3594
 -12842732.48848  -9991081.50046  21135160.4994   21135157.6594
       443.7814
 -10247782.83949  -7978469.55047  19247614.2414   19247611.9644
      1152.6724
 -10452850.97948  -8140543.52243  21943648.1554   21943647.1444
       511.8284
 -20320729.97749 -15830250.90747  20135590.5074   20135587.5774
      3322.1254
 04  9 14 22 39 44.9950000  0  6G 8G13G19G27G10G28
 -17483767.37849 -13607802.01048  18982721.3664   18982719.0814
      2234.1884
   3931461.94948   3061858.33245  20939300.3824   20939299.1084
     -1845.1564
 -12849330.25248  -9996222.60646  21133905.1944   21133902.7144
       435.5784
 -10265052.87949  -7991926.72247  19244327.4374   19244325.5464
      1149.6724
 -10460473.15247  -8146482.90344  21942197.3664   21942196.7374
       504.2504
 -20370530.75349 -15869056.69047  20126113.6874   20126111.0974
      3317.6564
 04  9 14 22 39 59.9950000  0  6G 8G13G19G27G10G28
 -17517250.58749 -13633892.82848  18976349.4684   18976347.5894
      2230.1254
   3959175.01648   3083452.90145  20944574.2734   20944573.1164
     -1849.8914
 -12855797.56148 -10001262.07546  21132673.8904   21132671.7884
       426.6884
 -10282271.72749  -8005344.01247  19241050.8434   19241048.7924
      1146.0314
 -10467975.01046  -8152328.53443  21940770.5304   21940769.3394
       495.9844
 -20420257.19649 -15907804.55547  20116651.0304   20116648.4254
      3312.5164
 04  9 14 22 40 14.9950000  0  6G 8G13G19G27G10G28
 -17550675.99649 -13659938.59348  18969988.9994   18969987.2734
      2226.2974
   3986954.21448   3105098.99445  20949860.6484   20949859.2184
     -1854.2504
 -12862134.86048 -10006200.23546  21131468.5464   21131465.7534
       418.0004
 -10299439.56749  -8018721.55547  19237783.9214   19237782.0814
      1142.6254
 -10475356.93647  -8158080.68543  21939365.4684   21939364.3154
       488.0314
 -20469909.49749 -15946494.63547  20107202.6714   20107199.7264
      3307.5784
 04  9 14 22 40 29.9950000  0  6G 8G13G19G27G10G28
 -17584044.24149 -13685939.82448  18963639.2804   18963637.1634
      2222.3134
   4014798.25048   3126795.61245  20955159.0774   20955157.5584
     -1858.8914
 -12868343.17848 -10011037.89446  21130287.0544   21130284.0544
       409.2504
 -10316557.25849  -8032060.01647  19234526.5854   19234524.5504
      1139.1884
 -10482620.02348  -8163740.24144  21937983.4834   21937982.5154
       479.8594
 -20519488.63649 -15985127.71447  20097767.8044   20097765.1444
      3302.4694
 04  9 14 22 40 44.9950000  0  6G 8G13G19G27G10G28
 -17617356.81849 -13711897.66348  18957299.9444   18957298.1484
      2219.3444
   4042705.42048   3148541.43945  20960469.3904   20960468.5584
     -1862.2664
 -12874424.09948 -10015776.27346  21129130.0074   21129127.0934
       401.4224
 -10333626.08749  -8045360.40447  19231278.3044   19231276.1634
      1136.6094
 -10489765.83847  -8169308.39144  21936623.1404   21936623.2884
       472.7504
 -20568995.86149 -16023704.75146  20088346.9764   20088344.0504
      3298.4384
 04  9 14 22 40 59.9950000  0  6G 8G13G19G27G10G28
 -17650617.24149 -13737814.88048  18950970.8904   18950968.6904
      2215.3594
   4070672.17048   3170333.68245  20965792.1164   20965790.5624
     -1866.6874
 -12880381.15048 -10020418.13146  21127996.3984   21127993.1444
       392.7504
 -10350649.52749  -8058625.42647  19228039.3584   19228036.7224
      1133.1254
 -10496798.11547  -8174788.11543  21935284.6634   21935284.8314
       464.8134
 -20618434.66048 -16062228.46847  20078938.8354   20078936.5654
      3293.3914
 04  9 14 22 41 14.9950000  0  6G 8G13G19G27G10G28
 -17683822.90949 -13763689.41648  18944651.9374   18944649.6834
      2212.0314
   4098700.40748   3192173.84245  20971124.9374   20971123.4834
     -1870.3914
 -12886212.01248 -10024961.66846  21126887.1794   21126883.6204
       384.7034
 -10367625.03749  -8071853.10047  19224808.7334   19224806.5584
      1130.3284
 -10503714.79348  -8180177.75943  21933968.8354   21933968.3354
       457.4384
 -20667802.68349 -16100697.03647  20069544.5694   20069542.1284
      3289.0314
 04  9 14 22 41 29.9950000  0  7G31G 8G13G19G27G10G28
   -250948.44055   -164935.48652  22606097.1324   22606098.5344
      5277.8444
 -17716970.55549 -13789518.75248  18938344.1244   18938341.8474
      2208.1414
   4126793.16648   3214064.25945  20976471.1244   20976469.7334
     -1874.7664
 -12891913.58148 -10029404.44846  21125801.7884   21125798.5464
       376.0784
 -10384549.32949  -8085040.85947  19221588.0624   19221585.7734
      1126.7974
 -10510512.80747  -8185474.92443  21932675.6944   21932674.8154
       449.4534
 -20717096.52548 -16139107.81147  20060164.7334   20060161.8824
      3284.0314
 04  9 14 22 41 44.9950000  0  7G31G 8G13G19G27G10G28
   -330110.50046   -226620.10443  22591033.2494   22591034.7454
      5277.5634
 -17750057.72749 -13815300.95948  18932047.7884   18932045.5934
      2203.8284
   4154952.52648   3236006.58345  20981829.9444   20981828.9484
     -1879.4534
 -12897483.68948 -10033744.79146  21124742.0544   21124738.5854
       366.9694
 -10401419.85749  -8098186.73447  19218377.6404   19218375.8394
      1122.8754
 -10517189.99847  -8190677.92343  21931404.6404   21931403.7064
       441.1414
 -20766313.88649 -16177458.99147  20050798.6714   20050795.6834
      3278.5784
 04  9 14 22 41 59.9950000  0  8G31G 8G13G19G29G27G10G28
   -409275.85446   -288307.34142  22575968.7494   22575970.2224
      5277.7504
 -17783087.33149 -13841038.32048  18925762.6554   18925760.7844
      2199.8914
   4183175.32048   3257998.34845  20987200.5544   20987199.3784
     -1883.7974
 -12902925.45548 -10037985.14146  21123706.5624   21123703.5814
       358.4064
   -219245.88057   -143736.29852  22753544.5624   22753543.6284
      4632.0784
 -10418239.72249  -8111293.12847  19215177.0934   19215175.2024
      1119.5634
 -10523749.69248  -8195789.39143  21930156.1634   21930155.4054
       433.2974
 -20815457.72449 -16215752.86647  20041447.0154   20041444.5464
      3273.6254
 04  9 14 22 42 14.9950000  0  8G31G 8G13G19G29G27G10G28
   -488445.29446   -349997.70143  22560903.5384   22560904.3984
      5278.0004
 -17816060.22049 -13866731.46848  18919487.8194   18919486.0074
      2196.2034
   4211459.99648   3280038.32145  20992582.8744   20992581.3984
     -1887.7814
 -12908240.03748 -10042126.37446  21122694.6794   21122691.7734
       349.9384
   -288715.63847   -197868.56942  22740324.6554   22740323.6084
      4630.3284
 -10435009.80149  -8124360.71347  19211985.9834   19211983.7574
      1116.2974
 -10530193.18847  -8200810.30443  21928930.1164   21928929.3704
       425.6254
 -20864529.19648 -16253990.35947  20032108.7024   20032106.1794
      3268.9224
 04  9 14 22 42 29.9950000  0  8G31G 8G13G19G29G27G10G28
   -567613.50746   -411687.18142  22545839.1554   22545839.0584
      5277.8444
 -17848971.53349 -13892376.64348  18913225.2184   18913222.9604
      2191.9534
   4239811.15248   3302130.10545  20997977.9444   20997976.4764
     -1892.4224
 -12913422.67548 -10046164.80246  21121708.7414   21121706.0934
       341.0474
   -358154.25847   -251976.56142  22727110.8434   22727110.0584
      4628.1884
 -10451725.10249  -8137385.63447  19208805.0774   19208803.0854
      1112.4534
 -10536515.70047  -8205736.94243  21927727.3354   21927726.5504
       417.4224
 -20913523.25848 -16292167.52847  20022785.4914   20022782.9094
      3263.6254
 04  9 14 22 42 44.9950000  0  8G31G 8G13G19G29G27G10G28
   -646779.00246   -473374.47642  22530773.5624   22530774.1714
      5277.4534
 -17881819.96349 -13917972.82448  18906974.3984   18906971.9254
      2187.7034
   4268229.84448   3324274.50245  21003385.2184   21003384.4484
     -1896.8754
 -12918472.39948 -10050099.65346  21120747.9134   21120745.0934
       332.1254
   -427560.19247   -306059.07542  22713902.7804   22713903.4724
      4625.7814
 -10468384.40749  -8150366.90847  19205634.7184   19205632.8944
      1108.6254
 -10542716.24747  -8210568.55043  21926547.2804   21926546.6084
       409.2344
 -20962438.61648 -16330283.38047  20013477.2414   20013475.1324
      3258.3284
 04  9 14 22 42 59.9950000  0  8G31G 8G13G19G29G27G10G28
   -725948.20746   -535064.69442  22515708.4684   22515708.6084
      5277.9384
 -17914612.14549 -13943525.17348  18900734.2574   18900732.0464
      2184.1724
   4296709.05348   3346466.05945  21008805.2804   21008804.2414
     -1900.6874
 -12923396.03148 -10053936.25946  21119811.6794   21119807.8624
       323.9224
   -496940.07447   -360121.30342  22700700.4134   22700700.6364
      4624.3284
 -10484994.35449  -8163309.72647  19202474.1164   19202472.0384
      1105.6094
 -10548801.90147  -8215310.64243  21925388.4994   21925388.7614
       401.7504
 -21011282.12148 -16368343.23447  20004182.8434   20004179.6364
      3253.7504
 04  9 14 22 43 14.9950000  0  8G31G 8G13G19G29G27G10G28
   -805120.87646   -596757.65642  22500642.3434   22500642.3044
      5278.0474
 -17947348.25249 -13969033.82048  18894504.6944   18894502.3784
      2180.3594
   4325248.44348   3368704.51445  21014235.5934   21014235.0584
     -1904.8444
 -12928193.78148 -10057674.76246  21118897.6944   21118894.7104
       315.4534
   -566293.53447   -414162.92742  22687503.6554   22687503.2454
      4622.5164
 -10501555.03949  -8176214.17147  19199322.7964   19199321.0154
      1102.1414
 -10554773.01147  -8219963.45444  21924252.8824   21924252.3124
       394.0314
 -21060053.94348 -16406347.23747  19994901.6714   19994898.9054
      3248.8754
 04  9 14 22 43 29.9950000  0  8G31G 8G13G19G29G27G10G28
   -884293.22047   -658450.29543  22485576.9764   22485576.1484
      5278.1724
 -17980024.63249 -13994495.92548  18888286.5384   18888284.3864
      2176.4224
   4353851.14248   3390992.31345  21019678.6324   21019678.1554
     -1908.9844
 -12932862.36148 -10061312.61746  21118009.5464   21118006.3824
       306.8444
   -635617.02847   -468181.22142  22674311.5304   22674311.2494
      4620.4844
 -10518062.95349  -8189077.46747  19196181.3584   19196179.2454
      1098.7034
 -10560626.35748  -8224524.51643  21923139.4604   21923138.2264
       386.2814
 -21108750.51648 -16444292.59147  19985634.9764   19985631.9724
      3243.8914
 04  9 14 22 43 44.9950000  0  8G31G 8G13G19G29G27G10G28
   -963465.30846   -720142.72242  22470510.8274   22470509.9484
      5278.2194
 -18012641.56149 -14019911.71348  18882079.7734   18882078.2104
      2172.6094
   4382516.42748   3413328.85645  21025133.4294   21025132.7494
     -1912.9224
 -12937402.29748 -10064850.24045  21117145.3434   21117142.7494
       298.5944
   -704910.65046   -522176.26842  22661125.0774   22661124.8784
      4618.7974
 -10534518.22049  -8201899.75447  19193050.2334   19193048.3194
      1095.4064
 -10566362.58648  -8228994.30743  21922047.7964   21922046.6444
       378.6884
 -21157372.21348 -16482179.61647  19976382.5384   19976379.9404
      3239.1254
 04  9 14 22 43 59.9950000  0  8G31G 8G13G19G29G27G10G28
  -1042636.14247   -781834.26642  22455445.1554   22455444.6444
      5277.7664
 -18045198.32849 -14045280.62548  18875884.3044   18875882.6124
      2168.1094
   4411244.81648   3435714.57745  21030600.6084   21030599.8004
     -1917.6564
 -12941812.93448 -10068287.10346  21116306.3274   21116303.4524
       289.4064
   -774173.26746   -576147.07142  22647944.3434   22647943.9874
      4616.2344
 -10550920.25549  -8214680.56447  19189928.8744   19189927.1054
      1091.3914
 -10571981.16048  -8233372.41243  21920978.2734   21920978.2454
       370.3594
 -21205918.18949 -16520007.62947  19967144.4524   19967141.9374
      3233.5784
 04  9 14 22 44 14.9950000  0  8G31G 8G13G19G29G27G10G28
  -1121799.53547   -843519.93543  22440380.8354   22440380.1984
      5277.3914
 -18077689.06149 -14070598.07648  18869701.6794   18869699.4444
      2163.9534
   4440041.72648   3458153.69245  21036080.5074   21036079.7574
     -1922.0314
 -12946088.82348 -10071618.98446  21115493.0384   21115489.8704
       280.5944
   -843398.93546   -630089.13242  22634770.9914   22634770.6674
      4613.9224
 -10567263.15249  -8227415.29547  19186818.9374   19186817.0384
      1087.6414
 -10577476.64748  -8237654.65143  21919932.7334   21919932.0344
       362.3444
 -21254382.85048 -16557772.28247  19957921.9684   19957919.0734
      3228.3754
 04  9 14 22 44 29.9950000  0  8G31G 8G13G19G29G27G10G28
  -1200960.75947   -905203.93643  22425316.8274   22425316.2144
      5276.9224
 -18110119.12449 -14095868.24848  18863530.2414   18863528.3664
      2159.5634
   4468901.34548   3480641.67945  21041572.4914   21041571.7264
     -1926.5164
 -12950235.51448 -10074850.17246  21114703.6404   21114700.5464
       271.6724
   -912592.95746   -684006.52942  22621603.8354   22621603.5814
      4611.4384
 -10583552.36749  -8240108.18747  19183719.2334   19183717.3274
      1083.7504
 -10582854.77648  -8241845.40843  21918909.3194   21918908.5264
       354.2194
 -21302771.63148 -16595477.80547  19948713.6714   19948711.2414
      3223.0004
 04  9 14 22 44 44.9950000  0  8G31G 8G13G19G29G27G10G28
  -1280114.29347   -966881.94642  22410253.8354   22410254.1164
      5276.5164
 -18142483.30449 -14121087.08348  18857371.7804   18857369.9604
      2155.2974
   4497828.52048   3503182.29445  21047076.5774   21047075.9834
     -1930.9064
 -12954248.02048 -10077976.79146  21113939.9994   21113937.2534
       262.8754
   -981749.91246   -737895.01842  22608444.1244   22608443.4254
      4609.0944
 -10599782.64249  -8252755.15147  19180630.7264   19180628.8704
      1079.8754
 -10588110.67148  -8245940.92543  21917909.1324   21917907.9484
       346.2504
 -21351079.38848 -16633120.19147  19939521.2654   19939518.5774
      3217.6724
 04  9 14 22 44 59.9950000  0  8G31G 8G13G19G29G27G10G28
  -1359259.02847  -1028553.11542  22395193.4764   22395193.1164
      5276.0784
 -18174780.79949 -14146253.96348  18851225.5624   18851223.5584
      2151.0004
   4526823.70348   3525775.91345  21052594.4764   21052593.1794
     -1935.2194
 -12958125.71848 -10080998.38746  21113202.3194   21113199.2454
       254.0474
  -1050868.59947   -791753.71542  22595291.1324   22595289.9764
      4606.6094
 -10615953.15749  -8265355.56047  19177553.6014   19177551.7574
      1076.0004
 -10593243.78447  -8249940.75743  21916932.0934   21916931.3904
       338.1414
 -21399305.27648 -16670698.79147  19930343.9524   19930341.8044
      3212.2974
 04  9 14 22 45 14.9950000  0  8G31G 8G13G19G29G27G10G28
  -1438391.82846  -1090214.96742  22380134.4524   22380134.4564
      5274.9384
 -18207008.72749 -14171366.62148  18845092.8824   18845090.9684
      2146.0784
   4555889.60348   3548424.63945  21058125.2884   21058124.6754
     -1940.2034
 -12961865.94548 -10083912.85146  21112490.6944   21112487.7574
       244.6414
  -1119946.09147   -845580.28942  22582146.9764   22582145.3084
      4603.6564
 -10632060.88349  -8277907.03047  19174488.2654   19174486.4914
      1071.6724
 -10598251.43748  -8253842.82743  21915980.5854   21915978.4804
       329.5944
 -21447446.49948 -16708211.41447  19921183.3584   19921180.4214
      3206.4224
 04  9 14 22 45 29.9950000  0  8G31G 8G13G19G29G27G10G28
  -1517510.15547  -1151865.53843  22365078.7494   22365079.3044
      5274.5314
 -18239164.74249 -14196423.26048  18838973.7574   18838971.8474
      2141.8914
   4585028.07348   3571129.89445  21063670.5464   21063669.3434
     -1944.4224
 -12965466.66448 -10086718.61046  21111805.5694   21111801.9334
       235.9844
  -1188979.68947   -899372.69742  22569009.5464   22569009.0234
      4601.2814
 -10648103.64349  -8290407.88647  19171435.3664   19171433.5304
      1067.8914
 -10603131.76248  -8257645.69143  21915051.2024   21915049.4914
       321.6724
 -21495500.76848 -16745656.28247  19912038.4684   19912036.1124
      3201.2344
 04  9 14 22 45 44.9950000  0  8G31G 8G13G19G29G27G10G28
  -1596617.74947  -1213507.78843  22350025.4294   22350025.3744
      5273.5314
 -18271252.69649 -14221426.85648  18832867.5154   18832865.8984
      2136.8284
   4614234.85748   3593888.39745  21069228.4994   21069227.9604
     -1949.4224
 -12968932.03048 -10089418.89646  21111145.7494   21111143.3824
       226.4534
  -1257973.33347   -953133.93043  22555880.0544   22555879.9334
      4598.0944
 -10664085.43549  -8302861.23547  19168394.3124   19168392.3474
      1063.3594
 -10607889.01947  -8261352.63143  21914145.2574   21914144.2534
       312.9384
 -21543472.25548 -16783036.64447  19902910.2574   19902907.1834
      3195.2974
 04  9 14 22 45 59.9950000  0  8G31G 8G13G19G29G27G10G28
  -1675708.92047  -1275137.18443  22334974.1324   22334974.7024
      5272.4694
 -18303267.58049 -14246373.51548  18826775.4374   18826773.6284
      2132.1564
   4643514.65348   3616703.79845  21074800.1794   21074799.4914
     -1954.1564
 -12972257.03248 -10092009.81646  21110513.0774   21110510.1944
       217.2034
  -1326921.55947  -1006859.80042  22542759.9834   22542759.5304
      4595.3444
 -10680000.95049  -8315262.92847  19165365.6404   19165363.7454
      1059.0634
 -10612518.27048  -8264959.85343  21913264.5544   21913263.7024
       304.6414
 -21591355.69748 -16820348.40347  19893798.5624   19893795.1364
      3189.5474
 04  9 14 22 46 14.9950000  0  8G31G 8G13G19G29G27G10G28
  -1754787.74647  -1336756.99943  22319925.4914   22319926.6014
      5271.3444
 -18335213.23449 -14271266.22748  18820696.5384   18820694.3474
      2127.2504
   4672863.04648   3639572.64844  21080385.1164   21080383.5774
     -1958.9224
 -12975446.05248 -10094494.76345  21109906.8044   21109903.4804
       208.0164
  -1395828.22247  -1060553.28942  22529647.4604   22529647.0424
      4592.2974
 -10695854.34049  -8327616.21247  19162348.7264   19162347.2104
      1054.7344
 -10617023.95847  -8268470.78043  21912407.2024   21912406.1014
       296.2034
 -21639155.20848 -16857594.75247  19884702.0854   19884699.1754
      3183.7194
 04  9 14 22 46 29.9950000  0  8G31G 8G13G19G29G27G10G28
  -1833848.94447  -1398363.06143  22304881.0854   22304881.4404
      5269.8444
 -18367084.78949 -14296101.20148  18814631.3434   18814629.7224
      2121.9534
   4702284.39948   3662498.33845  21085984.3274   21085982.7654
     -1964.2504
 -12978494.33348 -10096870.05246  21109326.1164   21109323.3354
       198.1724
  -1464688.16647  -1114210.35643  22516544.1944   22516543.5734
      4588.7974
 -10711640.69849  -8339917.28947  19159344.8904   19159342.8864
      1049.8284
 -10621401.54848  -8271881.92343  21911574.4764   21911573.3664
       287.2664
 -21686865.99449 -16894771.96447  19875622.7734   19875620.1874
      3177.4064
 04  9 14 22 46 44.9950000  0  8G31G 8G13G19G29G27G10G28
  -1912891.98647  -1459954.98543  22289839.7494   22289840.4404
      5269.5164
 -18398881.97549 -14320878.23248  18808580.4994   18808578.8784
      2117.9224
   4731778.95048   3685481.06945  21091596.0154   21091595.5854
     -1968.0944
 -12981401.78348 -10099135.60246  21108772.9684   21108769.8514
       189.7194
  -1533500.96047  -1167830.68443  22503449.6794   22503448.9054
      4586.4534
 -10727359.68749  -8352165.84147  19156353.4444   19156351.5894
      1046.2034
 -10625651.13248  -8275193.29143  21910765.3434   21910765.2334
       279.7194
 -21734487.91548 -16931879.94247  19866560.4134   19866558.3784
      3172.4224
 04  9 14 22 46 59.9950000  0  8G31G 8G13G19G29G27G10G28
  -1991924.20547  -1521538.46342  22274800.5774   22274800.7764
      5268.0164
 -18430612.22349 -14345603.10148  18802542.6404   18802540.6984
      2112.7194
   4761338.77848   3708514.66145  21097221.6874   21097220.6404
     -1973.2194
 -12984176.30048 -10101297.57146  21108245.1244   21108241.8584
       180.1254
  -1602273.93948  -1221419.99943  22490362.5854   22490361.1084
      4583.0784
 -10743018.74549  -8364367.71847  19153373.4444   19153371.5934
      1041.5164
 -10629780.52447  -8278411.00643  21909979.5774   21909979.1364
       270.8284
 -21782028.34348 -16968924.40847  19857513.9764   19857511.3004
      3166.2034
 04  9 14 22 47 14.9950000  0  8G31G 8G13G19G29G27G10G28
  -2070937.84347  -1583107.47643  22259764.5694   22259765.0894
      5267.1724
 -18462268.32849 -14370270.18648  18796518.4834   18796516.2654
      2108.0944
   4790970.93848   3731604.62745  21102860.1404   21102859.1324
     -1977.7194
 -12986810.64348 -10103350.29846  21107743.7024   21107740.7574
       171.1564
  -1670999.41947  -1274972.31243  22477284.2884   22477282.9014
      4580.2814
 -10758610.67149  -8376517.26447  19150406.9374   19150404.8274
      1037.3754
 -10633782.68948  -8281529.59343  21909218.1554   21909217.0114
       262.7194
 -21829480.11549 -17005899.80047  19848484.3744   19848481.5894
      3160.6884
 04  9 14 22 47 29.9950000  0  8G31G 8G13G19G29G27G10G28
  -2149932.43848  -1644661.63443  22244732.8664   22244732.5734
      5265.8134
 -18493849.88749 -14394879.19348  18790508.8194   18790507.1364
      2103.0004
   4820675.17548   3754750.75344  21108513.1714   21108511.9484
     -1982.5474
 -12989304.79648 -10105293.81346  21107268.9374   21107266.1404
       161.6414
  -1739676.96347  -1328487.25843  22464215.5624   22464214.5264
      4577.0004
 -10774135.08549  -8388614.21347  19147452.7334   19147450.8124
      1032.7814
 -10637657.72747  -8284549.09443  21908480.4764   21908480.5264
       254.2034
 -21876842.95648 -17042805.89047  19839471.5154   19839468.2694
      3154.5784
 04  9 14 22 47 44.9950000  0  8G31G 8G13G19G29G27G10G28
  -2228905.63047  -1706199.13543  22229703.6164   22229704.3904
      5264.2814
 -18525354.97649 -14419428.60048  18784513.4914   18784511.8274
      2097.9384
   4850453.19148   3777954.35944  21114179.5774   21114178.8194
     -1987.5314
 -12991656.90948 -10107126.62246  21106821.9834   21106818.9564
       152.1564
  -1808304.23547  -1381963.02043  22451155.8354   22451155.7374
      4573.5634
 -10789589.99449  -8400657.00547  19144511.4214   19144509.2924
      1028.0784
 -10641403.85347  -8287468.16943  21907767.8904   21907766.6754
       245.4844
 -21924114.94149 -17079641.19547  19830476.1634   19830473.1754
      3148.5164
 04  9 14 22 47 59.9950000  0  8G31G 8G13G19G29G27G10G28
  -2307862.26747  -1767723.71043  22214679.2264   22214679.9014
      5263.4384
 -18556788.53449 -14443922.27648  18778532.0234   18778529.7534
      2093.4384
   4880299.61748   3801211.28844  21119859.4524   21119858.3234
     -1991.8594
 -12993872.34648 -10108852.94146  21106400.0624   21106397.0034
       143.3754
  -1876886.26147  -1435403.50443  22438105.0234   22438104.7454
      4570.8914
 -10804980.41349  -8412649.54547  19141582.9214   19141580.7264
      1024.0634
 -10645026.50947  -8290291.03243  21907078.7884   21907077.8784
       237.5634
 -21971301.12249 -17116409.62147  19821496.7804   19821494.2924
      3143.0944
 04  9 14 22 48 14.9950000  0  8G31G 8G13G19G29G27G10G28
  -2386799.44247  -1829233.12743  22199658.3904   22199658.2734
      5261.7974
 -18588147.89049 -14468358.13848  18772564.4444   18772562.5734
      2088.2194
   4910216.75848   3824523.30244  21125552.3514   21125551.2064
     -1996.8124
 -12995948.72648 -10110470.89546  21106005.4834   21106002.3744
       133.7814
  -1945420.16047  -1488806.52343  22425064.1794   22425063.3864
      4567.2974
 -10820303.77449  -8424589.82347  19138666.9294   19138664.7964
      1019.3444
 -10648523.30547  -8293015.82243  21906413.0464   21906412.8554
       228.9844
 -22018399.00049 -17153109.25647  19812534.0854   19812531.7334
      3136.9534
 04  9 14 22 48 29.9950000  0  8G31G 8G13G19G29G27G10G28
  -2465723.23147  -1890732.15443  22184639.1324   22184639.4214
      5260.7974
 -18619439.53549 -14492741.23448  18766609.8354   18766607.9444
      2083.5164
   4940197.88148   3847885.17944  21131257.2414   21131256.4294
     -2001.2034
 -12997892.52248 -10111985.55146  21105635.6244   21105632.0384
       124.7974
  -2013912.00448  -1542176.76443  22412030.1944   22412029.0384
      4564.3444
 -10835566.35448  -8436482.74447  19135762.6324   19135760.7844
      1015.1564
 -10651901.00047  -8295647.80743  21905770.1874   21905769.8864
       220.8444
 -22065414.96948 -17189745.05547  19803587.4524   19803584.5584
      3131.3754
 04  9 14 22 48 44.9950000  0  8G31G 8G13G19G29G27G10G28
  -2544627.82747  -1952216.18443  22169624.6714   22169624.5114
      5259.7504
 -18650657.85849 -14517067.18448  18760669.0234   18760667.4054
      2078.8284
   4970248.16648   3871300.96744  21136976.1874   21136975.1204
     -2005.6254
 -12999698.54048 -10113392.83246  21105291.4914   21105288.9834
       115.7664
  -2082356.17448  -1595509.87543  22399005.8824   22399004.8584
      4561.3444
 -10850762.54949  -8448323.94247  19132870.5934   19132869.4564
      1010.9534
 -10655154.43447  -8298182.93243  21905150.9834   21905150.7964
       212.7664
 -22112343.67849 -17226312.86247  19794656.9914   19794654.4174
      3125.6724
 04  9 14 22 48 59.9950000  0  8G31G 8G13G19G29G27G10G28
  -2623513.77348  -2013685.71043  22154612.9684   22154612.8824
      5258.2194
 -18681803.56049 -14541336.56048  18754742.6714   18754740.8904
      2073.7814
   5000366.45948   3894769.72844  21142707.0694   21142705.7844
     -2010.4064
 -13001367.75748 -10114693.52445  21104973.4994   21104970.6674
       106.5474
  -2150753.13447  -1648806.17843  22385990.3044   22385989.4134
      4558.0784
 -10865893.19349  -8460114.05547  19129991.2884   19129989.9644
      1006.3134
 -10658284.64747  -8300622.07843  21904555.3824   21904554.3864
       204.3914
 -22159185.84448 -17262813.22347  19785742.9294   19785740.6874
      3119.6724
 04  9 14 22 49 14.9950000  0  8G31G 8G13G19G29G27G10G28
  -2702382.45047  -2075141.73043  22139604.2334   22139603.9214
      5257.3914
 -18712878.46749 -14565550.76948  18748829.1014   18748827.0154
      2069.3444
   5030550.68648   3918289.86144  21148450.6084   21148450.0584
     -2014.4374
 -13002902.07848 -10115889.10446  21104681.5934   21104678.8474
        97.8914
  -2219104.32047  -1702066.83143  22372982.9994   22372982.5304
      4555.2814
 -10880959.96149  -8471854.40047  19127124.3984   19127122.7184
      1002.3134
 -10661293.67947  -8302966.79843  21903983.0544   21903982.0464
       196.6254
 -22205943.17248 -17299247.49047  19776845.7884   19776842.9174
      3114.4224
 04  9 14 22 49 29.9950000  0  8G31G 8G13G19G29G27G10G28
  -2781232.40747  -2136583.20643  22124599.0384   22124599.5384
      5256.3134
 -18743881.15149 -14589708.70748  18742929.3984   18742927.4214
      2064.6414
   5060801.71148   3941862.06244  21154207.9444   21154206.5544
     -2018.6564
 -13004300.58448 -10116978.85846  21104415.5774   21104412.4874
        88.9224
  -2287408.35647  -1755290.75143  22359985.4214   22359984.7804
      4552.3134
 -10895961.61149  -8483543.99847  19124269.6084   19124268.2494
       998.1724
 -10664180.62547  -8305216.36043  21903434.0384   21903432.9444
       188.6254
 -22252614.56549 -17335614.78747  19767964.6164   19767961.6904
      3108.7974
 04  9 14 22 49 44.9950000  0  8G31G 8G13G19G29G27G10G28
  -2860066.53747  -2198012.36743  22109598.2964   22109597.6554
      5255.0944
 -18774814.56949 -14613812.65648  18737043.0304   18737040.8824
      2059.9384
   5091115.86147   3965483.43544  21159976.4214   21159975.5774
     -2022.9694
 -13005566.71348 -10117965.44246  21104174.5854   21104171.7454
        80.0634
  -2355668.24148  -1808480.23543  22346995.9134   22346994.8274
      4549.2034
 -10910901.40648  -8495185.39747  19121426.8904   19121425.0934
       993.9534
 -10666949.12547  -8307373.66343  21902906.6014   21902906.4804
       180.6564
 -22299203.33848 -17371917.70447  19759098.9214   19759096.3744
      3103.1564
 04  9 14 22 49 59.9950000  0  8G31G 8G13G19G29G27G10G28
  -2938884.89948  -2259429.21243  22094599.5624   22094599.3124
      5253.7034
 -18805679.14249 -14637862.98148  18731169.6554   18731167.4684
      2055.0314
   5121492.74348   3989153.70344  21165756.7334   21165755.9404
     -2027.5164
 -13006700.84748 -10118849.18945  21103958.8664   21103956.0854
        70.9534
  -2423883.84747  -1861635.23243  22334014.7574   22334014.1904
      4545.9384
 -10925779.61849  -8506778.82147  19118595.6794   19118594.2734
       989.5474
 -10669599.64047  -8309439.02143  21902402.5774   21902402.0074
       172.4064
 -22345709.87648 -17408156.54947  19750248.6484   19750246.4484
      3097.3914
 04  9 14 22 50 14.9950000  0  8G31G 8G13G19G29G27G10G28
  -3017677.51847  -2320825.98643  22079605.3584   22079605.7104
      5252.2664
 -18836465.40149 -14661852.25148  18725311.2734   18725309.2764
      2050.1414
   5151941.47848   4012879.94044  21171550.7964   21171549.8084
     -2032.0004
 -13007693.66748 -10119622.82646  21103769.8194   21103766.7264
        61.7194
  -2492045.54547  -1914748.21343  22321044.5774   22321043.7734
      4542.5784
 -10940586.54349  -8518316.68347  19115777.6324   19115775.9604
       985.0004
 -10672122.93747  -8311405.21843  21901921.7884   21901921.4134
       164.2344
 -22392124.60848 -17444323.84247  19741416.3514   19741413.6794
      3091.5314
 04  9 14 22 50 29.9950000  0  8G31G 8G13G19G29G27G10G28
  -3096455.23048  -2382211.15743  22064614.8274   22064614.6674
      5251.6414
 -18867184.34149 -14685789.09248  18719465.5154   18719463.3984
      2046.0164
   5182450.72948   4036653.35544  21177356.7884   21177355.3944
     -2035.6414
 -13008556.54548 -10120295.20446  21103604.9524   21103602.4054
        53.4384
  -2560164.08147  -1967827.56143  22308081.8904   22308081.5584
      4540.0634
 -10955333.21048  -8529807.59247  19112971.4764   19112969.4484
       981.3594
 -10674530.44447  -8313281.19843  21901463.8354   21901463.3354
       156.9534
 -22438458.54848 -17480428.19947  19732599.3824   19732596.7064
      3086.5634
 04  9 14 22 50 44.9950000  0  8G31G 8G13G19G29G27G10G28
  -3175219.43348  -2443585.82543  22049625.4374   22049625.4804
      5250.6724
 -18897837.15349 -14709674.39048  18713632.3124   18713630.9724
      2041.5164
   5213018.76548   4060472.56544  21183173.8274   21183173.0114
     -2039.6564
 -13009291.03347 -10120867.54546  21103466.0074   21103462.8514
        44.8284
  -2628240.56747  -2020874.14742  22295127.1554   22295126.8704
      4537.1254
 -10970020.90848  -8541252.55547  19110176.5624   19110174.6284
       977.3914
 -10676823.83547  -8315068.28343  21901027.5154   21901027.3194
       149.2194
 -22484713.11749 -17516470.69647  19723797.1554   19723794.6364
      3081.1094
 04  9 14 22 50 59.9950000  0  8G31G 8G13G19G29G27G10G28
  -3253971.03947  -2504950.65343  22034640.0694   22034639.8864
      5249.7664
 -18928426.24149 -14733510.03948  18707811.6324   18707809.7064
      2037.0314
   5243642.86148   4084335.47144  21189000.9684   21189000.0774
     -2043.5474
 -13009899.63948 -10121341.78746  21103350.3904   21103347.0304
        36.2974
  -2696277.23147  -2073889.68043  22282180.2884   22282180.1324
      4534.4224
 -10984652.07448  -8552653.47647  19107392.1484   19107390.2024
       973.4694
 -10679005.76647  -8316768.49443  21900612.3824   21900612.0854
       141.7194
 -22530890.59949 -17552453.13347  19715010.3434   19715007.5814
      3075.8754
 04  9 14 22 51 14.9950000  0  8G31G 8G13G19G29G27G10G28
  -3332707.42248  -2566303.60343  22019657.0654   22019657.1114
      5248.7664
 -18958948.00549 -14757293.22648  18702003.7054   18702001.7324
      2032.8594
   5274326.22648   4108244.54144  21194840.1504   21194839.5684
     -2047.1724
 -13010379.09048 -10121715.39045  21103258.7684   21103255.9204
        28.0634
  -2764270.08947  -2126871.11343  22269240.8384   22269241.3694
      4531.7344
 -10999222.99748  -8564007.43647  19104619.4554   19104617.5924
       969.6724
 -10681072.95547  -8318379.30943  21900219.4324   21900218.2054
       134.3284
 -22576987.62948 -17588372.88347  19706238.0884   19706235.4324
      3070.7504
 04  9 14 22 51 29.9940000  0  8G31G 8G13G19G29G27G10G28
  -3411421.93848  -2627639.54043  22004678.0804   22004678.1824
      5247.4384
 -18989399.62549 -14781021.76048  18696208.7914   18696207.0574
      2027.9844
   5305067.09348   4132198.42844  21200690.2914   21200689.0964
     -2051.5314
 -13010728.99347 -10121988.04345  21103192.0024   21103189.2794
        18.8444
  -2832213.93347  -2179814.34343  22256311.5654   22256312.0224
      4528.4844
 -11013732.17749  -8575313.29947  19101858.6904   19101856.6274
       965.2974
 -10683025.10647  -8319900.48043  21899848.1274   21899846.3814
       126.3134
 -22623000.60248 -17624227.13747  19697482.3614   19697479.6824
      3065.0474
 04  9 14 22 51 44.9940000  0  8G31G 8G13G19G29G27G10G28
  -3490129.91747  -2688970.37543  21989699.4554   21989700.2174
      5246.9694
 -19019790.27049 -14804702.77748  18690425.8384   18690423.8894
      2024.0634
   5335864.33347   4156196.24344  21206550.7444   21206550.1354
     -2054.8124
 -13010954.40748 -10122163.70846  21103149.3544   21103146.0224
        11.0474
  -2900122.40347  -2232730.01042  22243389.8304   22243389.5534
      4526.0634
 -11028186.37748  -8586576.30647  19099108.1354   19099106.2404
       961.9224
 -10684867.64047  -8321336.23243  21899497.5804   21899496.4944
       119.2974
 -22668940.51048 -17660024.44547  19688740.0184   19688737.6194
      3060.2814
 04  9 14 22 51 59.9940000  0  8G31G 8G13G19G29G27G10G28
  -3568831.42148  -2750296.17943  21974723.9404   21974723.6904
      5246.1414
 -19050123.67949 -14828339.20048  18684653.7604   18684651.4434
      2019.9384
   5366709.85048   4180231.66744  21212419.9634   21212419.1624
     -2058.3124
 -13011061.45647 -10122247.12746  21103128.7914   21103126.4674
         2.8284
  -2967996.60247  -2285618.96142  22230473.4404   22230473.1314
      4523.4534
 -11042590.38248  -8597800.21647  19096367.4324   19096365.0294
       958.2034
 -10686606.58247  -8322691.27843  21899165.0724   21899165.5844
       112.0474
 -22714810.26848 -17695767.09747  19680011.5804   19680009.3224
      3055.2034
 04  9 14 22 52 14.9940000  0  8G31G 8G13G19G29G27G10G28
  -3647522.62848  -2811613.92843  21959749.4324   21959749.7214
      5245.5004
 -19080395.88249 -14851927.91648  18678892.5104   18678890.7724
      2015.9224
   5397606.76448   4204307.15444  21218299.8154   21218299.3384
     -2061.7194
 -13011046.87748 -10122235.76946  21103132.0104   21103129.0534
        -5.2194
  -3035832.73447  -2338478.29742  22217565.0414   22217563.7404
      4520.9224
 -11056940.68049  -8608982.26347  19093636.2214   19093634.4514
       954.6884
 -10688238.73146  -8323963.08343  21898855.6044   21898855.3424
       105.0004
 -22760606.32148 -17731452.30547  19671296.8384   19671294.0334
      3050.3914
 04  9 14 22 52 29.9940000  0  8G31G 8G13G19G29G27G10G28
  -3726199.89048  -2872920.82743  21944777.3934   21944778.4554
      5244.4534
 -19110603.72149 -14875466.48848  18673144.5104   18673142.3974
      2011.5474
   5428558.06847   4228425.01044  21224189.2754   21224189.1544
     -2065.4374
 -13010907.47648 -10122127.15345  21103157.8304   21103155.0764
       -13.6724
  -3103627.16447  -2391305.09042  22204663.7364   22204663.4434
      4518.0944
 -11071233.86249  -8620119.81547  19090916.4714   19090914.3934
       950.7974
 -10689761.00747  -8325149.28643  21898565.8224   21898565.6824
        97.6884
 -22806325.25648 -17767077.43247  19662596.5254   19662593.5294
      3045.2034
 04  9 14 22 52 44.9940000  0  8G31G 8G13G19G29G27G10G28
  -3804865.50348  -2934218.63143  21929808.4794   21929808.6624
      5244.2034
 -19140749.64949 -14898956.81748  18667407.7834   18667405.4824
      2007.8754
   5459561.00748   4252583.12444  21230089.6744   21230088.6274
     -2068.4224
 -13010645.93248 -10121923.36745  21103208.3154   21103204.6624
       -21.3124
  -3171381.99447  -2444101.04643  22191770.1434   22191769.7404
      4515.8444
 -11085472.24649  -8631214.65647  19088207.1744   19088205.4324
       947.6094
 -10691176.13346  -8326251.99143  21898297.0724   21898295.9984
        91.0004
 -22851969.68048 -17802644.50147  19653910.8074   19653908.1314
      3040.7034
 04  9 14 22 52 59.9940000  0  8G31G 8G13G19G29G27G10G28
  -3883516.78348  -2995505.30643  21914841.5494   21914840.8464
      5243.3284
 -19170831.60849 -14922397.29648  18661683.3304   18661681.1904
      2003.6724
   5490617.28947   4276782.77144  21235998.8384   21235998.4864
     -2071.8124
 -13010260.48948 -10121623.02746  21103281.7684   21103278.6154
       -29.3914
  -3239095.02147  -2496864.37143  22178885.0654   22178884.4474
      4513.1094
 -11099653.91948  -8642265.31347  19085508.2754   19085506.3544
       943.9064
 -10692482.44846  -8327269.90743  21898048.6354   21898047.3894
        83.7974
 -22897537.53548 -17838151.90947  19645239.6584   19645236.7874
      3035.7034
 04  9 14 22 53 14.9940000  0  8G31G 8G13G19G29G27G10G28
  -3962155.87648  -3056782.45443  21899876.9794   21899876.8974
      5242.0474
 -19200851.58549 -14945789.48048  18655970.6504   18655968.7834
      1999.1884
   5521724.28147   4301021.93344  21241918.6744   21241918.0254
     -2075.6414
 -13009753.42247 -10121227.91945  21103378.2444   21103374.9984
       -37.9534
  -3306768.18447  -2549596.69343  22166007.3464   22166005.9984
      4510.0474
 -11113780.85148  -8653273.31347  19082820.5334   19082818.2444
       939.9224
 -10693682.49247  -8328205.02843  21897820.0334   21897819.2684
        76.3284
 -22943031.03949 -17873601.37447  19636582.4554   19636579.7834
      3030.3134
 04  9 14 22 53 29.9940000  0  8G31G 8G13G19G29G27G10G28
  -4040781.75448  -3118049.31943  21884914.6114   21884914.8734
      5241.2344
 -19230808.79049 -14969132.76748  18650270.2054   18650268.2444
      1994.9384
   5552882.55747   4325301.08144  21247847.8934   21247847.3264
     -2079.0164
 -13009124.25147 -10120737.67345  21103497.4634   21103494.4824
       -46.1094
  -3374400.60847  -2602297.29543  22153137.3934   22153136.2604
      4507.3444
 -11127852.38248  -8664238.15047  19080142.3854   19080140.2834
       936.1414
 -10694775.75247  -8329056.93843  21897611.9634   21897611.4284
        69.2504
 -22988449.52848 -17908992.39247  19627939.7444   19627937.2954
      3025.2974
 04  9 14 22 53 44.9940000  0  8G31G 8G13G19G29G27G10G28
  -4119390.20748  -3179302.58843  21869955.6114   21869956.2324
      5239.9384
 -19260699.54049 -14992424.24748  18644581.9554   18644579.8544
      1990.4224
   5584095.61548   4349622.90844  21253787.8464   21253786.7834
     -2082.7504
 -13008369.30848 -10120149.41745  21103641.4084   21103638.5454
       -54.5624
  -3441987.95948  -2654962.72543  22140275.9714   22140275.4554
      4504.2814
 -11141864.53048  -8675156.71047  19077475.8934   19077473.6474
       932.0784
 -10695758.62846  -8329822.83043  21897424.0254   21897423.9404
        61.8284
 -23033789.19148 -17944321.97347  19619311.6584   19619309.4364
      3020.0004
 04  9 14 22 53 59.9940000  0  8G31G 8G13G19G29G27G10G28
  -4197982.02048  -3240542.92343  21855000.0414   21854999.7254
      5238.7034
 -19290524.75749 -15015664.66848  18638906.4634   18638904.7174
      1986.0314
   5615361.82947   4373986.14944  21259737.3384   21259737.0494
     -2086.3444
 -13007490.12048 -10119464.34145  21103808.2444   21103805.2014
       -62.8914
  -3509531.27348  -2707593.84643  22127422.9004   22127422.0374
      4501.3444
 -11155818.53848  -8686029.95447  19074820.4864   19074818.6004
       928.1724
 -10696632.90947  -8330504.07743  21897258.5414   21897257.7294
        54.5784
 -23079051.36149 -17979591.19247  19610698.4794   19610695.7134
      3014.7344
 04  9 14 22 54 14.9940000  0  8G31G 8G13G19G29G27G10G28
  -4276556.14648  -3301769.43843  21840047.7524   21840048.0844
      5237.5784
 -19320283.75149 -15038853.47748  18633243.5724   18633241.9204
      1981.7034
   5646681.70747   4398391.20844  21265697.2054   21265696.9554
     -2089.8124
 -13006486.11548 -10118682.00545  21103999.5804   21103997.1474
       -71.0474
  -3577029.59748  -2760189.92543  22114578.5724   22114577.4984
      4498.3594
 -11169713.58648  -8696857.27347  19072176.5804   19072174.4204
       924.4064
 -10697398.00147  -8331100.27443  21897112.6744   21897112.1474
        47.4224
 -23124235.21249 -18014799.36547  19602100.2214   19602097.3734
      3009.6254
 04  9 14 22 54 29.9940000  0  8G31G 8G13G19G29G27G10G28
  -4355111.98348  -3362981.72943  21825099.5414   21825098.9754
      5235.9384
 -19349975.58049 -15061989.97848  18627593.3934   18627591.2954
      1976.8134
   5678055.45847   4422838.25244  21271667.2684   21271667.0254
     -2093.7974
 -13005356.90848 -10117802.11946  21104214.5024   21104211.3464
       -79.9224
  -3644481.92848  -2812750.15243  22101742.9864   22101741.4984
      4494.8754
 -11183548.82549  -8707637.97747  19069543.6664   19069541.4594
       919.8914
 -10698053.62746  -8331611.16743  21896987.1824   21896987.4824
        39.5314
 -23169340.13648 -18049946.04647  19593517.1194   19593514.3574
      3003.9064
 04  9 14 22 54 44.9940000  0  8G31G 8G13G19G29G27G10G28
  -4433645.97048  -3424177.00243  21810155.1274   21810154.5224
      5235.3134
 -19379597.80049 -15085072.20948  18621956.5334   18621954.4204
      1972.9384
   5709485.31747   4447329.01144  21277648.7834   21277648.5104
     -2096.7504
 -13004100.11247 -10116822.79345  21104453.4244   21104450.2604
       -87.5474
  -3711885.54148  -2865272.41343  22088915.9164   22088914.8774
      4492.4384
 -11197321.84848  -8718370.19847  19066922.6274   19066920.7564
       916.6094
 -10698597.49947  -8332034.97043  21896883.9634   21896883.5684
        33.0314
 -23214363.54749 -18085029.19547  19584949.3774   19584947.1194
      2999.2974
 04  9 14 22 54 59.9940000  0  8G31G 8G13G19G29G27G10G28
  -4512160.98748  -3485357.46643  21795213.6904   21795213.6824
      5233.4384
 -19409152.86949 -15108102.14548  18616332.3464   18616330.3224
      1967.8284
   5740968.51147   4471861.33244  21283640.0574   21283638.8734
     -2100.8914
 -13002718.59448 -10115746.29946  21104716.4474   21104713.7404
       -96.4224
  -3779242.81948  -2917758.60243  22076099.0254   22076097.4364
      4488.7194
 -11211035.10449  -8729055.86147  19064313.2444   19064311.4164
       912.0474
 -10699032.64147  -8332374.05743  21896801.8694   21896801.2644
        25.1254
 -23259308.16148 -18120050.95747  19576396.7364   19576393.6704
      2993.3594
 04  9 14 22 55 14.9940000  0  8G31G 8G13G19G29G27G10G28
  -4590655.34748  -3546521.84743  21780276.4944   21780276.6824
      5232.2034
 -19438639.60549 -15131078.80948  18610721.2444   18610719.0184
      1963.4694
   5772505.81048   4496435.80144  21289640.6114   21289640.4634
     -2104.3754
 -13001211.35448 -10114571.83746  21105003.5104   21105000.5104
      -104.7974
  -3846552.12048  -2970207.38143  22063290.1274   22063288.7874
      4485.6254
 -11224687.45949  -8739694.07147  19061715.0184   19061713.1934
       908.0634
 -10699358.07646  -8332627.64343  21896739.8384   21896738.7644
        17.8444
 -23304172.87448 -18155010.46047  19567859.3464   19567856.2014
      2988.2504
